Time,TemperatureF,DewpointF,PressureIn,WindDirection,WindDirectionDegrees,WindSpeedMPH,WindSpeedGustMPH,Humidity,HourlyPrecipIn,Conditions,Clouds,dailyrainin,SolarRadiationWatts/m^2,SoftwareType,DateUTC
2013-11-28 00:00:00,24.5,21.5,31.17,North,355,0.0,0.0,88,0.00,,,0.00,0.00,VWS V14.00,2013-11-28 07:00:00,
2013-11-28 00:01:00,24.5,21.5,31.15,North,355,0.0,0.0,88,0.00,,,0.00,0.00,VWS V14.00,2013-11-28 07:01:00,
2013-11-28 00:02:00,24.6,21.6,31.15,North,355,0.0,0.0,88,0.00,,,0.00,0.00,VWS V14.00,2013-11-28 07:02:00,
2013-11-28 00:03:00,24.6,21.6,31.15,North,355,0.0,0.0,88,0.00,,,0.00,0.00,VWS V14.00,2013-11-28 07:03:00,
2013-11-28 00:04:00,24.7,21.7,31.15,North,355,0.0,0.0,88,0.00,,,0.00,0.00,VWS V14.00,2013-11-28 07:04:00,
2013-11-28 00:05:00,24.7,21.7,31.15,North,355,0.0,0.0,88,0.00,,,0.00,0.00,VWS V14.00,2013-11-28 07:05:00,
2013-11-28 00:06:00,24.7,21.7,31.15,North,355,0.0,0.0,88,0.00,,,0.00,0.00,VWS V14.00,2013-11-28 07:06:00,
2013-11-28 00:07:00,24.8,21.8,31.15,North,355,0.0,0.0,88,0.00,,,0.00,0.00,VWS V14.00,2013-11-28 07:07:00,
2013-11-28 00:08:00,24.8,22.0,31.15,North,355,0.0,0.0,89,0.00,,,0.00,0.00,VWS V14.00,2013-11-28 07:08:00,
2013-11-28 00:09:00,24.8,22.0,31.15,North,355,0.0,0.0,89,0.00,,,0.00,0.00,VWS V14.00,2013-11-28 07:09:00,
2013-11-28 00:10:00,24.8,21.8,31.15,North,355,0.0,0.0,88,0.00,,,0.00,0.00,VWS V14.00,2013-11-28 07:10:00,
2013-11-28 00:11:00,24.8,21.8,31.15,North,355,0.0,0.0,88,0.00,,,0.00,0.00,VWS V14.00,2013-11-28 07:11:00,
2013-11-28 00:12:00,24.8,21.8,31.15,North,355,0.0,0.0,88,0.00,,,0.00,0.00,VWS V14.00,2013-11-28 07:12:00,
2013-11-28 00:13:00,24.8,21.8,31.15,North,355,0.0,0.0,88,0.00,,,0.00,0.00,VWS V14.00,2013-11-28 07:13:00,
2013-11-28 00:14:00,24.8,21.8,31.15,North,355,0.0,0.0,88,0.00,,,0.00,0.00,VWS V14.00,2013-11-28 07:14:00,
2013-11-28 00:15:00,24.8,21.8,31.15,North,355,0.0,0.0,88,0.00,,,0.00,0.00,VWS V14.00,2013-11-28 07:15:00,
2013-11-28 00:16:00,24.8,21.8,31.15,North,355,0.0,0.0,88,0.00,,,0.00,0.00,VWS V14.00,2013-11-28 07:16:00,
2013-11-28 00:17:00,24.8,21.8,31.15,North,355,0.0,0.0,88,0.00,,,0.00,0.00,VWS V14.00,2013-11-28 07:17:00,
2013-11-28 00:18:00,24.8,21.8,31.15,North,355,0.0,0.0,88,0.00,,,0.00,0.00,VWS V14.00,2013-11-28 07:18:00,
2013-11-28 00:19:00,24.8,21.8,31.15,North,355,0.0,0.0,88,0.00,,,0.00,0.00,VWS V14.00,2013-11-28 07:19:00,
2013-11-28 00:20:00,24.8,21.8,31.15,North,355,0.0,0.0,88,0.00,,,0.00,0.00,VWS V14.00,2013-11-28 07:20:00,
2013-11-28 00:21:00,24.8,21.8,31.15,North,355,0.0,0.0,88,0.00,,,0.00,0.00,VWS V14.00,2013-11-28 07:21:00,
2013-11-28 00:22:00,24.8,22.0,31.15,North,355,0.0,0.0,89,0.00,,,0.00,0.00,VWS V14.00,2013-11-28 07:22:00,
2013-11-28 00:23:00,24.8,22.0,31.15,North,355,0.0,0.0,89,0.00,,,0.00,0.00,VWS V14.00,2013-11-28 07:23:00,
2013-11-28 00:24:00,24.8,22.0,31.15,North,355,0.0,0.0,89,0.00,,,0.00,0.00,VWS V14.00,2013-11-28 07:24:00,
2013-11-28 00:25:00,24.8,22.0,31.15,North,355,0.0,0.0,89,0.00,,,0.00,0.00,VWS V14.00,2013-11-28 07:25:00,
2013-11-28 00:26:00,24.8,22.0,31.15,North,355,0.0,0.0,89,0.00,,,0.00,0.00,VWS V14.00,2013-11-28 07:26:00,
2013-11-28 00:27:00,24.8,22.0,31.15,North,355,0.0,0.0,89,0.00,,,0.00,0.00,VWS V14.00,2013-11-28 07:27:00,
2013-11-28 00:28:00,24.9,22.1,31.15,North,355,0.0,0.0,89,0.00,,,0.00,0.00,VWS V14.00,2013-11-28 07:28:00,
2013-11-28 00:29:00,24.9,22.1,31.15,North,355,0.0,0.0,89,0.00,,,0.00,0.00,VWS V14.00,2013-11-28 07:29:00,
2013-11-28 00:30:00,24.9,22.1,31.15,North,355,0.0,0.0,89,0.00,,,0.00,0.00,VWS V14.00,2013-11-28 07:30:00,
2013-11-28 00:31:00,24.9,22.1,31.15,North,355,0.0,0.0,89,0.00,,,0.00,0.00,VWS V14.00,2013-11-28 07:31:00,
2013-11-28 00:32:00,24.9,22.1,31.15,North,355,0.0,0.0,89,0.00,,,0.00,0.00,VWS V14.00,2013-11-28 07:32:00,
2013-11-28 00:33:00,24.9,22.1,31.15,North,355,0.0,0.0,89,0.00,,,0.00,0.00,VWS V14.00,2013-11-28 07:33:00,
2013-11-28 00:34:00,24.9,22.1,31.15,North,355,0.0,0.0,89,0.00,,,0.00,0.00,VWS V14.00,2013-11-28 07:34:00,
2013-11-28 00:35:00,24.9,22.1,31.15,North,355,0.0,0.0,89,0.00,,,0.00,0.00,VWS V14.00,2013-11-28 07:35:00,
2013-11-28 00:36:00,24.9,22.1,31.15,North,355,0.0,0.0,89,0.00,,,0.00,0.00,VWS V14.00,2013-11-28 07:36:00,
2013-11-28 00:37:00,24.9,22.1,31.15,North,355,0.0,0.0,89,0.00,,,0.00,0.00,VWS V14.00,2013-11-28 07:37:00,
2013-11-28 00:38:00,24.8,22.0,31.15,North,355,0.0,0.0,89,0.00,,,0.00,0.00,VWS V14.00,2013-11-28 07:38:00,
2013-11-28 00:39:00,24.8,22.0,31.15,North,355,0.0,0.0,89,0.00,,,0.00,0.00,VWS V14.00,2013-11-28 07:39:00,
2013-11-28 00:40:00,24.8,22.0,31.15,North,355,0.0,0.0,89,0.00,,,0.00,0.00,VWS V14.00,2013-11-28 07:40:00,
2013-11-28 00:41:00,24.7,21.9,31.15,North,355,0.0,0.0,89,0.00,,,0.00,0.00,VWS V14.00,2013-11-28 07:41:00,
2013-11-28 00:42:00,24.7,21.9,31.15,North,355,0.0,0.0,89,0.00,,,0.00,0.00,VWS V14.00,2013-11-28 07:42:00,
2013-11-28 00:43:00,24.7,21.9,31.15,North,355,0.0,0.0,89,0.00,,,0.00,0.00,VWS V14.00,2013-11-28 07:43:00,
2013-11-28 00:44:00,24.7,21.7,31.15,North,355,0.0,0.0,88,0.00,,,0.00,0.00,VWS V14.00,2013-11-28 07:44:00,
2013-11-28 00:45:00,24.6,21.6,31.15,North,355,0.0,0.0,88,0.00,,,0.00,0.00,VWS V14.00,2013-11-28 07:45:00,
2013-11-28 00:46:00,24.6,21.6,31.15,North,355,0.0,0.0,88,0.00,,,0.00,0.00,VWS V14.00,2013-11-28 07:46:00,
2013-11-28 00:47:00,24.6,21.6,31.15,North,355,0.0,0.0,88,0.00,,,0.00,0.00,VWS V14.00,2013-11-28 07:47:00,
2013-11-28 00:48:00,24.6,21.8,31.15,North,355,0.0,0.0,89,0.00,,,0.00,0.00,VWS V14.00,2013-11-28 07:48:00,
2013-11-28 00:49:00,24.6,21.8,31.15,North,355,0.0,0.0,89,0.00,,,0.00,0.00,VWS V14.00,2013-11-28 07:49:00,
2013-11-28 00:50:00,24.5,21.7,31.15,North,355,0.0,0.0,89,0.00,,,0.00,0.00,VWS V14.00,2013-11-28 07:50:00,
2013-11-28 00:51:00,24.5,21.7,31.15,North,355,0.0,0.0,89,0.00,,,0.00,0.00,VWS V14.00,2013-11-28 07:51:00,
2013-11-28 00:52:00,24.5,21.7,31.15,North,355,0.0,0.0,89,0.00,,,0.00,0.00,VWS V14.00,2013-11-28 07:52:00,
2013-11-28 00:53:00,24.5,21.7,31.15,North,355,0.0,0.0,89,0.00,,,0.00,0.00,VWS V14.00,2013-11-28 07:53:00,
2013-11-28 00:54:00,24.4,21.4,31.15,North,355,0.0,0.0,88,0.00,,,0.00,0.00,VWS V14.00,2013-11-28 07:54:00,
2013-11-28 00:55:00,24.4,21.4,31.15,North,355,0.0,0.0,88,0.00,,,0.00,0.00,VWS V14.00,2013-11-28 07:55:00,
2013-11-28 00:56:00,24.3,21.3,31.15,North,355,0.0,0.0,88,0.00,,,0.00,0.00,VWS V14.00,2013-11-28 07:56:00,
2013-11-28 00:57:00,24.1,20.8,31.15,North,355,0.0,0.0,87,0.00,,,0.00,0.00,VWS V14.00,2013-11-28 07:57:00,
2013-11-28 00:58:00,24.0,20.7,31.15,North,355,0.0,0.0,87,0.00,,,0.00,0.00,VWS V14.00,2013-11-28 07:58:00,
2013-11-28 00:59:00,23.9,20.6,31.15,North,355,0.0,0.0,87,0.00,,,0.00,0.00,VWS V14.00,2013-11-28 07:59:00,
2013-11-28 01:00:00,23.7,20.1,31.15,North,355,0.0,0.0,86,0.00,,,0.00,0.00,VWS V14.00,2013-11-28 08:00:00,
2013-11-28 01:01:00,23.5,19.9,31.15,North,355,0.0,0.0,86,0.00,,,0.00,0.00,VWS V14.00,2013-11-28 08:01:00,
2013-11-28 01:02:00,23.3,19.5,31.15,North,355,0.0,0.0,85,0.00,,,0.00,0.00,VWS V14.00,2013-11-28 08:02:00,
2013-11-28 01:03:00,23.1,19.0,31.16,North,355,0.0,0.0,84,0.00,,,0.00,0.00,VWS V14.00,2013-11-28 08:03:00,
2013-11-28 01:04:00,23.0,18.9,31.16,North,355,0.0,0.0,84,0.00,,,0.00,0.00,VWS V14.00,2013-11-28 08:04:00,
2013-11-28 01:05:00,22.8,18.7,31.16,North,355,0.0,0.0,84,0.00,,,0.00,0.00,VWS V14.00,2013-11-28 08:05:00,
2013-11-28 01:06:00,22.8,18.7,31.16,North,355,0.0,0.0,84,0.00,,,0.00,0.00,VWS V14.00,2013-11-28 08:06:00,
2013-11-28 01:07:00,22.7,18.6,31.16,North,355,0.0,0.0,84,0.00,,,0.00,0.00,VWS V14.00,2013-11-28 08:07:00,
2013-11-28 01:08:00,22.6,18.8,31.16,North,355,0.0,0.0,85,0.00,,,0.00,0.00,VWS V14.00,2013-11-28 08:08:00,
2013-11-28 01:09:00,22.6,18.8,31.16,North,355,0.0,0.0,85,0.00,,,0.00,0.00,VWS V14.00,2013-11-28 08:09:00,
2013-11-28 01:10:00,22.5,18.7,31.16,North,355,0.0,0.0,85,0.00,,,0.00,0.00,VWS V14.00,2013-11-28 08:10:00,
2013-11-28 01:11:00,22.5,18.7,31.16,North,355,0.0,0.0,85,0.00,,,0.00,0.00,VWS V14.00,2013-11-28 08:11:00,
2013-11-28 01:12:00,22.5,19.0,31.16,North,355,0.0,0.0,86,0.00,,,0.00,0.00,VWS V14.00,2013-11-28 08:12:00,
2013-11-28 01:13:00,22.5,19.0,31.16,North,355,0.0,0.0,86,0.00,,,0.00,0.00,VWS V14.00,2013-11-28 08:13:00,
2013-11-28 01:14:00,22.5,19.0,31.16,North,355,0.0,0.0,86,0.00,,,0.00,0.00,VWS V14.00,2013-11-28 08:14:00,
2013-11-28 01:15:00,22.4,19.1,31.16,North,355,0.0,0.0,87,0.00,,,0.00,0.00,VWS V14.00,2013-11-28 08:15:00,
2013-11-28 01:16:00,22.5,19.2,31.16,North,355,0.0,0.0,87,0.00,,,0.00,0.00,VWS V14.00,2013-11-28 08:16:00,
2013-11-28 01:17:00,22.5,19.2,31.16,North,355,0.0,0.0,87,0.00,,,0.00,0.00,VWS V14.00,2013-11-28 08:17:00,
2013-11-28 01:18:00,22.5,19.2,31.16,North,355,0.0,0.0,87,0.00,,,0.00,0.00,VWS V14.00,2013-11-28 08:18:00,
2013-11-28 01:19:00,22.5,19.2,31.16,North,355,0.0,0.0,87,0.00,,,0.00,0.00,VWS V14.00,2013-11-28 08:19:00,
2013-11-28 01:20:00,22.5,19.2,31.16,North,355,0.0,0.0,87,0.00,,,0.00,0.00,VWS V14.00,2013-11-28 08:20:00,
2013-11-28 01:21:00,22.5,19.2,31.16,North,355,0.0,0.0,87,0.00,,,0.00,0.00,VWS V14.00,2013-11-28 08:21:00,
2013-11-28 01:22:00,22.6,19.6,31.16,North,355,0.0,0.0,88,0.00,,,0.00,0.00,VWS V14.00,2013-11-28 08:22:00,
2013-11-28 01:23:00,22.6,19.6,31.16,North,355,0.0,0.0,88,0.00,,,0.00,0.00,VWS V14.00,2013-11-28 08:23:00,
2013-11-28 01:24:00,22.6,19.6,31.16,North,355,0.0,0.0,88,0.00,,,0.00,0.00,VWS V14.00,2013-11-28 08:24:00,
2013-11-28 01:25:00,22.6,19.6,31.16,North,355,0.0,0.0,88,0.00,,,0.00,0.00,VWS V14.00,2013-11-28 08:25:00,
2013-11-28 01:26:00,22.7,19.7,31.16,North,355,0.0,0.0,88,0.00,,,0.00,0.00,VWS V14.00,2013-11-28 08:26:00,
2013-11-28 01:27:00,22.7,19.7,31.16,North,355,0.0,0.0,88,0.00,,,0.00,0.00,VWS V14.00,2013-11-28 08:27:00,
2013-11-28 01:28:00,22.7,19.7,31.16,North,355,0.0,0.0,88,0.00,,,0.00,0.00,VWS V14.00,2013-11-28 08:28:00,
2013-11-28 01:29:00,22.8,19.8,31.16,North,355,0.0,0.0,88,0.00,,,0.00,0.00,VWS V14.00,2013-11-28 08:29:00,
2013-11-28 01:30:00,22.8,20.0,31.16,North,355,0.0,0.0,89,0.00,,,0.00,0.00,VWS V14.00,2013-11-28 08:30:00,
2013-11-28 01:31:00,22.8,20.0,31.16,North,355,0.0,0.0,89,0.00,,,0.00,0.00,VWS V14.00,2013-11-28 08:31:00,
2013-11-28 01:32:00,22.8,20.0,31.16,North,355,0.0,0.0,89,0.00,,,0.00,0.00,VWS V14.00,2013-11-28 08:32:00,
2013-11-28 01:33:00,22.8,20.0,31.16,North,355,0.0,0.0,89,0.00,,,0.00,0.00,VWS V14.00,2013-11-28 08:33:00,
2013-11-28 01:34:00,22.8,20.0,31.16,North,355,0.0,0.0,89,0.00,,,0.00,0.00,VWS V14.00,2013-11-28 08:34:00,
2013-11-28 01:35:00,22.7,19.7,31.16,North,355,0.0,0.0,88,0.00,,,0.00,0.00,VWS V14.00,2013-11-28 08:35:00,
2013-11-28 01:36:00,22.7,19.7,31.16,North,355,0.0,0.0,88,0.00,,,0.00,0.00,VWS V14.00,2013-11-28 08:36:00,
2013-11-28 01:37:00,22.6,19.6,31.16,North,355,0.0,0.0,88,0.00,,,0.00,0.00,VWS V14.00,2013-11-28 08:37:00,
2013-11-28 01:38:00,22.6,19.6,31.16,North,355,0.0,0.0,88,0.00,,,0.00,0.00,VWS V14.00,2013-11-28 08:38:00,
2013-11-28 01:39:00,22.6,19.6,31.16,North,355,0.0,0.0,88,0.00,,,0.00,0.00,VWS V14.00,2013-11-28 08:39:00,
2013-11-28 01:40:00,22.6,19.6,31.16,North,355,0.0,0.0,88,0.00,,,0.00,0.00,VWS V14.00,2013-11-28 08:40:00,
2013-11-28 01:41:00,22.5,19.5,31.16,North,355,0.0,0.0,88,0.00,,,0.00,0.00,VWS V14.00,2013-11-28 08:41:00,
2013-11-28 01:42:00,22.6,19.6,31.16,North,355,0.0,0.0,88,0.00,,,0.00,0.00,VWS V14.00,2013-11-28 08:42:00,
2013-11-28 01:43:00,22.6,19.9,31.16,North,355,0.0,0.0,89,0.00,,,0.00,0.00,VWS V14.00,2013-11-28 08:43:00,
2013-11-28 01:44:00,22.6,19.9,31.16,North,355,0.0,0.0,89,0.00,,,0.00,0.00,VWS V14.00,2013-11-28 08:44:00,
2013-11-28 01:45:00,22.6,19.9,31.16,North,355,0.0,0.0,89,0.00,,,0.00,0.00,VWS V14.00,2013-11-28 08:45:00,
2013-11-28 01:46:00,22.6,19.6,31.16,North,355,0.0,0.0,88,0.00,,,0.00,0.00,VWS V14.00,2013-11-28 08:46:00,
2013-11-28 01:47:00,22.6,19.9,31.16,North,355,0.0,0.0,89,0.00,,,0.00,0.00,VWS V14.00,2013-11-28 08:47:00,
2013-11-28 01:48:00,22.6,19.9,31.16,North,355,0.0,0.0,89,0.00,,,0.00,0.00,VWS V14.00,2013-11-28 08:48:00,
2013-11-28 01:49:00,22.6,19.9,31.16,North,355,0.0,0.0,89,0.00,,,0.00,0.00,VWS V14.00,2013-11-28 08:49:00,
2013-11-28 01:50:00,22.6,19.9,31.16,North,355,0.0,0.0,89,0.00,,,0.00,0.00,VWS V14.00,2013-11-28 08:50:00,
2013-11-28 01:51:00,22.6,19.9,31.17,North,355,0.0,0.0,89,0.00,,,0.00,0.00,VWS V14.00,2013-11-28 08:51:00,
2013-11-28 01:52:00,22.6,19.9,31.16,North,355,0.0,0.0,89,0.00,,,0.00,0.00,VWS V14.00,2013-11-28 08:52:00,
2013-11-28 01:53:00,22.6,19.6,31.17,North,355,0.0,0.0,88,0.00,,,0.00,0.00,VWS V14.00,2013-11-28 08:53:00,
2013-11-28 01:54:00,22.6,19.6,31.16,North,355,0.0,0.0,88,0.00,,,0.00,0.00,VWS V14.00,2013-11-28 08:54:00,
2013-11-28 01:55:00,22.5,19.5,31.16,North,355,0.0,0.0,88,0.00,,,0.00,0.00,VWS V14.00,2013-11-28 08:55:00,
2013-11-28 01:56:00,22.5,19.5,31.16,North,355,0.0,0.0,88,0.00,,,0.00,0.00,VWS V14.00,2013-11-28 08:56:00,
2013-11-28 01:57:00,22.6,19.9,31.17,North,355,0.0,0.0,89,0.00,,,0.00,0.00,VWS V14.00,2013-11-28 08:57:00,
2013-11-28 01:58:00,22.6,19.9,31.17,North,355,0.0,0.0,89,0.00,,,0.00,0.00,VWS V14.00,2013-11-28 08:58:00,
2013-11-28 01:59:00,22.6,19.9,31.17,North,355,0.0,0.0,89,0.00,,,0.00,0.00,VWS V14.00,2013-11-28 08:59:00,
2013-11-28 02:00:00,22.6,19.9,31.16,North,355,0.0,0.0,89,0.00,,,0.00,0.00,VWS V14.00,2013-11-28 09:00:00,
2013-11-28 02:01:00,22.6,19.9,31.15,North,355,0.0,0.0,89,0.00,,,0.00,0.00,VWS V14.00,2013-11-28 09:01:00,
2013-11-28 02:02:00,22.6,19.9,31.15,North,355,0.0,0.0,89,0.00,,,0.00,0.00,VWS V14.00,2013-11-28 09:02:00,
2013-11-28 02:03:00,22.6,19.9,31.16,North,355,0.0,0.0,89,0.00,,,0.00,0.00,VWS V14.00,2013-11-28 09:03:00,
2013-11-28 02:04:00,22.6,19.9,31.15,North,355,0.0,0.0,89,0.00,,,0.00,0.00,VWS V14.00,2013-11-28 09:04:00,
2013-11-28 02:05:00,22.6,19.9,31.15,North,355,0.0,0.0,89,0.00,,,0.00,0.00,VWS V14.00,2013-11-28 09:05:00,
2013-11-28 02:06:00,22.6,19.9,31.16,North,355,0.0,0.0,89,0.00,,,0.00,0.00,VWS V14.00,2013-11-28 09:06:00,
2013-11-28 02:07:00,22.6,19.9,31.15,North,355,0.0,0.0,89,0.00,,,0.00,0.00,VWS V14.00,2013-11-28 09:07:00,
2013-11-28 02:08:00,22.6,19.9,31.15,North,355,0.0,0.0,89,0.00,,,0.00,0.00,VWS V14.00,2013-11-28 09:08:00,
2013-11-28 02:09:00,22.6,19.9,31.16,North,355,0.0,0.0,89,0.00,,,0.00,0.00,VWS V14.00,2013-11-28 09:09:00,
2013-11-28 02:10:00,22.6,19.9,31.16,North,355,0.0,0.0,89,0.00,,,0.00,0.00,VWS V14.00,2013-11-28 09:10:00,
2013-11-28 02:11:00,22.6,19.9,31.15,North,355,0.0,0.0,89,0.00,,,0.00,0.00,VWS V14.00,2013-11-28 09:11:00,
2013-11-28 02:12:00,22.6,19.9,31.15,North,355,0.0,0.0,89,0.00,,,0.00,0.00,VWS V14.00,2013-11-28 09:12:00,
2013-11-28 02:13:00,22.6,19.9,31.15,North,355,0.0,0.0,89,0.00,,,0.00,0.00,VWS V14.00,2013-11-28 09:13:00,
2013-11-28 02:14:00,22.6,19.9,31.15,North,355,0.0,0.0,89,0.00,,,0.00,0.00,VWS V14.00,2013-11-28 09:14:00,
2013-11-28 02:15:00,22.6,19.9,31.15,North,355,0.0,0.0,89,0.00,,,0.00,0.00,VWS V14.00,2013-11-28 09:15:00,
2013-11-28 02:16:00,22.7,20.0,31.16,North,355,0.0,0.0,89,0.00,,,0.00,0.00,VWS V14.00,2013-11-28 09:16:00,
2013-11-28 02:17:00,22.6,19.9,31.16,North,355,0.0,0.0,89,0.00,,,0.00,0.00,VWS V14.00,2013-11-28 09:17:00,
2013-11-28 02:18:00,22.6,19.9,31.16,North,355,0.0,0.0,89,0.00,,,0.00,0.00,VWS V14.00,2013-11-28 09:18:00,
2013-11-28 02:19:00,22.6,19.9,31.16,North,355,0.0,0.0,89,0.00,,,0.00,0.00,VWS V14.00,2013-11-28 09:19:00,
2013-11-28 02:20:00,22.6,19.9,31.16,North,355,0.0,0.0,89,0.00,,,0.00,0.00,VWS V14.00,2013-11-28 09:20:00,
2013-11-28 02:21:00,22.6,19.9,31.16,North,355,0.0,0.0,89,0.00,,,0.00,0.00,VWS V14.00,2013-11-28 09:21:00,
2013-11-28 02:22:00,22.6,19.9,31.16,North,355,0.0,0.0,89,0.00,,,0.00,0.00,VWS V14.00,2013-11-28 09:22:00,
2013-11-28 02:23:00,22.6,19.9,31.16,North,355,0.0,0.0,89,0.00,,,0.00,0.00,VWS V14.00,2013-11-28 09:23:00,
2013-11-28 02:24:00,22.6,19.9,31.16,North,355,0.0,0.0,89,0.00,,,0.00,0.00,VWS V14.00,2013-11-28 09:24:00,
2013-11-28 02:25:00,22.5,19.8,31.16,North,355,0.0,0.0,89,0.00,,,0.00,0.00,VWS V14.00,2013-11-28 09:25:00,
2013-11-28 02:26:00,22.5,19.8,31.16,North,355,0.0,0.0,89,0.00,,,0.00,0.00,VWS V14.00,2013-11-28 09:26:00,
2013-11-28 02:27:00,22.5,19.8,31.16,North,355,0.0,0.0,89,0.00,,,0.00,0.00,VWS V14.00,2013-11-28 09:27:00,
2013-11-28 02:28:00,22.5,19.8,31.16,North,355,0.0,0.0,89,0.00,,,0.00,0.00,VWS V14.00,2013-11-28 09:28:00,
2013-11-28 02:29:00,22.5,19.8,31.15,North,355,0.0,0.0,89,0.00,,,0.00,0.00,VWS V14.00,2013-11-28 09:29:00,
2013-11-28 02:30:00,22.4,19.7,31.16,North,355,0.0,0.0,89,0.00,,,0.00,0.00,VWS V14.00,2013-11-28 09:30:00,
2013-11-28 02:31:00,22.4,19.7,31.17,North,355,0.0,0.0,89,0.00,,,0.00,0.00,VWS V14.00,2013-11-28 09:31:00,
2013-11-28 02:32:00,22.3,19.6,31.17,North,355,0.0,0.0,89,0.00,,,0.00,0.00,VWS V14.00,2013-11-28 09:32:00,
2013-11-28 02:33:00,22.2,19.5,31.17,North,355,0.0,0.0,89,0.00,,,0.00,0.00,VWS V14.00,2013-11-28 09:33:00,
2013-11-28 02:34:00,22.2,19.5,31.17,North,355,0.0,0.0,89,0.00,,,0.00,0.00,VWS V14.00,2013-11-28 09:34:00,
2013-11-28 02:35:00,22.2,19.5,31.17,North,355,0.0,0.0,89,0.00,,,0.00,0.00,VWS V14.00,2013-11-28 09:35:00,
2013-11-28 02:36:00,22.2,19.5,31.17,North,355,0.0,0.0,89,0.00,,,0.00,0.00,VWS V14.00,2013-11-28 09:36:00,
2013-11-28 02:37:00,22.1,19.4,31.17,North,355,0.0,0.0,89,0.00,,,0.00,0.00,VWS V14.00,2013-11-28 09:37:00,
2013-11-28 02:38:00,22.1,19.4,31.17,North,355,0.0,0.0,89,0.00,,,0.00,0.00,VWS V14.00,2013-11-28 09:38:00,
2013-11-28 02:39:00,22.1,19.4,31.17,North,355,0.0,0.0,89,0.00,,,0.00,0.00,VWS V14.00,2013-11-28 09:39:00,
2013-11-28 02:40:00,22.0,19.3,31.17,North,355,0.0,0.0,89,0.00,,,0.00,0.00,VWS V14.00,2013-11-28 09:40:00,
2013-11-28 02:41:00,22.0,19.3,31.17,North,355,0.0,0.0,89,0.00,,,0.00,0.00,VWS V14.00,2013-11-28 09:41:00,
2013-11-28 02:42:00,22.0,19.3,31.17,North,355,0.0,0.0,89,0.00,,,0.00,0.00,VWS V14.00,2013-11-28 09:42:00,
2013-11-28 02:43:00,22.0,19.3,31.17,North,355,0.0,0.0,89,0.00,,,0.00,0.00,VWS V14.00,2013-11-28 09:43:00,
2013-11-28 02:44:00,21.9,19.2,31.17,North,355,0.0,0.0,89,0.00,,,0.00,0.00,VWS V14.00,2013-11-28 09:44:00,
2013-11-28 02:45:00,22.0,19.3,31.16,North,355,0.0,0.0,89,0.00,,,0.00,0.00,VWS V14.00,2013-11-28 09:45:00,
2013-11-28 02:46:00,21.9,19.2,31.17,North,355,0.0,0.0,89,0.00,,,0.00,0.00,VWS V14.00,2013-11-28 09:46:00,
2013-11-28 02:47:00,21.9,19.2,31.17,North,355,0.0,0.0,89,0.00,,,0.00,0.00,VWS V14.00,2013-11-28 09:47:00,
2013-11-28 02:48:00,21.9,19.2,31.17,North,355,0.0,0.0,89,0.00,,,0.00,0.00,VWS V14.00,2013-11-28 09:48:00,
2013-11-28 02:49:00,21.9,19.2,31.17,North,355,0.0,0.0,89,0.00,,,0.00,0.00,VWS V14.00,2013-11-28 09:49:00,
2013-11-28 02:50:00,21.9,19.2,31.16,North,355,0.0,0.0,89,0.00,,,0.00,0.00,VWS V14.00,2013-11-28 09:50:00,
2013-11-28 02:51:00,21.9,19.2,31.16,North,355,0.0,0.0,89,0.00,,,0.00,0.00,VWS V14.00,2013-11-28 09:51:00,
2013-11-28 02:52:00,21.9,19.2,31.16,North,355,0.0,0.0,89,0.00,,,0.00,0.00,VWS V14.00,2013-11-28 09:52:00,
2013-11-28 02:53:00,21.9,19.2,31.16,North,355,0.0,0.0,89,0.00,,,0.00,0.00,VWS V14.00,2013-11-28 09:53:00,
2013-11-28 02:54:00,21.9,19.2,31.16,North,355,0.0,0.0,89,0.00,,,0.00,0.00,VWS V14.00,2013-11-28 09:54:00,
2013-11-28 02:55:00,21.9,19.2,31.17,North,355,0.0,0.0,89,0.00,,,0.00,0.00,VWS V14.00,2013-11-28 09:55:00,
2013-11-28 02:56:00,21.9,19.2,31.16,North,355,0.0,0.0,89,0.00,,,0.00,0.00,VWS V14.00,2013-11-28 09:56:00,
2013-11-28 02:57:00,21.9,19.2,31.17,North,355,0.0,0.0,89,0.00,,,0.00,0.00,VWS V14.00,2013-11-28 09:57:00,
2013-11-28 02:58:00,21.9,19.2,31.16,North,355,0.0,0.0,89,0.00,,,0.00,0.00,VWS V14.00,2013-11-28 09:58:00,
2013-11-28 02:59:00,21.9,19.2,31.16,North,355,0.0,0.0,89,0.00,,,0.00,0.00,VWS V14.00,2013-11-28 09:59:00,
2013-11-28 03:00:00,21.9,19.2,31.16,North,355,0.0,0.0,89,0.00,,,0.00,0.00,VWS V14.00,2013-11-28 10:00:00,
2013-11-28 03:01:00,21.9,19.2,31.16,North,355,0.0,0.0,89,0.00,,,0.00,0.00,VWS V14.00,2013-11-28 10:01:00,
2013-11-28 03:02:00,22.0,19.3,31.16,North,355,0.0,0.0,89,0.00,,,0.00,0.00,VWS V14.00,2013-11-28 10:02:00,
2013-11-28 03:03:00,21.9,19.2,31.16,North,355,0.0,0.0,89,0.00,,,0.00,0.00,VWS V14.00,2013-11-28 10:03:00,
2013-11-28 03:04:00,22.0,19.3,31.16,North,355,0.0,0.0,89,0.00,,,0.00,0.00,VWS V14.00,2013-11-28 10:04:00,
2013-11-28 03:05:00,22.0,19.3,31.16,North,355,0.0,0.0,89,0.00,,,0.00,0.00,VWS V14.00,2013-11-28 10:05:00,
2013-11-28 03:06:00,22.0,19.5,31.16,North,355,0.0,0.0,90,0.00,,,0.00,0.00,VWS V14.00,2013-11-28 10:06:00,
2013-11-28 03:07:00,22.0,19.5,31.16,North,355,0.0,0.0,90,0.00,,,0.00,0.00,VWS V14.00,2013-11-28 10:07:00,
2013-11-28 03:08:00,22.0,19.5,31.16,North,355,0.0,0.0,90,0.00,,,0.00,0.00,VWS V14.00,2013-11-28 10:08:00,
2013-11-28 03:09:00,22.0,19.5,31.16,North,355,0.0,0.0,90,0.00,,,0.00,0.00,VWS V14.00,2013-11-28 10:09:00,
2013-11-28 03:10:00,22.0,19.5,31.16,North,355,0.0,0.0,90,0.00,,,0.00,0.00,VWS V14.00,2013-11-28 10:10:00,
2013-11-28 03:11:00,22.0,19.5,31.16,North,355,0.0,0.0,90,0.00,,,0.00,0.00,VWS V14.00,2013-11-28 10:11:00,
2013-11-28 03:12:00,22.0,19.5,31.16,North,355,0.0,0.0,90,0.00,,,0.00,0.00,VWS V14.00,2013-11-28 10:12:00,
2013-11-28 03:13:00,22.0,19.5,31.16,North,355,0.0,0.0,90,0.00,,,0.00,0.00,VWS V14.00,2013-11-28 10:13:00,
2013-11-28 03:14:00,22.0,19.5,31.16,North,355,0.0,0.0,90,0.00,,,0.00,0.00,VWS V14.00,2013-11-28 10:14:00,
2013-11-28 03:15:00,22.0,19.5,31.16,North,355,0.0,0.0,90,0.00,,,0.00,0.00,VWS V14.00,2013-11-28 10:15:00,
2013-11-28 03:16:00,22.0,19.5,31.16,North,355,0.0,0.0,90,0.00,,,0.00,0.00,VWS V14.00,2013-11-28 10:16:00,
2013-11-28 03:17:00,21.9,19.4,31.16,North,355,0.0,0.0,90,0.00,,,0.00,0.00,VWS V14.00,2013-11-28 10:17:00,
2013-11-28 03:18:00,21.9,19.4,31.16,North,355,0.0,0.0,90,0.00,,,0.00,0.00,VWS V14.00,2013-11-28 10:18:00,
2013-11-28 03:19:00,21.9,19.4,31.16,North,355,0.0,0.0,90,0.00,,,0.00,0.00,VWS V14.00,2013-11-28 10:19:00,
2013-11-28 03:20:00,21.9,19.4,31.16,North,355,0.0,0.0,90,0.00,,,0.00,0.00,VWS V14.00,2013-11-28 10:20:00,
2013-11-28 03:21:00,22.0,19.5,31.16,North,355,0.0,0.0,90,0.00,,,0.00,0.00,VWS V14.00,2013-11-28 10:21:00,
2013-11-28 03:22:00,22.0,19.5,31.16,North,355,0.0,0.0,90,0.00,,,0.00,0.00,VWS V14.00,2013-11-28 10:22:00,
2013-11-28 03:23:00,22.0,19.5,31.16,North,355,0.0,0.0,90,0.00,,,0.00,0.00,VWS V14.00,2013-11-28 10:23:00,
2013-11-28 03:24:00,22.0,19.5,31.16,North,355,0.0,0.0,90,0.00,,,0.00,0.00,VWS V14.00,2013-11-28 10:24:00,
2013-11-28 03:25:00,22.1,19.6,31.16,North,355,0.0,0.0,90,0.00,,,0.00,0.00,VWS V14.00,2013-11-28 10:25:00,
2013-11-28 03:26:00,22.1,19.6,31.16,North,355,0.0,0.0,90,0.00,,,0.00,0.00,VWS V14.00,2013-11-28 10:26:00,
2013-11-28 03:27:00,22.1,19.6,31.16,North,355,0.0,0.0,90,0.00,,,0.00,0.00,VWS V14.00,2013-11-28 10:27:00,
2013-11-28 03:28:00,22.2,19.7,31.16,North,355,0.0,0.0,90,0.00,,,0.00,0.00,VWS V14.00,2013-11-28 10:28:00,
2013-11-28 03:29:00,22.2,19.7,31.16,North,355,0.0,0.0,90,0.00,,,0.00,0.00,VWS V14.00,2013-11-28 10:29:00,
2013-11-28 03:30:00,22.2,19.7,31.16,North,355,0.0,0.0,90,0.00,,,0.00,0.00,VWS V14.00,2013-11-28 10:30:00,
2013-11-28 03:31:00,22.2,19.7,31.16,North,355,0.0,0.0,90,0.00,,,0.00,0.00,VWS V14.00,2013-11-28 10:31:00,
2013-11-28 03:32:00,22.2,19.7,31.16,North,355,0.0,0.0,90,0.00,,,0.00,0.00,VWS V14.00,2013-11-28 10:32:00,
2013-11-28 03:33:00,22.2,19.7,31.16,North,355,0.0,0.0,90,0.00,,,0.00,0.00,VWS V14.00,2013-11-28 10:33:00,
2013-11-28 03:34:00,22.2,19.7,31.16,North,355,0.0,0.0,90,0.00,,,0.00,0.00,VWS V14.00,2013-11-28 10:34:00,
2013-11-28 03:35:00,22.2,19.7,31.16,North,355,0.0,0.0,90,0.00,,,0.00,0.00,VWS V14.00,2013-11-28 10:35:00,
2013-11-28 03:36:00,22.2,19.7,31.16,North,355,0.0,0.0,90,0.00,,,0.00,0.00,VWS V14.00,2013-11-28 10:36:00,
2013-11-28 03:37:00,22.2,19.7,31.16,North,355,0.0,0.0,90,0.00,,,0.00,0.00,VWS V14.00,2013-11-28 10:37:00,
2013-11-28 03:38:00,22.2,19.7,31.16,North,355,0.0,0.0,90,0.00,,,0.00,0.00,VWS V14.00,2013-11-28 10:38:00,
2013-11-28 03:39:00,22.1,19.6,31.16,North,355,0.0,0.0,90,0.00,,,0.00,0.00,VWS V14.00,2013-11-28 10:39:00,
2013-11-28 03:40:00,22.1,19.6,31.16,North,355,0.0,0.0,90,0.00,,,0.00,0.00,VWS V14.00,2013-11-28 10:40:00,
2013-11-28 03:41:00,22.1,19.6,31.16,North,355,0.0,0.0,90,0.00,,,0.00,0.00,VWS V14.00,2013-11-28 10:41:00,
2013-11-28 03:42:00,22.0,19.5,31.16,North,355,0.0,0.0,90,0.00,,,0.00,0.00,VWS V14.00,2013-11-28 10:42:00,
2013-11-28 03:43:00,22.0,19.5,31.16,North,355,0.0,0.0,90,0.00,,,0.00,0.00,VWS V14.00,2013-11-28 10:43:00,
2013-11-28 03:44:00,22.0,19.5,31.16,North,355,0.0,0.0,90,0.00,,,0.00,0.00,VWS V14.00,2013-11-28 10:44:00,
2013-11-28 03:45:00,22.0,19.5,31.16,North,355,0.0,0.0,90,0.00,,,0.00,0.00,VWS V14.00,2013-11-28 10:45:00,
2013-11-28 03:46:00,22.0,19.5,31.16,North,355,0.0,0.0,90,0.00,,,0.00,0.00,VWS V14.00,2013-11-28 10:46:00,
2013-11-28 03:47:00,21.9,19.4,31.16,North,355,0.0,0.0,90,0.00,,,0.00,0.00,VWS V14.00,2013-11-28 10:47:00,
2013-11-28 03:48:00,21.9,19.4,31.16,North,355,0.0,0.0,90,0.00,,,0.00,0.00,VWS V14.00,2013-11-28 10:48:00,
2013-11-28 03:49:00,21.9,19.4,31.16,North,355,0.0,0.0,90,0.00,,,0.00,0.00,VWS V14.00,2013-11-28 10:49:00,
2013-11-28 03:50:00,21.9,19.4,31.16,North,355,0.0,0.0,90,0.00,,,0.00,0.00,VWS V14.00,2013-11-28 10:50:00,
2013-11-28 03:51:00,21.9,19.4,31.16,North,355,0.0,0.0,90,0.00,,,0.00,0.00,VWS V14.00,2013-11-28 10:51:00,
2013-11-28 03:52:00,21.9,19.4,31.16,North,355,0.0,0.0,90,0.00,,,0.00,0.00,VWS V14.00,2013-11-28 10:52:00,
2013-11-28 03:53:00,21.9,19.4,31.16,North,355,0.0,0.0,90,0.00,,,0.00,0.00,VWS V14.00,2013-11-28 10:53:00,
2013-11-28 03:54:00,21.8,19.3,31.16,North,355,0.0,0.0,90,0.00,,,0.00,0.00,VWS V14.00,2013-11-28 10:54:00,
2013-11-28 03:55:00,21.8,19.3,31.16,North,355,0.0,0.0,90,0.00,,,0.00,0.00,VWS V14.00,2013-11-28 10:55:00,
2013-11-28 03:56:00,21.8,19.3,31.16,North,355,0.0,0.0,90,0.00,,,0.00,0.00,VWS V14.00,2013-11-28 10:56:00,
2013-11-28 03:57:00,21.8,19.3,31.16,North,355,0.0,0.0,90,0.00,,,0.00,0.00,VWS V14.00,2013-11-28 10:57:00,
2013-11-28 03:58:00,21.8,19.3,31.16,North,355,0.0,0.0,90,0.00,,,0.00,0.00,VWS V14.00,2013-11-28 10:58:00,
2013-11-28 03:59:00,21.7,19.2,31.16,North,355,0.0,0.0,90,0.00,,,0.00,0.00,VWS V14.00,2013-11-28 10:59:00,
2013-11-28 04:00:00,21.7,19.2,31.16,North,355,0.0,0.0,90,0.00,,,0.00,0.00,VWS V14.00,2013-11-28 11:00:00,
2013-11-28 04:01:00,21.7,19.2,31.16,North,355,0.0,0.0,90,0.00,,,0.00,0.00,VWS V14.00,2013-11-28 11:01:00,
2013-11-28 04:02:00,21.7,19.2,31.18,North,355,0.0,0.0,90,0.00,,,0.00,0.00,VWS V14.00,2013-11-28 11:02:00,
2013-11-28 04:03:00,21.6,19.1,31.18,North,355,0.0,0.0,90,0.00,,,0.00,0.00,VWS V14.00,2013-11-28 11:03:00,
2013-11-28 04:04:00,21.6,19.1,31.18,North,355,0.0,0.0,90,0.00,,,0.00,0.00,VWS V14.00,2013-11-28 11:04:00,
2013-11-28 04:05:00,21.6,19.1,31.18,North,355,0.0,0.0,90,0.00,,,0.00,0.00,VWS V14.00,2013-11-28 11:05:00,
2013-11-28 04:06:00,21.6,19.1,31.18,North,355,0.0,0.0,90,0.00,,,0.00,0.00,VWS V14.00,2013-11-28 11:06:00,
2013-11-28 04:07:00,21.5,19.0,31.18,North,355,0.0,0.0,90,0.00,,,0.00,0.00,VWS V14.00,2013-11-28 11:07:00,
2013-11-28 04:08:00,21.5,19.0,31.18,North,355,0.0,0.0,90,0.00,,,0.00,0.00,VWS V14.00,2013-11-28 11:08:00,
2013-11-28 04:09:00,21.5,19.0,31.18,North,355,0.0,0.0,90,0.00,,,0.00,0.00,VWS V14.00,2013-11-28 11:09:00,
2013-11-28 04:10:00,21.5,19.0,31.18,North,355,0.0,0.0,90,0.00,,,0.00,0.00,VWS V14.00,2013-11-28 11:10:00,
2013-11-28 04:11:00,21.5,19.0,31.18,North,355,0.0,0.0,90,0.00,,,0.00,0.00,VWS V14.00,2013-11-28 11:11:00,
2013-11-28 04:12:00,21.4,18.9,31.18,North,355,0.0,0.0,90,0.00,,,0.00,0.00,VWS V14.00,2013-11-28 11:12:00,
2013-11-28 04:13:00,21.4,18.9,31.18,North,355,0.0,0.0,90,0.00,,,0.00,0.00,VWS V14.00,2013-11-28 11:13:00,
2013-11-28 04:14:00,21.4,18.9,31.18,North,355,0.0,0.0,90,0.00,,,0.00,0.00,VWS V14.00,2013-11-28 11:14:00,
2013-11-28 04:15:00,21.4,18.9,31.18,North,355,0.0,0.0,90,0.00,,,0.00,0.00,VWS V14.00,2013-11-28 11:15:00,
2013-11-28 04:16:00,21.4,18.9,31.18,North,355,0.0,0.0,90,0.00,,,0.00,0.00,VWS V14.00,2013-11-28 11:16:00,
2013-11-28 04:17:00,21.4,18.9,31.18,North,355,0.0,0.0,90,0.00,,,0.00,0.00,VWS V14.00,2013-11-28 11:17:00,
2013-11-28 04:18:00,21.4,18.9,31.18,North,355,0.0,0.0,90,0.00,,,0.00,0.00,VWS V14.00,2013-11-28 11:18:00,
2013-11-28 04:19:00,21.4,18.9,31.18,North,355,0.0,0.0,90,0.00,,,0.00,0.00,VWS V14.00,2013-11-28 11:19:00,
2013-11-28 04:20:00,21.4,18.9,31.18,North,355,0.0,0.0,90,0.00,,,0.00,0.00,VWS V14.00,2013-11-28 11:20:00,
2013-11-28 04:21:00,21.4,18.9,31.18,North,355,0.0,0.0,90,0.00,,,0.00,0.00,VWS V14.00,2013-11-28 11:21:00,
2013-11-28 04:22:00,21.4,18.9,31.18,North,355,0.0,0.0,90,0.00,,,0.00,0.00,VWS V14.00,2013-11-28 11:22:00,
2013-11-28 04:23:00,21.4,18.9,31.18,North,355,0.0,0.0,90,0.00,,,0.00,0.00,VWS V14.00,2013-11-28 11:23:00,
2013-11-28 04:24:00,21.3,18.8,31.18,North,355,0.0,0.0,90,0.00,,,0.00,0.00,VWS V14.00,2013-11-28 11:24:00,
2013-11-28 04:25:00,21.3,18.8,31.18,North,355,0.0,0.0,90,0.00,,,0.00,0.00,VWS V14.00,2013-11-28 11:25:00,
2013-11-28 04:26:00,21.2,18.7,31.18,North,355,0.0,0.0,90,0.00,,,0.00,0.00,VWS V14.00,2013-11-28 11:26:00,
2013-11-28 04:27:00,21.1,18.6,31.18,North,355,0.0,0.0,90,0.00,,,0.00,0.00,VWS V14.00,2013-11-28 11:27:00,
2013-11-28 04:28:00,20.9,18.4,31.18,North,355,0.0,0.0,90,0.00,,,0.00,0.00,VWS V14.00,2013-11-28 11:28:00,
2013-11-28 04:29:00,20.8,18.1,31.18,North,355,0.0,0.0,89,0.00,,,0.00,0.00,VWS V14.00,2013-11-28 11:29:00,
2013-11-28 04:30:00,20.7,18.0,31.18,North,355,0.0,0.0,89,0.00,,,0.00,0.00,VWS V14.00,2013-11-28 11:30:00,
2013-11-28 04:31:00,20.7,18.0,31.18,North,355,0.0,0.0,89,0.00,,,0.00,0.00,VWS V14.00,2013-11-28 11:31:00,
2013-11-28 04:32:00,20.6,17.9,31.18,North,355,0.0,0.0,89,0.00,,,0.00,0.00,VWS V14.00,2013-11-28 11:32:00,
2013-11-28 04:33:00,20.6,17.9,31.18,North,355,0.0,0.0,89,0.00,,,0.00,0.00,VWS V14.00,2013-11-28 11:33:00,
2013-11-28 04:34:00,20.5,17.8,31.18,North,355,0.0,0.0,89,0.00,,,0.00,0.00,VWS V14.00,2013-11-28 11:34:00,
2013-11-28 04:35:00,20.5,17.8,31.18,North,355,0.0,0.0,89,0.00,,,0.00,0.00,VWS V14.00,2013-11-28 11:35:00,
2013-11-28 04:36:00,20.5,17.8,31.18,North,355,0.0,0.0,89,0.00,,,0.00,0.00,VWS V14.00,2013-11-28 11:36:00,
2013-11-28 04:37:00,20.5,17.8,31.18,North,355,0.0,0.0,89,0.00,,,0.00,0.00,VWS V14.00,2013-11-28 11:37:00,
2013-11-28 04:38:00,20.5,17.8,31.18,North,355,0.0,0.0,89,0.00,,,0.00,0.00,VWS V14.00,2013-11-28 11:38:00,
2013-11-28 04:39:00,20.5,17.8,31.17,North,355,0.0,0.0,89,0.00,,,0.00,0.00,VWS V14.00,2013-11-28 11:39:00,
2013-11-28 04:40:00,20.6,17.9,31.18,North,355,0.0,0.0,89,0.00,,,0.00,0.00,VWS V14.00,2013-11-28 11:40:00,
2013-11-28 04:41:00,20.6,17.9,31.18,North,355,0.0,0.0,89,0.00,,,0.00,0.00,VWS V14.00,2013-11-28 11:41:00,
2013-11-28 04:42:00,20.6,17.9,31.18,North,355,0.0,0.0,89,0.00,,,0.00,0.00,VWS V14.00,2013-11-28 11:42:00,
2013-11-28 04:43:00,20.6,17.9,31.17,North,355,0.0,0.0,89,0.00,,,0.00,0.00,VWS V14.00,2013-11-28 11:43:00,
2013-11-28 04:44:00,20.6,18.1,31.18,North,355,0.0,0.0,90,0.00,,,0.00,0.00,VWS V14.00,2013-11-28 11:44:00,
2013-11-28 04:45:00,20.6,18.1,31.18,North,355,0.0,0.0,90,0.00,,,0.00,0.00,VWS V14.00,2013-11-28 11:45:00,
2013-11-28 04:46:00,20.6,18.1,31.18,North,355,0.0,0.0,90,0.00,,,0.00,0.00,VWS V14.00,2013-11-28 11:46:00,
2013-11-28 04:47:00,20.6,18.1,31.18,North,355,0.0,0.0,90,0.00,,,0.00,0.00,VWS V14.00,2013-11-28 11:47:00,
2013-11-28 04:48:00,20.6,18.1,31.18,North,355,0.0,0.0,90,0.00,,,0.00,0.00,VWS V14.00,2013-11-28 11:48:00,
2013-11-28 04:49:00,20.6,18.1,31.18,North,355,0.0,0.0,90,0.00,,,0.00,0.00,VWS V14.00,2013-11-28 11:49:00,
2013-11-28 04:50:00,20.6,18.1,31.18,North,355,0.0,0.0,90,0.00,,,0.00,0.00,VWS V14.00,2013-11-28 11:50:00,
2013-11-28 04:51:00,20.7,18.2,31.18,North,355,0.0,0.0,90,0.00,,,0.00,0.00,VWS V14.00,2013-11-28 11:51:00,
2013-11-28 04:52:00,20.6,18.1,31.18,North,355,0.0,0.0,90,0.00,,,0.00,0.00,VWS V14.00,2013-11-28 11:52:00,
2013-11-28 04:53:00,20.6,18.1,31.18,North,355,0.0,0.0,90,0.00,,,0.00,0.00,VWS V14.00,2013-11-28 11:53:00,
2013-11-28 04:54:00,20.6,18.1,31.18,North,355,0.0,0.0,90,0.00,,,0.00,0.00,VWS V14.00,2013-11-28 11:54:00,
2013-11-28 04:55:00,20.6,18.1,31.18,North,355,0.0,0.0,90,0.00,,,0.00,0.00,VWS V14.00,2013-11-28 11:55:00,
2013-11-28 04:56:00,20.6,18.1,31.18,North,355,0.0,0.0,90,0.00,,,0.00,0.00,VWS V14.00,2013-11-28 11:56:00,
2013-11-28 04:57:00,20.6,18.1,31.18,North,355,0.0,0.0,90,0.00,,,0.00,0.00,VWS V14.00,2013-11-28 11:57:00,
2013-11-28 04:58:00,20.6,18.1,31.18,North,355,0.0,0.0,90,0.00,,,0.00,0.00,VWS V14.00,2013-11-28 11:58:00,
2013-11-28 04:59:00,20.7,18.2,31.18,North,355,0.0,0.0,90,0.00,,,0.00,0.00,VWS V14.00,2013-11-28 11:59:00,
2013-11-28 05:00:00,20.7,18.2,31.18,North,355,0.0,0.0,90,0.00,,,0.00,0.00,VWS V14.00,2013-11-28 12:00:00,
2013-11-28 05:01:00,20.7,18.2,31.18,North,355,0.0,0.0,90,0.00,,,0.00,0.00,VWS V14.00,2013-11-28 12:01:00,
2013-11-28 05:02:00,20.7,18.2,31.21,North,355,0.0,0.0,90,0.00,,,0.00,0.00,VWS V14.00,2013-11-28 12:02:00,
2013-11-28 05:03:00,20.7,18.2,31.21,North,355,0.0,0.0,90,0.00,,,0.00,0.00,VWS V14.00,2013-11-28 12:03:00,
2013-11-28 05:04:00,20.7,18.2,31.21,North,355,0.0,0.0,90,0.00,,,0.00,0.00,VWS V14.00,2013-11-28 12:04:00,
2013-11-28 05:05:00,20.7,18.2,31.21,North,355,0.0,0.0,90,0.00,,,0.00,0.00,VWS V14.00,2013-11-28 12:05:00,
2013-11-28 05:06:00,20.6,18.1,31.21,North,355,0.0,0.0,90,0.00,,,0.00,0.00,VWS V14.00,2013-11-28 12:06:00,
2013-11-28 05:07:00,20.6,18.1,31.21,North,355,0.0,0.0,90,0.00,,,0.00,0.00,VWS V14.00,2013-11-28 12:07:00,
2013-11-28 05:08:00,20.6,18.1,31.21,North,355,2.0,2.0,90,0.00,,,0.00,0.00,VWS V14.00,2013-11-28 12:08:00,
2013-11-28 05:09:00,20.5,18.0,31.21,North,355,0.0,2.0,90,0.00,,,0.00,0.00,VWS V14.00,2013-11-28 12:09:00,
2013-11-28 05:10:00,20.5,18.0,31.21,North,355,0.0,2.0,90,0.00,,,0.00,0.00,VWS V14.00,2013-11-28 12:10:00,
2013-11-28 05:11:00,20.5,18.0,31.21,North,355,0.0,2.0,90,0.00,,,0.00,0.00,VWS V14.00,2013-11-28 12:11:00,
2013-11-28 05:12:00,20.5,18.0,31.21,North,355,0.0,2.0,90,0.00,,,0.00,0.00,VWS V14.00,2013-11-28 12:12:00,
2013-11-28 05:13:00,20.5,18.0,31.21,North,355,0.0,2.0,90,0.00,,,0.00,0.00,VWS V14.00,2013-11-28 12:13:00,
2013-11-28 05:14:00,20.5,18.0,31.22,North,355,0.0,2.0,90,0.00,,,0.00,0.00,VWS V14.00,2013-11-28 12:14:00,
2013-11-28 05:15:00,20.5,18.0,31.21,North,355,0.0,2.0,90,0.00,,,0.00,0.00,VWS V14.00,2013-11-28 12:15:00,
2013-11-28 05:16:00,20.4,17.9,31.21,North,355,0.0,0.0,90,0.00,,,0.00,0.00,VWS V14.00,2013-11-28 12:16:00,
2013-11-28 05:17:00,20.4,17.9,31.21,North,355,0.0,0.0,90,0.00,,,0.00,0.00,VWS V14.00,2013-11-28 12:17:00,
2013-11-28 05:18:00,20.4,17.9,31.21,North,355,0.0,0.0,90,0.00,,,0.00,0.00,VWS V14.00,2013-11-28 12:18:00,
2013-11-28 05:19:00,20.4,17.9,31.21,North,355,0.0,0.0,90,0.00,,,0.00,0.00,VWS V14.00,2013-11-28 12:19:00,
2013-11-28 05:20:00,20.4,17.9,31.21,North,355,0.0,0.0,90,0.00,,,0.00,0.00,VWS V14.00,2013-11-28 12:20:00,
2013-11-28 05:21:00,20.4,17.9,31.21,North,355,0.0,0.0,90,0.00,,,0.00,0.00,VWS V14.00,2013-11-28 12:21:00,
2013-11-28 05:22:00,20.4,17.9,31.21,North,355,0.0,0.0,90,0.00,,,0.00,0.00,VWS V14.00,2013-11-28 12:22:00,
2013-11-28 05:23:00,20.4,17.9,31.21,North,355,0.0,0.0,90,0.00,,,0.00,0.00,VWS V14.00,2013-11-28 12:23:00,
2013-11-28 05:24:00,20.3,17.8,31.21,North,355,0.0,0.0,90,0.00,,,0.00,0.00,VWS V14.00,2013-11-28 12:24:00,
2013-11-28 05:25:00,20.3,17.6,31.21,North,355,0.0,0.0,89,0.00,,,0.00,0.00,VWS V14.00,2013-11-28 12:25:00,
2013-11-28 05:26:00,20.3,17.6,31.22,North,355,0.0,0.0,89,0.00,,,0.00,0.00,VWS V14.00,2013-11-28 12:26:00,
2013-11-28 05:27:00,20.3,17.6,31.21,North,355,0.0,0.0,89,0.00,,,0.00,0.00,VWS V14.00,2013-11-28 12:27:00,
2013-11-28 05:28:00,20.2,17.5,31.21,North,355,0.0,0.0,89,0.00,,,0.00,0.00,VWS V14.00,2013-11-28 12:28:00,
2013-11-28 05:29:00,20.2,17.5,31.22,North,355,0.0,0.0,89,0.00,,,0.00,0.00,VWS V14.00,2013-11-28 12:29:00,
2013-11-28 05:30:00,20.2,17.5,31.22,North,355,0.0,0.0,89,0.00,,,0.00,0.00,VWS V14.00,2013-11-28 12:30:00,
2013-11-28 05:31:00,20.2,17.5,31.21,North,355,0.0,0.0,89,0.00,,,0.00,0.00,VWS V14.00,2013-11-28 12:31:00,
2013-11-28 05:32:00,20.1,17.4,31.21,North,355,0.0,0.0,89,0.00,,,0.00,0.00,VWS V14.00,2013-11-28 12:32:00,
2013-11-28 05:33:00,20.1,17.4,31.21,North,355,0.0,0.0,89,0.00,,,0.00,0.00,VWS V14.00,2013-11-28 12:33:00,
2013-11-28 05:34:00,20.2,17.5,31.21,North,355,0.0,0.0,89,0.00,,,0.00,0.00,VWS V14.00,2013-11-28 12:34:00,
2013-11-28 05:35:00,20.2,17.7,31.22,North,355,0.0,0.0,90,0.00,,,0.00,0.00,VWS V14.00,2013-11-28 12:35:00,
2013-11-28 05:36:00,20.2,17.7,31.21,North,355,0.0,0.0,90,0.00,,,0.00,0.00,VWS V14.00,2013-11-28 12:36:00,
2013-11-28 05:37:00,20.2,17.7,31.22,North,355,0.0,0.0,90,0.00,,,0.00,0.00,VWS V14.00,2013-11-28 12:37:00,
2013-11-28 05:38:00,20.2,17.7,31.21,North,355,0.0,0.0,90,0.00,,,0.00,0.00,VWS V14.00,2013-11-28 12:38:00,
2013-11-28 05:39:00,20.2,17.7,31.22,North,355,0.0,0.0,90,0.00,,,0.00,0.00,VWS V14.00,2013-11-28 12:39:00,
2013-11-28 05:40:00,20.1,17.6,31.22,North,355,0.0,0.0,90,0.00,,,0.00,0.00,VWS V14.00,2013-11-28 12:40:00,
2013-11-28 05:41:00,20.0,17.5,31.22,North,355,0.0,0.0,90,0.00,,,0.00,0.00,VWS V14.00,2013-11-28 12:41:00,
2013-11-28 05:42:00,20.0,17.3,31.22,North,355,0.0,0.0,89,0.00,,,0.00,0.00,VWS V14.00,2013-11-28 12:42:00,
2013-11-28 05:43:00,20.0,17.3,31.21,North,355,0.0,0.0,89,0.00,,,0.00,0.00,VWS V14.00,2013-11-28 12:43:00,
2013-11-28 05:44:00,20.0,17.5,31.22,North,355,0.0,0.0,90,0.00,,,0.00,0.00,VWS V14.00,2013-11-28 12:44:00,
2013-11-28 05:45:00,20.0,17.5,31.22,North,355,0.0,0.0,90,0.00,,,0.00,0.00,VWS V14.00,2013-11-28 12:45:00,
2013-11-28 05:46:00,20.0,17.5,31.22,North,355,0.0,0.0,90,0.00,,,0.00,0.00,VWS V14.00,2013-11-28 12:46:00,
2013-11-28 05:47:00,19.9,17.5,31.22,North,355,0.0,0.0,90,0.00,,,0.00,0.00,VWS V14.00,2013-11-28 12:47:00,
2013-11-28 05:48:00,19.9,17.5,31.22,North,355,0.0,0.0,90,0.00,,,0.00,0.00,VWS V14.00,2013-11-28 12:48:00,
2013-11-28 05:49:00,19.8,17.4,31.22,North,355,0.0,0.0,90,0.00,,,0.00,0.00,VWS V14.00,2013-11-28 12:49:00,
2013-11-28 05:50:00,19.9,17.5,31.22,North,355,0.0,0.0,90,0.00,,,0.00,0.00,VWS V14.00,2013-11-28 12:50:00,
2013-11-28 05:51:00,19.9,17.5,31.22,North,355,0.0,0.0,90,0.00,,,0.00,0.00,VWS V14.00,2013-11-28 12:51:00,
2013-11-28 05:52:00,19.8,17.4,31.22,North,355,0.0,0.0,90,0.00,,,0.00,0.00,VWS V14.00,2013-11-28 12:52:00,
2013-11-28 05:53:00,19.9,17.5,31.22,North,355,0.0,0.0,90,0.00,,,0.00,0.00,VWS V14.00,2013-11-28 12:53:00,
2013-11-28 05:54:00,19.8,17.4,31.22,North,355,0.0,0.0,90,0.00,,,0.00,0.00,VWS V14.00,2013-11-28 12:54:00,
2013-11-28 05:55:00,19.8,17.4,31.22,North,355,0.0,0.0,90,0.00,,,0.00,0.00,VWS V14.00,2013-11-28 12:55:00,
2013-11-28 05:56:00,19.8,17.4,31.22,North,355,0.0,0.0,90,0.00,,,0.00,0.00,VWS V14.00,2013-11-28 12:56:00,
2013-11-28 05:57:00,19.7,17.2,31.22,North,355,0.0,0.0,90,0.00,,,0.00,0.00,VWS V14.00,2013-11-28 12:57:00,
2013-11-28 05:58:00,19.7,17.2,31.22,North,355,0.0,0.0,90,0.00,,,0.00,0.00,VWS V14.00,2013-11-28 12:58:00,
2013-11-28 05:59:00,19.7,17.2,31.22,North,355,0.0,0.0,90,0.00,,,0.00,0.00,VWS V14.00,2013-11-28 12:59:00,
2013-11-28 06:00:00,19.7,17.2,31.22,North,355,0.0,0.0,90,0.00,,,0.00,0.00,VWS V14.00,2013-11-28 13:00:00,
2013-11-28 06:01:00,19.7,17.2,31.22,North,355,0.0,0.0,90,0.00,,,0.00,0.00,VWS V14.00,2013-11-28 13:01:00,
2013-11-28 06:02:00,19.7,17.2,31.22,North,355,0.0,0.0,90,0.00,,,0.00,0.00,VWS V14.00,2013-11-28 13:02:00,
2013-11-28 06:03:00,19.7,17.2,31.22,North,355,0.0,0.0,90,0.00,,,0.00,0.00,VWS V14.00,2013-11-28 13:03:00,
2013-11-28 06:04:00,19.7,17.2,31.22,North,355,0.0,0.0,90,0.00,,,0.00,0.00,VWS V14.00,2013-11-28 13:04:00,
2013-11-28 06:05:00,19.7,17.2,31.22,North,355,0.0,0.0,90,0.00,,,0.00,0.00,VWS V14.00,2013-11-28 13:05:00,
2013-11-28 06:06:00,19.7,17.2,31.22,North,355,0.0,0.0,90,0.00,,,0.00,0.00,VWS V14.00,2013-11-28 13:06:00,
2013-11-28 06:07:00,19.7,17.2,31.22,North,355,0.0,0.0,90,0.00,,,0.00,0.00,VWS V14.00,2013-11-28 13:07:00,
2013-11-28 06:08:00,19.7,17.2,31.22,North,355,0.0,0.0,90,0.00,,,0.00,0.00,VWS V14.00,2013-11-28 13:08:00,
2013-11-28 06:09:00,19.7,17.0,31.22,North,355,0.0,0.0,89,0.00,,,0.00,0.00,VWS V14.00,2013-11-28 13:09:00,
2013-11-28 06:10:00,19.7,17.0,31.22,North,355,0.0,0.0,89,0.00,,,0.00,0.00,VWS V14.00,2013-11-28 13:10:00,
2013-11-28 06:11:00,19.6,16.9,31.22,North,355,0.0,0.0,89,0.00,,,0.00,0.00,VWS V14.00,2013-11-28 13:11:00,
2013-11-28 06:12:00,19.5,16.8,31.22,North,355,0.0,0.0,89,0.00,,,0.00,0.00,VWS V14.00,2013-11-28 13:12:00,
2013-11-28 06:13:00,19.5,16.8,31.22,North,355,0.0,0.0,89,0.00,,,0.00,0.00,VWS V14.00,2013-11-28 13:13:00,
2013-11-28 06:14:00,19.5,16.8,31.22,North,355,0.0,0.0,89,0.00,,,0.00,0.00,VWS V14.00,2013-11-28 13:14:00,
2013-11-28 06:15:00,19.5,16.8,31.22,North,355,0.0,0.0,89,0.00,,,0.00,0.00,VWS V14.00,2013-11-28 13:15:00,
2013-11-28 06:16:00,19.5,16.8,31.22,North,355,0.0,0.0,89,0.00,,,0.00,0.00,VWS V14.00,2013-11-28 13:16:00,
2013-11-28 06:17:00,19.5,16.8,31.22,North,355,0.0,0.0,89,0.00,,,0.00,0.00,VWS V14.00,2013-11-28 13:17:00,
2013-11-28 06:18:00,19.5,16.8,31.22,North,355,0.0,0.0,89,0.00,,,0.00,0.00,VWS V14.00,2013-11-28 13:18:00,
2013-11-28 06:19:00,19.4,16.7,31.22,North,355,0.0,0.0,89,0.00,,,0.00,0.00,VWS V14.00,2013-11-28 13:19:00,
2013-11-28 06:20:00,19.5,16.8,31.23,North,355,0.0,0.0,89,0.00,,,0.00,0.00,VWS V14.00,2013-11-28 13:20:00,
2013-11-28 06:21:00,19.4,16.7,31.22,North,355,0.0,0.0,89,0.00,,,0.00,0.00,VWS V14.00,2013-11-28 13:21:00,
2013-11-28 06:22:00,19.4,16.7,31.23,North,355,0.0,0.0,89,0.00,,,0.00,0.00,VWS V14.00,2013-11-28 13:22:00,
2013-11-28 06:23:00,19.4,18.9,31.23,North,355,0.0,0.0,98,0.00,,,0.00,0.00,VWS V14.00,2013-11-28 13:23:00,
2013-11-28 06:24:00,19.4,18.9,31.23,North,355,0.0,0.0,98,0.00,,,0.00,0.00,VWS V14.00,2013-11-28 13:24:00,
2013-11-28 06:25:00,19.4,16.7,31.23,North,355,0.0,0.0,89,0.00,,,0.00,0.00,VWS V14.00,2013-11-28 13:25:00,
2013-11-28 06:26:00,19.4,16.7,31.23,North,355,0.0,0.0,89,0.00,,,0.00,0.00,VWS V14.00,2013-11-28 13:26:00,
2013-11-28 06:27:00,19.3,16.6,31.23,North,355,0.0,0.0,89,0.00,,,0.00,0.00,VWS V14.00,2013-11-28 13:27:00,
2013-11-28 06:28:00,19.4,16.7,31.23,North,355,0.0,0.0,89,0.00,,,0.00,0.00,VWS V14.00,2013-11-28 13:28:00,
2013-11-28 06:29:00,19.3,16.6,31.23,North,355,0.0,0.0,89,0.00,,,0.00,0.00,VWS V14.00,2013-11-28 13:29:00,
2013-11-28 06:30:00,19.3,16.6,31.23,North,355,0.0,0.0,89,0.00,,,0.00,0.00,VWS V14.00,2013-11-28 13:30:00,
2013-11-28 06:31:00,19.3,16.6,31.23,North,355,0.0,0.0,89,0.00,,,0.00,0.00,VWS V14.00,2013-11-28 13:31:00,
2013-11-28 06:32:00,19.3,16.6,31.23,North,355,0.0,0.0,89,0.00,,,0.00,0.00,VWS V14.00,2013-11-28 13:32:00,
2013-11-28 06:33:00,19.3,16.6,31.23,North,355,0.0,0.0,89,0.00,,,0.00,0.00,VWS V14.00,2013-11-28 13:33:00,
2013-11-28 06:34:00,19.3,16.6,31.23,North,355,0.0,0.0,89,0.00,,,0.00,0.00,VWS V14.00,2013-11-28 13:34:00,
2013-11-28 06:35:00,19.3,16.6,31.23,North,355,0.0,0.0,89,0.00,,,0.00,0.00,VWS V14.00,2013-11-28 13:35:00,
2013-11-28 06:36:00,19.3,16.6,31.23,North,355,0.0,0.0,89,0.00,,,0.00,0.00,VWS V14.00,2013-11-28 13:36:00,
2013-11-28 06:37:00,19.3,16.6,31.23,North,355,0.0,0.0,89,0.00,,,0.00,0.00,VWS V14.00,2013-11-28 13:37:00,
2013-11-28 06:38:00,19.3,16.6,31.23,North,355,0.0,0.0,89,0.00,,,0.00,0.00,VWS V14.00,2013-11-28 13:38:00,
2013-11-28 06:39:00,19.3,16.9,31.23,North,355,0.0,0.0,90,0.00,,,0.00,0.00,VWS V14.00,2013-11-28 13:39:00,
2013-11-28 06:40:00,19.3,16.9,31.23,North,355,0.0,0.0,90,0.00,,,0.00,0.00,VWS V14.00,2013-11-28 13:40:00,
2013-11-28 06:41:00,19.3,16.9,31.23,North,355,0.0,0.0,90,0.00,,,0.00,0.00,VWS V14.00,2013-11-28 13:41:00,
2013-11-28 06:42:00,19.4,17.0,31.23,North,355,0.0,0.0,90,0.00,,,0.00,0.00,VWS V14.00,2013-11-28 13:42:00,
2013-11-28 06:43:00,19.4,17.0,31.23,North,355,0.0,0.0,90,0.00,,,0.00,0.00,VWS V14.00,2013-11-28 13:43:00,
2013-11-28 06:44:00,19.4,17.0,31.23,North,355,0.0,0.0,90,0.00,,,0.00,0.00,VWS V14.00,2013-11-28 13:44:00,
2013-11-28 06:45:00,19.4,17.0,31.23,North,355,0.0,0.0,90,0.00,,,0.00,0.00,VWS V14.00,2013-11-28 13:45:00,
2013-11-28 06:46:00,19.4,17.0,31.23,North,355,0.0,0.0,90,0.00,,,0.00,0.00,VWS V14.00,2013-11-28 13:46:00,
2013-11-28 06:47:00,19.4,17.0,31.23,North,355,0.0,0.0,90,0.00,,,0.00,0.00,VWS V14.00,2013-11-28 13:47:00,
2013-11-28 06:48:00,19.5,17.0,31.23,North,355,0.0,0.0,90,0.00,,,0.00,0.00,VWS V14.00,2013-11-28 13:48:00,
2013-11-28 06:49:00,19.5,17.0,31.22,North,355,0.0,0.0,90,0.00,,,0.00,0.00,VWS V14.00,2013-11-28 13:49:00,
2013-11-28 06:50:00,19.5,17.0,31.22,North,355,0.0,0.0,90,0.00,,,0.00,0.00,VWS V14.00,2013-11-28 13:50:00,
2013-11-28 06:51:00,19.5,17.0,31.22,North,355,0.0,0.0,90,0.00,,,0.00,0.00,VWS V14.00,2013-11-28 13:51:00,
2013-11-28 06:52:00,19.5,17.0,31.22,North,355,0.0,0.0,90,0.00,,,0.00,0.00,VWS V14.00,2013-11-28 13:52:00,
2013-11-28 06:53:00,19.5,17.0,31.22,North,355,0.0,0.0,90,0.00,,,0.00,0.00,VWS V14.00,2013-11-28 13:53:00,
2013-11-28 06:54:00,19.6,17.1,31.22,North,355,0.0,0.0,90,0.00,,,0.00,0.00,VWS V14.00,2013-11-28 13:54:00,
2013-11-28 06:55:00,19.6,17.1,31.22,North,355,0.0,0.0,90,0.00,,,0.00,0.00,VWS V14.00,2013-11-28 13:55:00,
2013-11-28 06:56:00,19.6,17.1,31.22,North,355,0.0,0.0,90,0.00,,,0.00,0.00,VWS V14.00,2013-11-28 13:56:00,
2013-11-28 06:57:00,19.7,17.2,31.22,North,355,0.0,0.0,90,0.00,,,0.00,0.00,VWS V14.00,2013-11-28 13:57:00,
2013-11-28 06:58:00,19.7,17.2,31.22,North,355,0.0,0.0,90,0.00,,,0.00,0.00,VWS V14.00,2013-11-28 13:58:00,
2013-11-28 06:59:00,19.7,17.2,31.22,North,355,0.0,0.0,90,0.00,,,0.00,0.00,VWS V14.00,2013-11-28 13:59:00,
2013-11-28 07:00:00,19.7,17.2,31.22,North,355,0.0,0.0,90,0.00,,,0.00,0.00,VWS V14.00,2013-11-28 14:00:00,
2013-11-28 07:01:00,19.7,17.2,31.22,North,355,0.0,0.0,90,0.00,,,0.00,0.00,VWS V14.00,2013-11-28 14:01:00,
2013-11-28 07:02:00,19.7,17.2,31.24,North,355,0.0,0.0,90,0.00,,,0.00,0.00,VWS V14.00,2013-11-28 14:02:00,
2013-11-28 07:03:00,19.7,17.2,31.24,North,355,0.0,0.0,90,0.00,,,0.00,0.00,VWS V14.00,2013-11-28 14:03:00,
2013-11-28 07:04:00,19.7,17.2,31.24,North,355,0.0,0.0,90,0.00,,,0.00,0.00,VWS V14.00,2013-11-28 14:04:00,
2013-11-28 07:05:00,19.7,17.2,31.24,North,355,0.0,0.0,90,0.00,,,0.00,0.00,VWS V14.00,2013-11-28 14:05:00,
2013-11-28 07:06:00,19.7,17.2,31.24,North,355,0.0,0.0,90,0.00,,,0.00,0.00,VWS V14.00,2013-11-28 14:06:00,
2013-11-28 07:07:00,19.7,17.2,31.24,North,355,0.0,0.0,90,0.00,,,0.00,0.00,VWS V14.00,2013-11-28 14:07:00,
2013-11-28 07:08:00,19.7,17.2,31.24,North,355,0.0,0.0,90,0.00,,,0.00,0.00,VWS V14.00,2013-11-28 14:08:00,
2013-11-28 07:09:00,19.7,17.2,31.24,North,355,0.0,0.0,90,0.00,,,0.00,0.00,VWS V14.00,2013-11-28 14:09:00,
2013-11-28 07:10:00,19.7,17.2,31.24,North,355,0.0,0.0,90,0.00,,,0.00,0.00,VWS V14.00,2013-11-28 14:10:00,
2013-11-28 07:11:00,19.7,17.2,31.24,North,355,0.0,0.0,90,0.00,,,0.00,0.00,VWS V14.00,2013-11-28 14:11:00,
2013-11-28 07:12:00,19.7,17.2,31.24,North,355,0.0,0.0,90,0.00,,,0.00,0.00,VWS V14.00,2013-11-28 14:12:00,
2013-11-28 07:13:00,19.7,17.2,31.24,North,355,0.0,0.0,90,0.00,,,0.00,0.00,VWS V14.00,2013-11-28 14:13:00,
2013-11-28 07:14:00,19.7,17.2,31.24,North,355,0.0,0.0,90,0.00,,,0.00,0.00,VWS V14.00,2013-11-28 14:14:00,
2013-11-28 07:15:00,19.7,17.2,31.24,North,355,0.0,0.0,90,0.00,,,0.00,0.00,VWS V14.00,2013-11-28 14:15:00,
2013-11-28 07:16:00,19.7,17.2,31.24,North,355,0.0,0.0,90,0.00,,,0.00,0.00,VWS V14.00,2013-11-28 14:16:00,
2013-11-28 07:17:00,19.7,17.2,31.24,North,355,0.0,0.0,90,0.00,,,0.00,0.00,VWS V14.00,2013-11-28 14:17:00,
2013-11-28 07:18:00,19.7,17.2,31.24,North,355,0.0,0.0,90,0.00,,,0.00,0.00,VWS V14.00,2013-11-28 14:18:00,
2013-11-28 07:19:00,19.7,17.2,31.24,North,355,0.0,0.0,90,0.00,,,0.00,0.00,VWS V14.00,2013-11-28 14:19:00,
2013-11-28 07:20:00,19.6,17.1,31.24,North,355,0.0,0.0,90,0.00,,,0.00,0.00,VWS V14.00,2013-11-28 14:20:00,
2013-11-28 07:21:00,19.5,17.0,31.24,North,355,0.0,0.0,90,0.00,,,0.00,0.00,VWS V14.00,2013-11-28 14:21:00,
2013-11-28 07:22:00,19.5,17.0,31.24,North,355,0.0,0.0,90,0.00,,,0.00,0.00,VWS V14.00,2013-11-28 14:22:00,
2013-11-28 07:23:00,19.5,17.0,31.24,North,355,0.0,0.0,90,0.00,,,0.00,0.00,VWS V14.00,2013-11-28 14:23:00,
2013-11-28 07:24:00,19.4,17.0,31.24,North,355,0.0,0.0,90,0.00,,,0.00,0.00,VWS V14.00,2013-11-28 14:24:00,
2013-11-28 07:25:00,19.3,16.9,31.24,North,355,0.0,0.0,90,0.00,,,0.00,0.00,VWS V14.00,2013-11-28 14:25:00,
2013-11-28 07:26:00,19.3,16.9,31.24,North,355,0.0,0.0,90,0.00,,,0.00,0.00,VWS V14.00,2013-11-28 14:26:00,
2013-11-28 07:27:00,19.3,16.9,31.24,North,355,0.0,0.0,90,0.00,,,0.00,0.00,VWS V14.00,2013-11-28 14:27:00,
2013-11-28 07:28:00,19.2,16.8,31.24,North,355,0.0,0.0,90,0.00,,,0.00,0.00,VWS V14.00,2013-11-28 14:28:00,
2013-11-28 07:29:00,19.1,16.7,31.24,North,355,0.0,0.0,90,0.00,,,0.00,0.00,VWS V14.00,2013-11-28 14:29:00,
2013-11-28 07:30:00,19.1,16.7,31.24,North,355,0.0,0.0,90,0.00,,,0.00,0.00,VWS V14.00,2013-11-28 14:30:00,
2013-11-28 07:31:00,19.0,16.6,31.24,North,355,0.0,0.0,90,0.00,,,0.00,0.00,VWS V14.00,2013-11-28 14:31:00,
2013-11-28 07:32:00,19.0,16.6,31.24,North,355,0.0,0.0,90,0.00,,,0.00,0.00,VWS V14.00,2013-11-28 14:32:00,
2013-11-28 07:33:00,18.9,16.5,31.24,North,355,0.0,0.0,90,0.00,,,0.00,0.00,VWS V14.00,2013-11-28 14:33:00,
2013-11-28 07:34:00,18.9,16.5,31.24,North,355,0.0,0.0,90,0.00,,,0.00,0.00,VWS V14.00,2013-11-28 14:34:00,
2013-11-28 07:35:00,18.9,16.5,31.24,North,355,0.0,0.0,90,0.00,,,0.00,0.00,VWS V14.00,2013-11-28 14:35:00,
2013-11-28 07:36:00,18.9,16.5,31.24,North,355,0.0,0.0,90,0.00,,,0.00,0.00,VWS V14.00,2013-11-28 14:36:00,
2013-11-28 07:37:00,18.8,16.4,31.24,North,355,0.0,0.0,90,0.00,,,0.00,0.00,VWS V14.00,2013-11-28 14:37:00,
2013-11-28 07:38:00,18.8,16.4,31.25,North,355,0.0,0.0,90,0.00,,,0.00,0.00,VWS V14.00,2013-11-28 14:38:00,
2013-11-28 07:39:00,18.8,16.4,31.24,North,355,0.0,0.0,90,0.00,,,0.00,0.00,VWS V14.00,2013-11-28 14:39:00,
2013-11-28 07:40:00,18.7,16.3,31.25,North,355,0.0,0.0,90,0.00,,,0.00,0.00,VWS V14.00,2013-11-28 14:40:00,
2013-11-28 07:41:00,18.7,16.3,31.24,North,355,0.0,0.0,90,0.00,,,0.00,0.00,VWS V14.00,2013-11-28 14:41:00,
2013-11-28 07:42:00,18.7,16.3,31.25,North,355,0.0,0.0,90,0.00,,,0.00,0.00,VWS V14.00,2013-11-28 14:42:00,
2013-11-28 07:43:00,18.6,16.2,31.25,North,355,0.0,0.0,90,0.00,,,0.00,0.00,VWS V14.00,2013-11-28 14:43:00,
2013-11-28 07:44:00,18.5,16.1,31.25,North,355,0.0,0.0,90,0.00,,,0.00,0.00,VWS V14.00,2013-11-28 14:44:00,
2013-11-28 07:45:00,18.4,15.7,31.25,North,355,0.0,0.0,89,0.00,,,0.00,0.00,VWS V14.00,2013-11-28 14:45:00,
2013-11-28 07:46:00,18.4,15.7,31.26,North,355,0.0,0.0,89,0.00,,,0.00,0.00,VWS V14.00,2013-11-28 14:46:00,
2013-11-28 07:47:00,18.3,15.6,31.26,North,355,0.0,0.0,89,0.00,,,0.00,0.00,VWS V14.00,2013-11-28 14:47:00,
2013-11-28 07:48:00,18.2,15.5,31.26,North,355,0.0,0.0,89,0.00,,,0.00,0.00,VWS V14.00,2013-11-28 14:48:00,
2013-11-28 07:49:00,18.2,15.5,31.26,North,355,0.0,0.0,89,0.00,,,0.00,0.00,VWS V14.00,2013-11-28 14:49:00,
2013-11-28 07:50:00,18.1,15.4,31.26,North,355,0.0,0.0,89,0.00,,,0.00,0.00,VWS V14.00,2013-11-28 14:50:00,
2013-11-28 07:51:00,18.1,15.4,31.26,North,355,0.0,0.0,89,0.00,,,0.00,0.00,VWS V14.00,2013-11-28 14:51:00,
2013-11-28 07:52:00,18.1,15.4,31.26,North,355,0.0,0.0,89,0.00,,,0.00,0.00,VWS V14.00,2013-11-28 14:52:00,
2013-11-28 07:53:00,18.1,15.4,31.26,North,355,0.0,0.0,89,0.00,,,0.00,5.00,VWS V14.00,2013-11-28 14:53:00,
2013-11-28 07:54:00,18.0,15.3,31.26,North,355,0.0,0.0,89,0.00,,,0.00,5.00,VWS V14.00,2013-11-28 14:54:00,
2013-11-28 07:55:00,18.0,15.3,31.26,North,355,0.0,0.0,89,0.00,,,0.00,5.00,VWS V14.00,2013-11-28 14:55:00,
2013-11-28 07:56:00,17.9,15.2,31.26,North,355,0.0,0.0,89,0.00,,,0.00,5.00,VWS V14.00,2013-11-28 14:56:00,
2013-11-28 07:57:00,17.9,15.2,31.26,North,355,0.0,0.0,89,0.00,,,0.00,7.00,VWS V14.00,2013-11-28 14:57:00,
2013-11-28 07:58:00,17.9,15.2,31.26,North,355,0.0,0.0,89,0.00,,,0.00,7.00,VWS V14.00,2013-11-28 14:58:00,
2013-11-28 07:59:00,17.8,15.1,31.26,North,355,0.0,0.0,89,0.00,,,0.00,7.00,VWS V14.00,2013-11-28 14:59:00,
2013-11-28 08:00:00,17.8,15.1,31.26,North,355,0.0,0.0,89,0.00,,,0.00,7.00,VWS V14.00,2013-11-28 15:00:00,
2013-11-28 08:01:00,17.7,15.0,31.26,North,355,0.0,0.0,89,0.00,,,0.00,9.00,VWS V14.00,2013-11-28 15:01:00,
2013-11-28 08:02:00,17.7,15.0,31.26,North,355,0.0,0.0,89,0.00,,,0.00,9.00,VWS V14.00,2013-11-28 15:02:00,
2013-11-28 08:03:00,17.6,14.9,31.26,North,355,0.0,0.0,89,0.00,,,0.00,9.00,VWS V14.00,2013-11-28 15:03:00,
2013-11-28 08:04:00,17.6,14.9,31.26,North,355,0.0,0.0,89,0.00,,,0.00,11.00,VWS V14.00,2013-11-28 15:04:00,
2013-11-28 08:05:00,17.5,14.8,31.26,North,355,0.0,0.0,89,0.00,,,0.00,11.00,VWS V14.00,2013-11-28 15:05:00,
2013-11-28 08:06:00,17.5,14.8,31.26,North,355,0.0,0.0,89,0.00,,,0.00,12.00,VWS V14.00,2013-11-28 15:06:00,
2013-11-28 08:07:00,17.5,14.8,31.26,North,355,0.0,0.0,89,0.00,,,0.00,12.00,VWS V14.00,2013-11-28 15:07:00,
2013-11-28 08:08:00,17.5,14.8,31.26,North,355,0.0,0.0,89,0.00,,,0.00,12.00,VWS V14.00,2013-11-28 15:08:00,
2013-11-28 08:09:00,17.5,14.8,31.26,North,355,0.0,0.0,89,0.00,,,0.00,12.00,VWS V14.00,2013-11-28 15:09:00,
2013-11-28 08:10:00,17.5,14.8,31.26,North,355,0.0,0.0,89,0.00,,,0.00,12.00,VWS V14.00,2013-11-28 15:10:00,
2013-11-28 08:11:00,17.5,14.8,31.26,North,355,0.0,0.0,89,0.00,,,0.00,14.00,VWS V14.00,2013-11-28 15:11:00,
2013-11-28 08:12:00,17.5,14.8,31.26,North,355,0.0,0.0,89,0.00,,,0.00,14.00,VWS V14.00,2013-11-28 15:12:00,
2013-11-28 08:13:00,17.5,14.8,31.26,North,355,0.0,0.0,89,0.00,,,0.00,14.00,VWS V14.00,2013-11-28 15:13:00,
2013-11-28 08:14:00,17.6,14.9,31.26,North,355,0.0,0.0,89,0.00,,,0.00,14.00,VWS V14.00,2013-11-28 15:14:00,
2013-11-28 08:15:00,17.6,14.9,31.26,North,355,0.0,0.0,89,0.00,,,0.00,14.00,VWS V14.00,2013-11-28 15:15:00,
2013-11-28 08:16:00,17.6,15.2,31.26,North,355,0.0,0.0,90,0.00,,,0.00,16.00,VWS V14.00,2013-11-28 15:16:00,
2013-11-28 08:17:00,17.6,15.2,31.26,North,355,0.0,0.0,90,0.00,,,0.00,16.00,VWS V14.00,2013-11-28 15:17:00,
2013-11-28 08:18:00,17.6,15.2,31.26,North,355,0.0,0.0,90,0.00,,,0.00,18.00,VWS V14.00,2013-11-28 15:18:00,
2013-11-28 08:19:00,17.7,15.3,31.26,North,355,0.0,0.0,90,0.00,,,0.00,18.00,VWS V14.00,2013-11-28 15:19:00,
2013-11-28 08:20:00,17.7,15.3,31.26,North,355,0.0,0.0,90,0.00,,,0.00,19.00,VWS V14.00,2013-11-28 15:20:00,
2013-11-28 08:21:00,17.7,15.3,31.26,North,355,0.0,0.0,90,0.00,,,0.00,19.00,VWS V14.00,2013-11-28 15:21:00,
2013-11-28 08:22:00,17.7,15.3,31.26,North,355,0.0,0.0,90,0.00,,,0.00,19.00,VWS V14.00,2013-11-28 15:22:00,
2013-11-28 08:23:00,17.7,15.3,31.26,North,355,0.0,0.0,90,0.00,,,0.00,21.00,VWS V14.00,2013-11-28 15:23:00,
2013-11-28 08:24:00,17.7,15.3,31.26,North,355,0.0,0.0,90,0.00,,,0.00,21.00,VWS V14.00,2013-11-28 15:24:00,
2013-11-28 08:25:00,17.7,15.3,31.26,North,355,0.0,0.0,90,0.00,,,0.00,23.00,VWS V14.00,2013-11-28 15:25:00,
2013-11-28 08:26:00,17.7,15.3,31.26,North,355,0.0,0.0,90,0.00,,,0.00,23.00,VWS V14.00,2013-11-28 15:26:00,
2013-11-28 08:27:00,17.8,15.4,31.26,North,355,0.0,0.0,90,0.00,,,0.00,25.00,VWS V14.00,2013-11-28 15:27:00,
2013-11-28 08:28:00,17.8,15.4,31.26,North,355,0.0,0.0,90,0.00,,,0.00,25.00,VWS V14.00,2013-11-28 15:28:00,
2013-11-28 08:29:00,17.8,15.4,31.26,North,355,0.0,0.0,90,0.00,,,0.00,26.00,VWS V14.00,2013-11-28 15:29:00,
2013-11-28 08:30:00,17.8,15.4,31.26,North,355,0.0,0.0,90,0.00,,,0.00,28.00,VWS V14.00,2013-11-28 15:30:00,
2013-11-28 08:31:00,17.9,15.5,31.27,North,355,0.0,0.0,90,0.00,,,0.00,28.00,VWS V14.00,2013-11-28 15:31:00,
2013-11-28 08:32:00,17.9,15.5,31.26,North,355,0.0,0.0,90,0.00,,,0.00,30.00,VWS V14.00,2013-11-28 15:32:00,
2013-11-28 08:33:00,17.9,15.5,31.26,North,355,0.0,0.0,90,0.00,,,0.00,32.00,VWS V14.00,2013-11-28 15:33:00,
2013-11-28 08:34:00,17.9,15.5,31.26,North,355,0.0,0.0,90,0.00,,,0.00,33.00,VWS V14.00,2013-11-28 15:34:00,
2013-11-28 08:35:00,17.9,15.5,31.26,North,355,0.0,0.0,90,0.00,,,0.00,35.00,VWS V14.00,2013-11-28 15:35:00,
2013-11-28 08:36:00,17.9,15.5,31.26,North,355,0.0,0.0,90,0.00,,,0.00,35.00,VWS V14.00,2013-11-28 15:36:00,
2013-11-28 08:37:00,17.9,15.5,31.26,North,355,0.0,0.0,90,0.00,,,0.00,37.00,VWS V14.00,2013-11-28 15:37:00,
2013-11-28 08:38:00,17.9,15.5,31.27,North,355,0.0,0.0,90,0.00,,,0.00,37.00,VWS V14.00,2013-11-28 15:38:00,
2013-11-28 08:39:00,17.9,15.5,31.26,North,355,0.0,0.0,90,0.00,,,0.00,39.00,VWS V14.00,2013-11-28 15:39:00,
2013-11-28 08:40:00,17.9,15.5,31.27,North,355,0.0,0.0,90,0.00,,,0.00,40.00,VWS V14.00,2013-11-28 15:40:00,
2013-11-28 08:41:00,17.9,15.5,31.26,North,355,0.0,0.0,90,0.00,,,0.00,42.00,VWS V14.00,2013-11-28 15:41:00,
2013-11-28 08:42:00,18.0,15.6,31.27,North,355,0.0,0.0,90,0.00,,,0.00,42.00,VWS V14.00,2013-11-28 15:42:00,
2013-11-28 08:43:00,18.0,15.6,31.27,North,355,0.0,0.0,90,0.00,,,0.00,44.00,VWS V14.00,2013-11-28 15:43:00,
2013-11-28 08:44:00,18.0,15.6,31.27,North,355,0.0,0.0,90,0.00,,,0.00,44.00,VWS V14.00,2013-11-28 15:44:00,
2013-11-28 08:45:00,18.0,15.6,31.27,North,355,0.0,0.0,90,0.00,,,0.00,44.00,VWS V14.00,2013-11-28 15:45:00,
2013-11-28 08:46:00,18.1,15.7,31.27,North,355,0.0,0.0,90,0.00,,,0.00,46.00,VWS V14.00,2013-11-28 15:46:00,
2013-11-28 08:47:00,18.1,15.7,31.27,North,355,0.0,0.0,90,0.00,,,0.00,46.00,VWS V14.00,2013-11-28 15:47:00,
2013-11-28 08:48:00,18.1,15.7,31.26,North,355,0.0,0.0,90,0.00,,,0.00,47.00,VWS V14.00,2013-11-28 15:48:00,
2013-11-28 08:49:00,18.2,15.8,31.27,North,355,0.0,0.0,90,0.00,,,0.00,51.00,VWS V14.00,2013-11-28 15:49:00,
2013-11-28 08:50:00,18.2,15.8,31.27,North,355,0.0,0.0,90,0.00,,,0.00,51.00,VWS V14.00,2013-11-28 15:50:00,
2013-11-28 08:51:00,18.2,15.8,31.27,North,355,0.0,0.0,90,0.00,,,0.00,51.00,VWS V14.00,2013-11-28 15:51:00,
2013-11-28 08:52:00,18.3,15.9,31.27,North,355,0.0,0.0,90,0.00,,,0.00,51.00,VWS V14.00,2013-11-28 15:52:00,
2013-11-28 08:53:00,18.3,15.9,31.27,North,355,0.0,0.0,90,0.00,,,0.00,53.00,VWS V14.00,2013-11-28 15:53:00,
2013-11-28 08:54:00,18.3,15.9,31.27,North,355,0.0,0.0,90,0.00,,,0.00,53.00,VWS V14.00,2013-11-28 15:54:00,
2013-11-28 08:55:00,18.3,15.9,31.27,North,355,0.0,0.0,90,0.00,,,0.00,53.00,VWS V14.00,2013-11-28 15:55:00,
2013-11-28 08:56:00,18.4,16.0,31.27,North,355,0.0,0.0,90,0.00,,,0.00,53.00,VWS V14.00,2013-11-28 15:56:00,
2013-11-28 08:57:00,18.4,16.0,31.27,North,355,0.0,0.0,90,0.00,,,0.00,53.00,VWS V14.00,2013-11-28 15:57:00,
2013-11-28 08:58:00,18.4,16.0,31.27,North,355,0.0,0.0,90,0.00,,,0.00,54.00,VWS V14.00,2013-11-28 15:58:00,
2013-11-28 08:59:00,18.4,16.0,31.27,North,355,0.0,0.0,90,0.00,,,0.00,54.00,VWS V14.00,2013-11-28 15:59:00,
2013-11-28 09:00:00,18.4,16.0,31.27,North,355,0.0,0.0,90,0.00,,,0.00,56.00,VWS V14.00,2013-11-28 16:00:00,
2013-11-28 09:01:00,18.4,16.0,31.28,North,355,0.0,0.0,90,0.00,,,0.00,56.00,VWS V14.00,2013-11-28 16:01:00,
2013-11-28 09:02:00,18.4,16.0,31.28,North,355,0.0,0.0,90,0.00,,,0.00,56.00,VWS V14.00,2013-11-28 16:02:00,
2013-11-28 09:03:00,18.4,16.0,31.28,North,355,0.0,0.0,90,0.00,,,0.00,56.00,VWS V14.00,2013-11-28 16:03:00,
2013-11-28 09:04:00,18.5,16.1,31.28,North,355,0.0,0.0,90,0.00,,,0.00,56.00,VWS V14.00,2013-11-28 16:04:00,
2013-11-28 09:05:00,18.5,16.1,31.27,North,355,0.0,0.0,90,0.00,,,0.00,58.00,VWS V14.00,2013-11-28 16:05:00,
2013-11-28 09:06:00,18.5,16.1,31.27,North,355,0.0,0.0,90,0.00,,,0.00,60.00,VWS V14.00,2013-11-28 16:06:00,
2013-11-28 09:07:00,18.5,16.1,31.27,North,355,0.0,0.0,90,0.00,,,0.00,60.00,VWS V14.00,2013-11-28 16:07:00,
2013-11-28 09:08:00,18.5,16.1,31.27,North,355,0.0,0.0,90,0.00,,,0.00,60.00,VWS V14.00,2013-11-28 16:08:00,
2013-11-28 09:09:00,18.5,16.1,31.27,North,355,0.0,0.0,90,0.00,,,0.00,62.00,VWS V14.00,2013-11-28 16:09:00,
2013-11-28 09:10:00,18.5,16.1,31.27,North,355,0.0,0.0,90,0.00,,,0.00,60.00,VWS V14.00,2013-11-28 16:10:00,
2013-11-28 09:11:00,18.6,16.2,31.27,North,355,0.0,0.0,90,0.00,,,0.00,60.00,VWS V14.00,2013-11-28 16:11:00,
2013-11-28 09:12:00,18.6,16.2,31.27,North,355,0.0,0.0,90,0.00,,,0.00,62.00,VWS V14.00,2013-11-28 16:12:00,
2013-11-28 09:13:00,18.6,16.2,31.27,North,355,0.0,0.0,90,0.00,,,0.00,63.00,VWS V14.00,2013-11-28 16:13:00,
2013-11-28 09:14:00,18.6,16.2,31.27,North,355,0.0,0.0,90,0.00,,,0.00,63.00,VWS V14.00,2013-11-28 16:14:00,
2013-11-28 09:15:00,18.6,16.2,31.27,North,355,0.0,0.0,90,0.00,,,0.00,63.00,VWS V14.00,2013-11-28 16:15:00,
2013-11-28 09:16:00,18.6,16.2,31.27,North,355,0.0,0.0,90,0.00,,,0.00,60.00,VWS V14.00,2013-11-28 16:16:00,
2013-11-28 09:17:00,18.7,16.3,31.27,North,355,0.0,0.0,90,0.00,,,0.00,58.00,VWS V14.00,2013-11-28 16:17:00,
2013-11-28 09:18:00,18.7,16.3,31.27,North,355,0.0,0.0,90,0.00,,,0.00,58.00,VWS V14.00,2013-11-28 16:18:00,
2013-11-28 09:19:00,18.7,16.3,31.27,North,355,0.0,0.0,90,0.00,,,0.00,60.00,VWS V14.00,2013-11-28 16:19:00,
2013-11-28 09:20:00,18.7,16.3,31.27,North,355,0.0,0.0,90,0.00,,,0.00,60.00,VWS V14.00,2013-11-28 16:20:00,
2013-11-28 09:21:00,18.8,16.4,31.27,North,355,0.0,0.0,90,0.00,,,0.00,62.00,VWS V14.00,2013-11-28 16:21:00,
2013-11-28 09:22:00,18.8,16.4,31.27,North,355,0.0,0.0,90,0.00,,,0.00,65.00,VWS V14.00,2013-11-28 16:22:00,
2013-11-28 09:23:00,18.8,16.4,31.27,North,355,0.0,0.0,90,0.00,,,0.00,69.00,VWS V14.00,2013-11-28 16:23:00,
2013-11-28 09:24:00,18.8,16.4,31.27,North,355,0.0,0.0,90,0.00,,,0.00,72.00,VWS V14.00,2013-11-28 16:24:00,
2013-11-28 09:25:00,18.8,16.4,31.27,North,355,0.0,0.0,90,0.00,,,0.00,74.00,VWS V14.00,2013-11-28 16:25:00,
2013-11-28 09:26:00,18.8,16.4,31.27,North,355,0.0,0.0,90,0.00,,,0.00,76.00,VWS V14.00,2013-11-28 16:26:00,
2013-11-28 09:27:00,18.8,16.4,31.27,North,355,0.0,0.0,90,0.00,,,0.00,76.00,VWS V14.00,2013-11-28 16:27:00,
2013-11-28 09:28:00,18.8,16.4,31.27,North,355,0.0,0.0,90,0.00,,,0.00,76.00,VWS V14.00,2013-11-28 16:28:00,
2013-11-28 09:29:00,18.8,16.4,31.27,North,355,0.0,0.0,90,0.00,,,0.00,77.00,VWS V14.00,2013-11-28 16:29:00,
2013-11-28 09:30:00,18.8,16.4,31.27,North,355,0.0,0.0,90,0.00,,,0.00,77.00,VWS V14.00,2013-11-28 16:30:00,
2013-11-28 09:31:00,18.8,16.4,31.27,North,355,0.0,0.0,90,0.00,,,0.00,79.00,VWS V14.00,2013-11-28 16:31:00,
2013-11-28 09:32:00,18.9,16.5,31.27,North,355,0.0,0.0,90,0.00,,,0.00,77.00,VWS V14.00,2013-11-28 16:32:00,
2013-11-28 09:33:00,18.9,16.5,31.27,North,355,0.0,0.0,90,0.00,,,0.00,79.00,VWS V14.00,2013-11-28 16:33:00,
2013-11-28 09:34:00,18.9,16.5,31.26,North,355,0.0,0.0,90,0.00,,,0.00,86.00,VWS V14.00,2013-11-28 16:34:00,
2013-11-28 09:35:00,18.9,16.5,31.27,North,355,0.0,0.0,90,0.00,,,0.00,95.00,VWS V14.00,2013-11-28 16:35:00,
2013-11-28 09:36:00,18.9,16.5,31.26,North,355,0.0,0.0,90,0.00,,,0.00,104.00,VWS V14.00,2013-11-28 16:36:00,
2013-11-28 09:37:00,18.9,16.5,31.27,North,355,0.0,0.0,90,0.00,,,0.00,111.00,VWS V14.00,2013-11-28 16:37:00,
2013-11-28 09:38:00,19.0,16.6,31.26,North,355,0.0,0.0,90,0.00,,,0.00,113.00,VWS V14.00,2013-11-28 16:38:00,
2013-11-28 09:39:00,19.0,16.6,31.27,North,355,0.0,0.0,90,0.00,,,0.00,114.00,VWS V14.00,2013-11-28 16:39:00,
2013-11-28 09:40:00,19.0,16.6,31.27,North,355,0.0,0.0,90,0.00,,,0.00,116.00,VWS V14.00,2013-11-28 16:40:00,
2013-11-28 09:41:00,19.0,16.6,31.26,North,355,0.0,0.0,90,0.00,,,0.00,109.00,VWS V14.00,2013-11-28 16:41:00,
2013-11-28 09:42:00,19.0,16.6,31.26,North,355,0.0,0.0,90,0.00,,,0.00,104.00,VWS V14.00,2013-11-28 16:42:00,
2013-11-28 09:43:00,19.1,16.7,31.27,North,355,0.0,0.0,90,0.00,,,0.00,105.00,VWS V14.00,2013-11-28 16:43:00,
2013-11-28 09:44:00,19.1,16.7,31.27,North,355,0.0,0.0,90,0.00,,,0.00,105.00,VWS V14.00,2013-11-28 16:44:00,
2013-11-28 09:45:00,19.1,16.7,31.27,North,355,0.0,0.0,90,0.00,,,0.00,102.00,VWS V14.00,2013-11-28 16:45:00,
2013-11-28 09:46:00,19.2,16.8,31.27,North,355,0.0,0.0,90,0.00,,,0.00,107.00,VWS V14.00,2013-11-28 16:46:00,
2013-11-28 09:47:00,19.2,17.0,31.27,North,355,0.0,0.0,91,0.00,,,0.00,113.00,VWS V14.00,2013-11-28 16:47:00,
2013-11-28 09:48:00,19.3,17.1,31.27,North,355,0.0,0.0,91,0.00,,,0.00,120.00,VWS V14.00,2013-11-28 16:48:00,
2013-11-28 09:49:00,19.3,17.1,31.27,North,355,0.0,0.0,91,0.00,,,0.00,118.00,VWS V14.00,2013-11-28 16:49:00,
2013-11-28 09:50:00,19.3,17.1,31.27,North,355,0.0,0.0,91,0.00,,,0.00,118.00,VWS V14.00,2013-11-28 16:50:00,
2013-11-28 09:51:00,19.4,17.2,31.27,North,355,0.0,0.0,91,0.00,,,0.00,134.00,VWS V14.00,2013-11-28 16:51:00,
2013-11-28 09:52:00,19.4,17.2,31.27,North,355,0.0,0.0,91,0.00,,,0.00,125.00,VWS V14.00,2013-11-28 16:52:00,
2013-11-28 09:53:00,19.4,17.2,31.27,North,355,0.0,0.0,91,0.00,,,0.00,118.00,VWS V14.00,2013-11-28 16:53:00,
2013-11-28 09:54:00,19.5,17.3,31.27,North,355,0.0,0.0,91,0.00,,,0.00,120.00,VWS V14.00,2013-11-28 16:54:00,
2013-11-28 09:55:00,19.5,17.3,31.27,North,355,0.0,0.0,91,0.00,,,0.00,130.00,VWS V14.00,2013-11-28 16:55:00,
2013-11-28 09:56:00,19.6,17.4,31.27,North,355,0.0,0.0,91,0.00,,,0.00,134.00,VWS V14.00,2013-11-28 16:56:00,
2013-11-28 09:57:00,19.7,17.5,31.27,North,355,0.0,0.0,91,0.00,,,0.00,123.00,VWS V14.00,2013-11-28 16:57:00,
2013-11-28 09:58:00,19.7,17.5,31.27,North,355,0.0,0.0,91,0.00,,,0.00,128.00,VWS V14.00,2013-11-28 16:58:00,
2013-11-28 09:59:00,19.7,17.5,31.27,North,355,0.0,0.0,91,0.00,,,0.00,123.00,VWS V14.00,2013-11-28 16:59:00,
2013-11-28 10:00:00,19.7,17.5,31.27,North,355,0.0,0.0,91,0.00,,,0.00,120.00,VWS V14.00,2013-11-28 17:00:00,
2013-11-28 10:01:00,19.7,17.5,31.27,North,355,0.0,0.0,91,0.00,,,0.00,118.00,VWS V14.00,2013-11-28 17:01:00,
2013-11-28 10:02:00,19.7,17.5,31.27,North,355,0.0,0.0,91,0.00,,,0.00,120.00,VWS V14.00,2013-11-28 17:02:00,
2013-11-28 10:03:00,19.7,17.5,31.27,North,355,0.0,0.0,91,0.00,,,0.00,125.00,VWS V14.00,2013-11-28 17:03:00,
2013-11-28 10:04:00,19.7,17.5,31.27,North,355,0.0,0.0,91,0.00,,,0.00,132.00,VWS V14.00,2013-11-28 17:04:00,
2013-11-28 10:05:00,19.8,17.6,31.27,North,355,0.0,0.0,91,0.00,,,0.00,139.00,VWS V14.00,2013-11-28 17:05:00,
2013-11-28 10:06:00,19.9,17.7,31.27,North,355,0.0,0.0,91,0.00,,,0.00,146.00,VWS V14.00,2013-11-28 17:06:00,
2013-11-28 10:07:00,20.0,17.8,31.27,North,355,0.0,0.0,91,0.00,,,0.00,151.00,VWS V14.00,2013-11-28 17:07:00,
2013-11-28 10:08:00,20.0,17.8,31.27,North,355,0.0,0.0,91,0.00,,,0.00,156.00,VWS V14.00,2013-11-28 17:08:00,
2013-11-28 10:09:00,20.0,17.8,31.27,North,355,0.0,0.0,91,0.00,,,0.00,158.00,VWS V14.00,2013-11-28 17:09:00,
2013-11-28 10:10:00,20.1,17.9,31.27,North,355,0.0,0.0,91,0.00,,,0.00,165.00,VWS V14.00,2013-11-28 17:10:00,
2013-11-28 10:11:00,20.1,17.9,31.27,North,355,0.0,0.0,91,0.00,,,0.00,163.00,VWS V14.00,2013-11-28 17:11:00,
2013-11-28 10:12:00,20.2,18.0,31.27,North,355,0.0,0.0,91,0.00,,,0.00,162.00,VWS V14.00,2013-11-28 17:12:00,
2013-11-28 10:13:00,20.2,18.0,31.27,North,355,0.0,0.0,91,0.00,,,0.00,158.00,VWS V14.00,2013-11-28 17:13:00,
2013-11-28 10:14:00,20.3,18.1,31.27,North,355,0.0,0.0,91,0.00,,,0.00,156.00,VWS V14.00,2013-11-28 17:14:00,
2013-11-28 10:15:00,20.3,18.1,31.27,North,355,0.0,0.0,91,0.00,,,0.00,153.00,VWS V14.00,2013-11-28 17:15:00,
2013-11-28 10:16:00,20.4,18.2,31.27,North,355,0.0,0.0,91,0.00,,,0.00,155.00,VWS V14.00,2013-11-28 17:16:00,
2013-11-28 10:17:00,20.4,18.2,31.27,North,355,0.0,0.0,91,0.00,,,0.00,148.00,VWS V14.00,2013-11-28 17:17:00,
2013-11-28 10:18:00,20.5,18.3,31.27,North,355,0.0,0.0,91,0.00,,,0.00,142.00,VWS V14.00,2013-11-28 17:18:00,
2013-11-28 10:19:00,20.6,18.4,31.26,North,355,0.0,0.0,91,0.00,,,0.00,135.00,VWS V14.00,2013-11-28 17:19:00,
2013-11-28 10:20:00,20.6,18.4,31.26,North,355,0.0,0.0,91,0.00,,,0.00,134.00,VWS V14.00,2013-11-28 17:20:00,
2013-11-28 10:21:00,20.6,18.4,31.26,North,355,0.0,0.0,91,0.00,,,0.00,134.00,VWS V14.00,2013-11-28 17:21:00,
2013-11-28 10:22:00,20.7,18.5,31.26,North,355,0.0,0.0,91,0.00,,,0.00,142.00,VWS V14.00,2013-11-28 17:22:00,
2013-11-28 10:23:00,20.8,18.6,31.26,North,355,0.0,0.0,91,0.00,,,0.00,146.00,VWS V14.00,2013-11-28 17:23:00,
2013-11-28 10:24:00,20.8,18.6,31.26,North,355,0.0,0.0,91,0.00,,,0.00,155.00,VWS V14.00,2013-11-28 17:24:00,
2013-11-28 10:25:00,20.8,18.6,31.26,North,355,0.0,0.0,91,0.00,,,0.00,162.00,VWS V14.00,2013-11-28 17:25:00,
2013-11-28 10:26:00,20.9,18.7,31.26,North,355,0.0,0.0,91,0.00,,,0.00,151.00,VWS V14.00,2013-11-28 17:26:00,
2013-11-28 10:27:00,21.0,18.8,31.26,North,355,0.0,0.0,91,0.00,,,0.00,149.00,VWS V14.00,2013-11-28 17:27:00,
2013-11-28 10:28:00,21.0,18.8,31.26,North,355,0.0,0.0,91,0.00,,,0.00,165.00,VWS V14.00,2013-11-28 17:28:00,
2013-11-28 10:29:00,21.1,18.9,31.26,North,355,0.0,0.0,91,0.00,,,0.00,193.00,VWS V14.00,2013-11-28 17:29:00,
2013-11-28 10:30:00,21.1,18.9,31.26,North,355,0.0,0.0,91,0.00,,,0.00,211.00,VWS V14.00,2013-11-28 17:30:00,
2013-11-28 10:31:00,21.2,19.0,31.26,North,355,0.0,0.0,91,0.00,,,0.00,197.00,VWS V14.00,2013-11-28 17:31:00,
2013-11-28 10:32:00,21.2,19.0,31.26,North,355,0.0,0.0,91,0.00,,,0.00,199.00,VWS V14.00,2013-11-28 17:32:00,
2013-11-28 10:33:00,21.3,19.1,31.26,North,355,0.0,0.0,91,0.00,,,0.00,209.00,VWS V14.00,2013-11-28 17:33:00,
2013-11-28 10:34:00,21.3,19.1,31.26,North,355,0.0,0.0,91,0.00,,,0.00,227.00,VWS V14.00,2013-11-28 17:34:00,
2013-11-28 10:35:00,21.4,19.2,31.26,North,355,0.0,0.0,91,0.00,,,0.00,237.00,VWS V14.00,2013-11-28 17:35:00,
2013-11-28 10:36:00,21.5,19.3,31.26,North,355,0.0,0.0,91,0.00,,,0.00,250.00,VWS V14.00,2013-11-28 17:36:00,
2013-11-28 10:37:00,21.5,19.3,31.26,North,355,1.0,1.0,91,0.00,,,0.00,274.00,VWS V14.00,2013-11-28 17:37:00,
2013-11-28 10:38:00,21.6,19.4,31.26,North,355,0.0,1.0,91,0.00,,,0.00,258.00,VWS V14.00,2013-11-28 17:38:00,
2013-11-28 10:39:00,21.7,19.7,31.26,North,355,0.0,1.0,92,0.00,,,0.00,237.00,VWS V14.00,2013-11-28 17:39:00,
2013-11-28 10:40:00,21.8,19.6,31.26,North,355,0.0,1.0,91,0.00,,,0.00,265.00,VWS V14.00,2013-11-28 17:40:00,
2013-11-28 10:41:00,21.8,19.8,31.26,North,355,0.0,1.0,92,0.00,,,0.00,253.00,VWS V14.00,2013-11-28 17:41:00,
2013-11-28 10:42:00,22.0,20.0,31.26,North,355,0.0,1.0,92,0.00,,,0.00,299.00,VWS V14.00,2013-11-28 17:42:00,
2013-11-28 10:43:00,22.1,20.1,31.25,North,355,0.0,1.0,92,0.00,,,0.00,281.00,VWS V14.00,2013-11-28 17:43:00,
2013-11-28 10:44:00,22.1,20.1,31.25,North,355,0.0,1.0,92,0.00,,,0.00,246.00,VWS V14.00,2013-11-28 17:44:00,
2013-11-28 10:45:00,22.3,20.3,31.25,North,355,0.0,2.0,92,0.00,,,0.00,255.00,VWS V14.00,2013-11-28 17:45:00,
2013-11-28 10:46:00,22.4,20.4,31.26,North,355,0.0,0.0,92,0.00,,,0.00,272.00,VWS V14.00,2013-11-28 17:46:00,
2013-11-28 10:47:00,22.5,20.5,31.25,North,355,0.0,0.0,92,0.00,,,0.00,271.00,VWS V14.00,2013-11-28 17:47:00,
2013-11-28 10:48:00,22.6,20.6,31.24,North,355,1.0,2.0,92,0.00,,,0.00,264.00,VWS V14.00,2013-11-28 17:48:00,
2013-11-28 10:49:00,22.7,20.7,31.24,North,355,0.0,3.0,92,0.00,,,0.00,248.00,VWS V14.00,2013-11-28 17:49:00,
2013-11-28 10:50:00,22.8,20.8,31.24,North,355,1.0,3.0,92,0.00,,,0.00,272.00,VWS V14.00,2013-11-28 17:50:00,
2013-11-28 10:51:00,22.9,20.9,31.24,North,355,0.0,3.0,92,0.00,,,0.00,299.00,VWS V14.00,2013-11-28 17:51:00,
2013-11-28 10:52:00,23.0,21.0,31.24,North,355,2.0,3.0,92,0.00,,,0.00,304.00,VWS V14.00,2013-11-28 17:52:00,
2013-11-28 10:53:00,23.1,21.1,31.24,North,355,2.0,3.0,92,0.00,,,0.00,316.00,VWS V14.00,2013-11-28 17:53:00,
2013-11-28 10:54:00,23.1,21.1,31.24,North,355,1.0,3.0,92,0.00,,,0.00,329.00,VWS V14.00,2013-11-28 17:54:00,
2013-11-28 10:55:00,23.2,21.2,31.24,North,355,1.0,3.0,92,0.00,,,0.00,311.00,VWS V14.00,2013-11-28 17:55:00,
2013-11-28 10:56:00,23.3,21.3,31.24,North,355,3.0,3.0,92,0.00,,,0.00,320.00,VWS V14.00,2013-11-28 17:56:00,
2013-11-28 10:57:00,23.3,21.3,31.24,North,355,1.0,3.0,92,0.00,,,0.00,315.00,VWS V14.00,2013-11-28 17:57:00,
2013-11-28 10:58:00,23.4,21.4,31.24,North,355,3.0,3.0,92,0.00,,,0.00,316.00,VWS V14.00,2013-11-28 17:58:00,
2013-11-28 10:59:00,23.4,21.4,31.24,North,355,2.0,3.0,92,0.00,,,0.00,258.00,VWS V14.00,2013-11-28 17:59:00,
2013-11-28 11:00:00,23.5,21.5,31.24,North,355,2.0,3.0,92,0.00,,,0.00,294.00,VWS V14.00,2013-11-28 18:00:00,
2013-11-28 11:01:00,23.5,21.5,31.25,North,355,2.0,3.0,92,0.00,,,0.00,299.00,VWS V14.00,2013-11-28 18:01:00,
2013-11-28 11:02:00,23.5,21.5,31.25,North,355,1.0,3.0,92,0.00,,,0.00,283.00,VWS V14.00,2013-11-28 18:02:00,
2013-11-28 11:03:00,23.5,21.5,31.25,North,355,4.0,4.0,92,0.00,,,0.00,316.00,VWS V14.00,2013-11-28 18:03:00,
2013-11-28 11:04:00,23.5,21.5,31.25,North,355,2.0,4.0,92,0.00,,,0.00,290.00,VWS V14.00,2013-11-28 18:04:00,
2013-11-28 11:05:00,23.6,21.6,31.25,North,355,3.0,4.0,92,0.00,,,0.00,297.00,VWS V14.00,2013-11-28 18:05:00,
2013-11-28 11:06:00,23.6,21.6,31.25,North,355,3.0,4.0,92,0.00,,,0.00,279.00,VWS V14.00,2013-11-28 18:06:00,
2013-11-28 11:07:00,23.7,21.7,31.25,North,355,4.0,4.0,92,0.00,,,0.00,271.00,VWS V14.00,2013-11-28 18:07:00,
2013-11-28 11:08:00,23.7,21.7,31.25,North,355,2.0,4.0,92,0.00,,,0.00,299.00,VWS V14.00,2013-11-28 18:08:00,
2013-11-28 11:09:00,23.6,21.6,31.25,North,355,3.0,4.0,92,0.00,,,0.00,302.00,VWS V14.00,2013-11-28 18:09:00,
2013-11-28 11:10:00,23.6,21.6,31.25,North,355,3.0,4.0,92,0.00,,,0.00,336.00,VWS V14.00,2013-11-28 18:10:00,
2013-11-28 11:11:00,23.7,21.7,31.25,North,355,2.0,4.0,92,0.00,,,0.00,327.00,VWS V14.00,2013-11-28 18:11:00,
2013-11-28 11:12:00,23.7,21.7,31.25,North,355,4.0,4.0,92,0.00,,,0.00,257.00,VWS V14.00,2013-11-28 18:12:00,
2013-11-28 11:13:00,23.8,21.8,31.25,North,355,3.0,4.0,92,0.00,,,0.00,239.00,VWS V14.00,2013-11-28 18:13:00,
2013-11-28 11:14:00,23.8,21.8,31.25,North,355,3.0,4.0,92,0.00,,,0.00,320.00,VWS V14.00,2013-11-28 18:14:00,
2013-11-28 11:15:00,23.8,21.8,31.25,North,355,3.0,4.0,92,0.00,,,0.00,311.00,VWS V14.00,2013-11-28 18:15:00,
2013-11-28 11:16:00,23.8,21.8,31.25,North,355,2.0,4.0,92,0.00,,,0.00,313.00,VWS V14.00,2013-11-28 18:16:00,
2013-11-28 11:17:00,23.9,21.9,31.25,North,355,2.0,4.0,92,0.00,,,0.00,290.00,VWS V14.00,2013-11-28 18:17:00,
2013-11-28 11:18:00,23.9,21.9,31.25,North,355,2.0,4.0,92,0.00,,,0.00,315.00,VWS V14.00,2013-11-28 18:18:00,
2013-11-28 11:19:00,23.9,21.9,31.25,North,355,3.0,4.0,92,0.00,,,0.00,297.00,VWS V14.00,2013-11-28 18:19:00,
2013-11-28 11:20:00,24.0,22.0,31.25,North,355,4.0,4.0,92,0.00,,,0.00,304.00,VWS V14.00,2013-11-28 18:20:00,
2013-11-28 11:21:00,24.1,22.1,31.25,North,355,2.0,4.0,92,0.00,,,0.00,283.00,VWS V14.00,2013-11-28 18:21:00,
2013-11-28 11:22:00,24.1,22.1,31.25,North,355,1.0,4.0,92,0.00,,,0.00,283.00,VWS V14.00,2013-11-28 18:22:00,
2013-11-28 11:23:00,24.2,22.2,31.25,North,355,3.0,4.0,92,0.00,,,0.00,334.00,VWS V14.00,2013-11-28 18:23:00,
2013-11-28 11:24:00,24.2,22.2,31.25,North,355,3.0,4.0,92,0.00,,,0.00,292.00,VWS V14.00,2013-11-28 18:24:00,
2013-11-28 11:25:00,24.3,22.3,31.25,North,355,1.0,4.0,92,0.00,,,0.00,323.00,VWS V14.00,2013-11-28 18:25:00,
2013-11-28 11:26:00,24.3,22.3,31.25,North,355,0.0,4.0,92,0.00,,,0.00,399.00,VWS V14.00,2013-11-28 18:26:00,
2013-11-28 11:27:00,24.3,22.3,31.25,North,355,0.0,4.0,92,0.00,,,0.00,320.00,VWS V14.00,2013-11-28 18:27:00,
2013-11-28 11:28:00,24.4,22.4,31.25,North,355,4.0,5.0,92,0.00,,,0.00,301.00,VWS V14.00,2013-11-28 18:28:00,
2013-11-28 11:29:00,24.5,22.5,31.25,North,355,3.0,5.0,92,0.00,,,0.00,329.00,VWS V14.00,2013-11-28 18:29:00,
2013-11-28 11:30:00,24.5,22.5,31.24,North,355,2.0,5.0,92,0.00,,,0.00,288.00,VWS V14.00,2013-11-28 18:30:00,
2013-11-28 11:31:00,24.5,22.5,31.24,North,355,3.0,3.0,92,0.00,,,0.00,325.00,VWS V14.00,2013-11-28 18:31:00,
2013-11-28 11:32:00,24.6,22.6,31.24,North,355,2.0,4.0,92,0.00,,,0.00,294.00,VWS V14.00,2013-11-28 18:32:00,
2013-11-28 11:33:00,24.7,22.7,31.24,North,355,0.0,4.0,92,0.00,,,0.00,341.00,VWS V14.00,2013-11-28 18:33:00,
2013-11-28 11:34:00,24.7,22.7,31.23,North,355,2.0,4.0,92,0.00,,,0.00,332.00,VWS V14.00,2013-11-28 18:34:00,
2013-11-28 11:35:00,24.8,22.8,31.24,North,355,4.0,4.0,92,0.00,,,0.00,294.00,VWS V14.00,2013-11-28 18:35:00,
2013-11-28 11:36:00,24.8,22.8,31.24,North,355,1.0,4.0,92,0.00,,,0.00,332.00,VWS V14.00,2013-11-28 18:36:00,
2013-11-28 11:37:00,24.9,22.9,31.23,North,355,0.0,4.0,92,0.00,,,0.00,345.00,VWS V14.00,2013-11-28 18:37:00,
2013-11-28 11:38:00,24.9,22.9,31.23,North,355,3.0,4.0,92,0.00,,,0.00,343.00,VWS V14.00,2013-11-28 18:38:00,
2013-11-28 11:39:00,25.0,23.0,31.23,North,355,2.0,4.0,92,0.00,,,0.00,276.00,VWS V14.00,2013-11-28 18:39:00,
2013-11-28 11:40:00,25.1,23.1,31.23,North,355,3.0,4.0,92,0.00,,,0.00,360.00,VWS V14.00,2013-11-28 18:40:00,
2013-11-28 11:41:00,25.1,23.1,31.23,North,355,2.0,4.0,92,0.00,,,0.00,367.00,VWS V14.00,2013-11-28 18:41:00,
2013-11-28 11:42:00,25.1,23.1,31.23,North,355,2.0,4.0,92,0.00,,,0.00,267.00,VWS V14.00,2013-11-28 18:42:00,
2013-11-28 11:43:00,25.2,23.2,31.23,North,355,3.0,4.0,92,0.00,,,0.00,251.00,VWS V14.00,2013-11-28 18:43:00,
2013-11-28 11:44:00,25.2,23.2,31.23,North,355,3.0,4.0,92,0.00,,,0.00,237.00,VWS V14.00,2013-11-28 18:44:00,
2013-11-28 11:45:00,25.2,23.2,31.23,North,355,1.0,4.0,92,0.00,,,0.00,306.00,VWS V14.00,2013-11-28 18:45:00,
2013-11-28 11:46:00,25.2,23.2,31.23,North,355,4.0,4.0,92,0.00,,,0.00,271.00,VWS V14.00,2013-11-28 18:46:00,
2013-11-28 11:47:00,25.3,23.3,31.23,North,355,2.0,4.0,92,0.00,,,0.00,234.00,VWS V14.00,2013-11-28 18:47:00,
2013-11-28 11:48:00,25.3,23.3,31.23,North,355,3.0,4.0,92,0.00,,,0.00,292.00,VWS V14.00,2013-11-28 18:48:00,
2013-11-28 11:49:00,25.3,23.3,31.23,North,355,1.0,4.0,92,0.00,,,0.00,292.00,VWS V14.00,2013-11-28 18:49:00,
2013-11-28 11:50:00,25.4,23.4,31.23,North,355,0.0,4.0,92,0.00,,,0.00,341.00,VWS V14.00,2013-11-28 18:50:00,
2013-11-28 11:51:00,25.4,23.4,31.23,North,355,2.0,4.0,92,0.00,,,0.00,288.00,VWS V14.00,2013-11-28 18:51:00,
2013-11-28 11:52:00,25.5,23.5,31.23,North,355,3.0,4.0,92,0.00,,,0.00,220.00,VWS V14.00,2013-11-28 18:52:00,
2013-11-28 11:53:00,25.5,23.5,31.23,North,355,2.0,4.0,92,0.00,,,0.00,258.00,VWS V14.00,2013-11-28 18:53:00,
2013-11-28 11:54:00,25.5,23.5,31.23,North,355,0.0,4.0,92,0.00,,,0.00,265.00,VWS V14.00,2013-11-28 18:54:00,
2013-11-28 11:55:00,25.5,23.5,31.23,North,355,3.0,4.0,92,0.00,,,0.00,265.00,VWS V14.00,2013-11-28 18:55:00,
2013-11-28 11:56:00,25.5,23.5,31.23,North,355,3.0,4.0,92,0.00,,,0.00,216.00,VWS V14.00,2013-11-28 18:56:00,
2013-11-28 11:57:00,25.5,23.5,31.23,North,355,2.0,4.0,92,0.00,,,0.00,241.00,VWS V14.00,2013-11-28 18:57:00,
2013-11-28 11:58:00,25.5,23.5,31.23,North,355,3.0,4.0,92,0.00,,,0.00,236.00,VWS V14.00,2013-11-28 18:58:00,
2013-11-28 11:59:00,25.6,23.6,31.23,North,355,3.0,4.0,92,0.00,,,0.00,202.00,VWS V14.00,2013-11-28 18:59:00,
2013-11-28 12:00:00,25.6,23.6,31.23,North,355,4.0,4.0,92,0.00,,,0.00,220.00,VWS V14.00,2013-11-28 19:00:00,
2013-11-28 12:01:00,25.6,23.6,31.23,North,355,3.0,4.0,92,0.00,,,0.00,239.00,VWS V14.00,2013-11-28 19:01:00,
2013-11-28 12:02:00,25.6,23.6,31.23,North,355,0.0,4.0,92,0.00,,,0.00,255.00,VWS V14.00,2013-11-28 19:02:00,
2013-11-28 12:03:00,25.6,23.6,31.23,North,355,0.0,4.0,92,0.00,,,0.00,271.00,VWS V14.00,2013-11-28 19:03:00,
2013-11-28 12:04:00,25.6,23.6,31.23,North,355,0.0,4.0,92,0.00,,,0.00,246.00,VWS V14.00,2013-11-28 19:04:00,
2013-11-28 12:05:00,25.6,23.6,31.22,North,355,2.0,4.0,92,0.00,,,0.00,216.00,VWS V14.00,2013-11-28 19:05:00,
2013-11-28 12:06:00,25.7,23.7,31.22,North,355,3.0,4.0,92,0.00,,,0.00,295.00,VWS V14.00,2013-11-28 19:06:00,
2013-11-28 12:07:00,25.7,23.7,31.22,North,355,0.0,4.0,92,0.00,,,0.00,264.00,VWS V14.00,2013-11-28 19:07:00,
2013-11-28 12:08:00,25.7,23.7,31.22,North,355,0.0,4.0,92,0.00,,,0.00,230.00,VWS V14.00,2013-11-28 19:08:00,
2013-11-28 12:09:00,25.8,23.8,31.22,North,355,2.0,4.0,92,0.00,,,0.00,213.00,VWS V14.00,2013-11-28 19:09:00,
2013-11-28 12:10:00,25.8,23.8,31.22,North,355,0.0,4.0,92,0.00,,,0.00,230.00,VWS V14.00,2013-11-28 19:10:00,
2013-11-28 12:11:00,25.8,23.8,31.22,North,355,2.0,4.0,92,0.00,,,0.00,221.00,VWS V14.00,2013-11-28 19:11:00,
2013-11-28 12:12:00,25.8,23.8,31.22,North,355,2.0,4.0,92,0.00,,,0.00,265.00,VWS V14.00,2013-11-28 19:12:00,
2013-11-28 12:13:00,25.8,23.8,31.22,North,355,2.0,4.0,92,0.00,,,0.00,267.00,VWS V14.00,2013-11-28 19:13:00,
2013-11-28 12:14:00,25.8,23.8,31.22,North,355,3.0,4.0,92,0.00,,,0.00,227.00,VWS V14.00,2013-11-28 19:14:00,
2013-11-28 12:15:00,25.8,23.8,31.22,North,355,3.0,4.0,92,0.00,,,0.00,227.00,VWS V14.00,2013-11-28 19:15:00,
2013-11-28 12:16:00,25.8,23.8,31.22,North,355,1.0,4.0,92,0.00,,,0.00,225.00,VWS V14.00,2013-11-28 19:16:00,
2013-11-28 12:17:00,25.8,23.8,31.22,North,355,0.0,4.0,92,0.00,,,0.00,188.00,VWS V14.00,2013-11-28 19:17:00,
2013-11-28 12:18:00,25.8,23.8,31.22,North,355,0.0,4.0,92,0.00,,,0.00,165.00,VWS V14.00,2013-11-28 19:18:00,
2013-11-28 12:19:00,25.8,23.8,31.22,North,355,0.0,4.0,92,0.00,,,0.00,188.00,VWS V14.00,2013-11-28 19:19:00,
2013-11-28 12:20:00,25.8,23.8,31.22,North,355,0.0,4.0,92,0.00,,,0.00,197.00,VWS V14.00,2013-11-28 19:20:00,
2013-11-28 12:21:00,25.8,23.8,31.22,North,355,0.0,4.0,92,0.00,,,0.00,167.00,VWS V14.00,2013-11-28 19:21:00,
2013-11-28 12:22:00,25.7,23.7,31.22,North,355,0.0,4.0,92,0.00,,,0.00,165.00,VWS V14.00,2013-11-28 19:22:00,
2013-11-28 12:23:00,25.7,23.7,31.22,North,355,0.0,4.0,92,0.00,,,0.00,188.00,VWS V14.00,2013-11-28 19:23:00,
2013-11-28 12:24:00,25.7,23.7,31.22,North,355,2.0,4.0,92,0.00,,,0.00,167.00,VWS V14.00,2013-11-28 19:24:00,
2013-11-28 12:25:00,25.7,23.7,31.22,North,355,0.0,4.0,92,0.00,,,0.00,195.00,VWS V14.00,2013-11-28 19:25:00,
2013-11-28 12:26:00,25.7,23.7,31.22,North,355,0.0,4.0,92,0.00,,,0.00,169.00,VWS V14.00,2013-11-28 19:26:00,
2013-11-28 12:27:00,25.6,23.6,31.22,North,355,0.0,4.0,92,0.00,,,0.00,202.00,VWS V14.00,2013-11-28 19:27:00,
2013-11-28 12:28:00,25.6,23.6,31.22,North,355,0.0,4.0,92,0.00,,,0.00,232.00,VWS V14.00,2013-11-28 19:28:00,
2013-11-28 12:29:00,25.6,23.6,31.22,North,355,0.0,4.0,92,0.00,,,0.00,179.00,VWS V14.00,2013-11-28 19:29:00,
2013-11-28 12:30:00,25.6,23.6,31.22,North,355,0.0,4.0,92,0.00,,,0.00,165.00,VWS V14.00,2013-11-28 19:30:00,
2013-11-28 12:31:00,25.6,23.6,31.22,North,355,0.0,0.0,92,0.00,,,0.00,169.00,VWS V14.00,2013-11-28 19:31:00,
2013-11-28 12:32:00,25.6,23.6,31.22,North,355,0.0,0.0,92,0.00,,,0.00,199.00,VWS V14.00,2013-11-28 19:32:00,
2013-11-28 12:33:00,25.6,23.6,31.22,North,355,0.0,0.0,92,0.00,,,0.00,229.00,VWS V14.00,2013-11-28 19:33:00,
2013-11-28 12:34:00,25.6,23.6,31.21,North,355,0.0,0.0,92,0.00,,,0.00,197.00,VWS V14.00,2013-11-28 19:34:00,
2013-11-28 12:35:00,25.7,23.7,31.22,North,355,0.0,0.0,92,0.00,,,0.00,209.00,VWS V14.00,2013-11-28 19:35:00,
2013-11-28 12:36:00,25.7,23.7,31.21,North,355,0.0,0.0,92,0.00,,,0.00,221.00,VWS V14.00,2013-11-28 19:36:00,
2013-11-28 12:37:00,25.7,23.7,31.21,North,355,0.0,0.0,92,0.00,,,0.00,206.00,VWS V14.00,2013-11-28 19:37:00,
2013-11-28 12:38:00,25.7,23.7,31.21,North,355,0.0,0.0,92,0.00,,,0.00,183.00,VWS V14.00,2013-11-28 19:38:00,
2013-11-28 12:39:00,25.7,23.7,31.21,North,355,0.0,0.0,92,0.00,,,0.00,183.00,VWS V14.00,2013-11-28 19:39:00,
2013-11-28 12:40:00,25.7,23.7,31.21,North,355,0.0,0.0,92,0.00,,,0.00,193.00,VWS V14.00,2013-11-28 19:40:00,
2013-11-28 12:41:00,25.7,23.7,31.21,North,355,0.0,0.0,92,0.00,,,0.00,229.00,VWS V14.00,2013-11-28 19:41:00,
2013-11-28 12:42:00,25.7,23.7,31.21,North,355,0.0,0.0,92,0.00,,,0.00,167.00,VWS V14.00,2013-11-28 19:42:00,
2013-11-28 12:43:00,25.7,23.7,31.21,North,355,0.0,0.0,92,0.00,,,0.00,167.00,VWS V14.00,2013-11-28 19:43:00,
2013-11-28 12:44:00,25.7,23.7,31.21,North,355,0.0,0.0,92,0.00,,,0.00,241.00,VWS V14.00,2013-11-28 19:44:00,
2013-11-28 12:45:00,25.8,23.8,31.21,North,355,0.0,0.0,92,0.00,,,0.00,309.00,VWS V14.00,2013-11-28 19:45:00,
2013-11-28 12:46:00,25.9,23.9,31.21,North,355,0.0,0.0,92,0.00,,,0.00,308.00,VWS V14.00,2013-11-28 19:46:00,
2013-11-28 12:47:00,26.0,24.0,31.21,North,355,0.0,0.0,92,0.00,,,0.00,281.00,VWS V14.00,2013-11-28 19:47:00,
2013-11-28 12:48:00,26.1,24.1,31.21,North,355,0.0,0.0,92,0.00,,,0.00,283.00,VWS V14.00,2013-11-28 19:48:00,
2013-11-28 12:49:00,26.3,24.3,31.21,North,355,0.0,0.0,92,0.00,,,0.00,279.00,VWS V14.00,2013-11-28 19:49:00,
2013-11-28 12:50:00,26.4,24.4,31.21,North,355,0.0,0.0,92,0.00,,,0.00,285.00,VWS V14.00,2013-11-28 19:50:00,
2013-11-28 12:51:00,26.5,24.8,31.21,North,355,0.0,0.0,93,0.00,,,0.00,294.00,VWS V14.00,2013-11-28 19:51:00,
2013-11-28 12:52:00,26.7,25.0,31.21,North,355,0.0,0.0,93,0.00,,,0.00,288.00,VWS V14.00,2013-11-28 19:52:00,
2013-11-28 12:53:00,26.8,24.8,31.21,North,355,0.0,0.0,92,0.00,,,0.00,304.00,VWS V14.00,2013-11-28 19:53:00,
2013-11-28 12:54:00,27.0,25.0,31.21,North,355,0.0,0.0,92,0.00,,,0.00,297.00,VWS V14.00,2013-11-28 19:54:00,
2013-11-28 12:55:00,27.1,25.1,31.20,North,355,0.0,0.0,92,0.00,,,0.00,297.00,VWS V14.00,2013-11-28 19:55:00,
2013-11-28 12:56:00,27.2,25.5,31.21,North,355,0.0,0.0,93,0.00,,,0.00,299.00,VWS V14.00,2013-11-28 19:56:00,
2013-11-28 12:57:00,27.4,25.6,31.21,North,355,2.0,3.0,93,0.00,,,0.00,299.00,VWS V14.00,2013-11-28 19:57:00,
2013-11-28 12:58:00,27.4,25.4,31.21,North,355,1.0,3.0,92,0.00,,,0.00,302.00,VWS V14.00,2013-11-28 19:58:00,
2013-11-28 12:59:00,27.5,25.5,31.20,North,355,0.0,3.0,92,0.00,,,0.00,308.00,VWS V14.00,2013-11-28 19:59:00,
2013-11-28 13:00:00,27.6,25.6,31.19,North,355,0.0,3.0,92,0.00,,,0.00,309.00,VWS V14.00,2013-11-28 20:00:00,
2013-11-28 13:01:00,27.8,25.8,31.21,North,355,0.0,0.0,92,0.00,,,0.00,316.00,VWS V14.00,2013-11-28 20:01:00,
2013-11-28 13:02:00,27.9,25.9,31.21,North,355,0.0,0.0,92,0.00,,,0.00,320.00,VWS V14.00,2013-11-28 20:02:00,
2013-11-28 13:03:00,28.1,26.1,31.21,North,355,0.0,3.0,92,0.00,,,0.00,316.00,VWS V14.00,2013-11-28 20:03:00,
2013-11-28 13:04:00,28.2,26.2,31.21,North,355,2.0,3.0,92,0.00,,,0.00,322.00,VWS V14.00,2013-11-28 20:04:00,
2013-11-28 13:05:00,28.3,26.3,31.21,North,355,2.0,3.0,92,0.00,,,0.00,323.00,VWS V14.00,2013-11-28 20:05:00,
2013-11-28 13:06:00,28.4,26.4,31.21,North,355,2.0,3.0,92,0.00,,,0.00,323.00,VWS V14.00,2013-11-28 20:06:00,
2013-11-28 13:07:00,28.5,26.5,31.20,North,355,1.0,3.0,92,0.00,,,0.00,323.00,VWS V14.00,2013-11-28 20:07:00,
2013-11-28 13:08:00,28.6,26.3,31.19,North,355,1.0,3.0,91,0.00,,,0.00,318.00,VWS V14.00,2013-11-28 20:08:00,
2013-11-28 13:09:00,28.7,26.4,31.19,North,355,2.0,3.0,91,0.00,,,0.00,318.00,VWS V14.00,2013-11-28 20:09:00,
2013-11-28 13:10:00,28.7,26.4,31.19,North,355,3.0,3.0,91,0.00,,,0.00,308.00,VWS V14.00,2013-11-28 20:10:00,
2013-11-28 13:11:00,28.8,26.2,31.19,North,355,0.0,3.0,90,0.00,,,0.00,302.00,VWS V14.00,2013-11-28 20:11:00,
2013-11-28 13:12:00,28.8,26.2,31.19,North,355,0.0,3.0,90,0.00,,,0.00,306.00,VWS V14.00,2013-11-28 20:12:00,
2013-11-28 13:13:00,28.9,26.3,31.19,North,355,0.0,3.0,90,0.00,,,0.00,297.00,VWS V14.00,2013-11-28 20:13:00,
2013-11-28 13:14:00,29.0,26.4,31.19,North,355,0.0,3.0,90,0.00,,,0.00,297.00,VWS V14.00,2013-11-28 20:14:00,
2013-11-28 13:15:00,29.1,26.5,31.19,North,355,0.0,3.0,90,0.00,,,0.00,294.00,VWS V14.00,2013-11-28 20:15:00,
2013-11-28 13:16:00,29.2,26.6,31.19,North,355,0.0,0.0,90,0.00,,,0.00,301.00,VWS V14.00,2013-11-28 20:16:00,
2013-11-28 13:17:00,29.3,26.5,31.19,North,355,0.0,0.0,89,0.00,,,0.00,297.00,VWS V14.00,2013-11-28 20:17:00,
2013-11-28 13:18:00,29.4,26.6,31.19,North,355,0.0,0.0,89,0.00,,,0.00,299.00,VWS V14.00,2013-11-28 20:18:00,
2013-11-28 13:19:00,29.5,26.7,31.19,North,355,0.0,0.0,89,0.00,,,0.00,288.00,VWS V14.00,2013-11-28 20:19:00,
2013-11-28 13:20:00,29.6,26.5,31.19,North,355,0.0,0.0,88,0.00,,,0.00,295.00,VWS V14.00,2013-11-28 20:20:00,
2013-11-28 13:21:00,29.7,26.6,31.19,North,355,0.0,0.0,88,0.00,,,0.00,290.00,VWS V14.00,2013-11-28 20:21:00,
2013-11-28 13:22:00,29.8,26.7,31.18,North,355,0.0,0.0,88,0.00,,,0.00,290.00,VWS V14.00,2013-11-28 20:22:00,
2013-11-28 13:23:00,29.8,26.7,31.18,North,355,0.0,0.0,88,0.00,,,0.00,287.00,VWS V14.00,2013-11-28 20:23:00,
2013-11-28 13:24:00,30.0,26.6,31.18,North,355,0.0,0.0,87,0.00,,,0.00,292.00,VWS V14.00,2013-11-28 20:24:00,
2013-11-28 13:25:00,30.1,26.7,31.18,North,355,0.0,0.0,87,0.00,,,0.00,294.00,VWS V14.00,2013-11-28 20:25:00,
2013-11-28 13:26:00,30.1,26.7,31.18,North,355,0.0,1.0,87,0.00,,,0.00,294.00,VWS V14.00,2013-11-28 20:26:00,
2013-11-28 13:27:00,30.2,26.8,31.18,North,355,0.0,1.0,87,0.00,,,0.00,301.00,VWS V14.00,2013-11-28 20:27:00,
2013-11-28 13:28:00,30.3,26.6,31.18,North,355,0.0,1.0,86,0.00,,,0.00,297.00,VWS V14.00,2013-11-28 20:28:00,
2013-11-28 13:29:00,30.4,26.7,31.18,North,355,2.0,3.0,86,0.00,,,0.00,297.00,VWS V14.00,2013-11-28 20:29:00,
2013-11-28 13:30:00,30.5,26.8,31.18,North,355,0.0,3.0,86,0.00,,,0.00,290.00,VWS V14.00,2013-11-28 20:30:00,
2013-11-28 13:31:00,30.6,26.6,31.17,North,355,0.0,0.0,85,0.00,,,0.00,292.00,VWS V14.00,2013-11-28 20:31:00,
2013-11-28 13:32:00,30.6,26.6,31.17,North,355,0.0,0.0,85,0.00,,,0.00,281.00,VWS V14.00,2013-11-28 20:32:00,
2013-11-28 13:33:00,30.7,26.7,31.17,North,355,0.0,0.0,85,0.00,,,0.00,274.00,VWS V14.00,2013-11-28 20:33:00,
2013-11-28 13:34:00,30.8,26.8,31.17,North,355,0.0,0.0,85,0.00,,,0.00,264.00,VWS V14.00,2013-11-28 20:34:00,
2013-11-28 13:35:00,30.8,26.5,31.17,North,355,0.0,0.0,84,0.00,,,0.00,272.00,VWS V14.00,2013-11-28 20:35:00,
2013-11-28 13:36:00,30.9,26.6,31.17,North,355,0.0,0.0,84,0.00,,,0.00,265.00,VWS V14.00,2013-11-28 20:36:00,
2013-11-28 13:37:00,30.9,26.6,31.17,North,355,0.0,0.0,84,0.00,,,0.00,257.00,VWS V14.00,2013-11-28 20:37:00,
2013-11-28 13:38:00,31.0,26.7,31.17,North,355,0.0,0.0,84,0.00,,,0.00,267.00,VWS V14.00,2013-11-28 20:38:00,
2013-11-28 13:39:00,31.1,26.8,31.17,North,355,0.0,0.0,84,0.00,,,0.00,265.00,VWS V14.00,2013-11-28 20:39:00,
2013-11-28 13:40:00,31.1,26.5,31.17,North,355,0.0,0.0,83,0.00,,,0.00,274.00,VWS V14.00,2013-11-28 20:40:00,
2013-11-28 13:41:00,31.2,26.6,31.17,North,355,0.0,0.0,83,0.00,,,0.00,269.00,VWS V14.00,2013-11-28 20:41:00,
2013-11-28 13:42:00,31.3,26.8,31.17,North,355,0.0,0.0,83,0.00,,,0.00,271.00,VWS V14.00,2013-11-28 20:42:00,
2013-11-28 13:43:00,31.5,26.9,31.17,North,355,0.0,0.0,83,0.00,,,0.00,262.00,VWS V14.00,2013-11-28 20:43:00,
2013-11-28 13:44:00,31.5,26.6,31.17,North,355,0.0,0.0,82,0.00,,,0.00,262.00,VWS V14.00,2013-11-28 20:44:00,
2013-11-28 13:45:00,31.6,26.8,31.17,North,355,0.0,0.0,82,0.00,,,0.00,253.00,VWS V14.00,2013-11-28 20:45:00,
2013-11-28 13:46:00,31.7,26.8,31.17,North,355,0.0,0.0,82,0.00,,,0.00,246.00,VWS V14.00,2013-11-28 20:46:00,
2013-11-28 13:47:00,31.8,26.9,31.17,North,355,0.0,0.0,82,0.00,,,0.00,244.00,VWS V14.00,2013-11-28 20:47:00,
2013-11-28 13:48:00,31.9,26.7,31.17,North,355,0.0,0.0,81,0.00,,,0.00,244.00,VWS V14.00,2013-11-28 20:48:00,
2013-11-28 13:49:00,32.0,26.8,31.17,North,355,2.0,2.0,81,0.00,,,0.00,260.00,VWS V14.00,2013-11-28 20:49:00,
2013-11-28 13:50:00,32.1,26.9,31.17,North,355,0.0,2.0,81,0.00,,,0.00,250.00,VWS V14.00,2013-11-28 20:50:00,
2013-11-28 13:51:00,32.1,26.6,31.17,North,355,0.0,2.0,80,0.00,,,0.00,237.00,VWS V14.00,2013-11-28 20:51:00,
2013-11-28 13:52:00,32.2,26.7,31.17,North,355,0.0,2.0,80,0.00,,,0.00,246.00,VWS V14.00,2013-11-28 20:52:00,
2013-11-28 13:53:00,32.3,26.8,31.17,North,355,0.0,2.0,80,0.00,,,0.00,253.00,VWS V14.00,2013-11-28 20:53:00,
2013-11-28 13:54:00,32.4,26.9,31.17,North,355,0.0,2.0,80,0.00,,,0.00,244.00,VWS V14.00,2013-11-28 20:54:00,
2013-11-28 13:55:00,32.5,27.0,31.17,North,355,0.0,2.0,80,0.00,,,0.00,246.00,VWS V14.00,2013-11-28 20:55:00,
2013-11-28 13:56:00,32.6,27.1,31.16,North,355,0.0,2.0,80,0.00,,,0.00,234.00,VWS V14.00,2013-11-28 20:56:00,
2013-11-28 13:57:00,32.7,26.9,31.16,North,355,0.0,2.0,79,0.00,,,0.00,232.00,VWS V14.00,2013-11-28 20:57:00,
2013-11-28 13:58:00,32.8,27.0,31.16,North,355,0.0,2.0,79,0.00,,,0.00,230.00,VWS V14.00,2013-11-28 20:58:00,
2013-11-28 13:59:00,32.9,27.1,31.16,North,355,0.0,2.0,79,0.00,,,0.00,236.00,VWS V14.00,2013-11-28 20:59:00,
2013-11-28 14:00:00,33.0,26.9,31.16,North,355,0.0,2.0,78,0.00,,,0.00,244.00,VWS V14.00,2013-11-28 21:00:00,
2013-11-28 14:01:00,33.1,27.0,31.17,North,355,0.0,0.0,78,0.00,,,0.00,223.00,VWS V14.00,2013-11-28 21:01:00,
2013-11-28 14:02:00,33.2,27.1,31.17,North,355,0.0,0.0,78,0.00,,,0.00,214.00,VWS V14.00,2013-11-28 21:02:00,
2013-11-28 14:03:00,33.2,26.8,31.17,North,355,0.0,0.0,77,0.00,,,0.00,204.00,VWS V14.00,2013-11-28 21:03:00,
2013-11-28 14:04:00,33.3,26.9,31.17,North,355,0.0,0.0,77,0.00,,,0.00,195.00,VWS V14.00,2013-11-28 21:04:00,
2013-11-28 14:05:00,33.3,26.6,31.16,North,355,0.0,0.0,76,0.00,,,0.00,188.00,VWS V14.00,2013-11-28 21:05:00,
2013-11-28 14:06:00,33.4,26.7,31.16,North,355,0.0,0.0,76,0.00,,,0.00,186.00,VWS V14.00,2013-11-28 21:06:00,
2013-11-28 14:07:00,33.4,26.3,31.16,North,355,0.0,0.0,75,0.00,,,0.00,181.00,VWS V14.00,2013-11-28 21:07:00,
2013-11-28 14:08:00,33.4,26.0,31.16,North,355,0.0,0.0,74,0.00,,,0.00,179.00,VWS V14.00,2013-11-28 21:08:00,
2013-11-28 14:09:00,33.5,26.4,31.16,North,355,0.0,0.0,75,0.00,,,0.00,172.00,VWS V14.00,2013-11-28 21:09:00,
2013-11-28 14:10:00,33.5,26.4,31.15,North,355,0.0,0.0,75,0.00,,,0.00,167.00,VWS V14.00,2013-11-28 21:10:00,
2013-11-28 14:11:00,33.6,26.5,31.15,North,355,0.0,0.0,75,0.00,,,0.00,162.00,VWS V14.00,2013-11-28 21:11:00,
2013-11-28 14:12:00,33.6,26.5,31.15,North,355,0.0,0.0,75,0.00,,,0.00,142.00,VWS V14.00,2013-11-28 21:12:00,
2013-11-28 14:13:00,33.7,26.6,31.15,North,355,0.0,0.0,75,0.00,,,0.00,134.00,VWS V14.00,2013-11-28 21:13:00,
2013-11-28 14:14:00,33.7,26.6,31.15,North,355,0.0,0.0,75,0.00,,,0.00,125.00,VWS V14.00,2013-11-28 21:14:00,
2013-11-28 14:15:00,33.7,26.6,31.15,North,355,0.0,0.0,75,0.00,,,0.00,137.00,VWS V14.00,2013-11-28 21:15:00,
2013-11-28 14:16:00,33.7,27.0,31.15,North,355,0.0,0.0,76,0.00,,,0.00,146.00,VWS V14.00,2013-11-28 21:16:00,
2013-11-28 14:17:00,33.7,26.6,31.15,North,355,0.0,0.0,75,0.00,,,0.00,153.00,VWS V14.00,2013-11-28 21:17:00,
2013-11-28 14:18:00,33.7,26.6,31.15,North,355,0.0,0.0,75,0.00,,,0.00,153.00,VWS V14.00,2013-11-28 21:18:00,
2013-11-28 14:19:00,33.7,26.6,31.15,North,355,0.0,0.0,75,0.00,,,0.00,165.00,VWS V14.00,2013-11-28 21:19:00,
2013-11-28 14:20:00,33.7,26.6,31.15,North,355,0.0,0.0,75,0.00,,,0.00,169.00,VWS V14.00,2013-11-28 21:20:00,
2013-11-28 14:21:00,33.7,26.6,31.15,North,355,0.0,0.0,75,0.00,,,0.00,165.00,VWS V14.00,2013-11-28 21:21:00,
2013-11-28 14:22:00,33.8,26.7,31.15,North,355,0.0,0.0,75,0.00,,,0.00,162.00,VWS V14.00,2013-11-28 21:22:00,
2013-11-28 14:23:00,33.8,26.7,31.15,North,355,0.0,0.0,75,0.00,,,0.00,160.00,VWS V14.00,2013-11-28 21:23:00,
2013-11-28 14:24:00,33.8,26.7,31.15,North,355,0.0,0.0,75,0.00,,,0.00,162.00,VWS V14.00,2013-11-28 21:24:00,
2013-11-28 14:25:00,33.8,26.7,31.15,North,355,0.0,0.0,75,0.00,,,0.00,162.00,VWS V14.00,2013-11-28 21:25:00,
2013-11-28 14:26:00,33.8,26.7,31.15,North,355,0.0,0.0,75,0.00,,,0.00,148.00,VWS V14.00,2013-11-28 21:26:00,
2013-11-28 14:27:00,33.8,26.7,31.15,North,355,0.0,0.0,75,0.00,,,0.00,156.00,VWS V14.00,2013-11-28 21:27:00,
2013-11-28 14:28:00,33.8,26.7,31.15,North,355,0.0,0.0,75,0.00,,,0.00,156.00,VWS V14.00,2013-11-28 21:28:00,
2013-11-28 14:29:00,33.8,26.7,31.15,North,355,0.0,0.0,75,0.00,,,0.00,158.00,VWS V14.00,2013-11-28 21:29:00,
2013-11-28 14:30:00,33.8,26.7,31.15,North,355,0.0,0.0,75,0.00,,,0.00,151.00,VWS V14.00,2013-11-28 21:30:00,
2013-11-28 14:31:00,33.8,26.7,31.15,North,355,0.0,0.0,75,0.00,,,0.00,144.00,VWS V14.00,2013-11-28 21:31:00,
2013-11-28 14:32:00,33.8,26.7,31.15,North,355,0.0,0.0,75,0.00,,,0.00,171.00,VWS V14.00,2013-11-28 21:32:00,
2013-11-28 14:33:00,33.8,26.7,31.15,North,355,0.0,0.0,75,0.00,,,0.00,171.00,VWS V14.00,2013-11-28 21:33:00,
2013-11-28 14:34:00,33.8,26.7,31.15,North,355,0.0,0.0,75,0.00,,,0.00,139.00,VWS V14.00,2013-11-28 21:34:00,
2013-11-28 14:35:00,33.8,26.7,31.15,North,355,0.0,0.0,75,0.00,,,0.00,155.00,VWS V14.00,2013-11-28 21:35:00,
2013-11-28 14:36:00,33.8,26.7,31.15,North,355,0.0,0.0,75,0.00,,,0.00,149.00,VWS V14.00,2013-11-28 21:36:00,
2013-11-28 14:37:00,33.8,26.7,31.14,North,355,0.0,0.0,75,0.00,,,0.00,176.00,VWS V14.00,2013-11-28 21:37:00,
2013-11-28 14:38:00,33.8,26.7,31.15,North,355,0.0,0.0,75,0.00,,,0.00,183.00,VWS V14.00,2013-11-28 21:38:00,
2013-11-28 14:39:00,33.8,26.7,31.15,North,355,0.0,0.0,75,0.00,,,0.00,190.00,VWS V14.00,2013-11-28 21:39:00,
2013-11-28 14:40:00,33.8,26.7,31.14,North,355,0.0,0.0,75,0.00,,,0.00,151.00,VWS V14.00,2013-11-28 21:40:00,
2013-11-28 14:41:00,33.8,26.7,31.14,North,355,0.0,0.0,75,0.00,,,0.00,162.00,VWS V14.00,2013-11-28 21:41:00,
2013-11-28 14:42:00,33.8,26.7,31.14,North,355,0.0,0.0,75,0.00,,,0.00,155.00,VWS V14.00,2013-11-28 21:42:00,
2013-11-28 14:43:00,33.8,26.7,31.14,North,355,0.0,0.0,75,0.00,,,0.00,156.00,VWS V14.00,2013-11-28 21:43:00,
2013-11-28 14:44:00,33.8,26.7,31.14,North,355,0.0,0.0,75,0.00,,,0.00,123.00,VWS V14.00,2013-11-28 21:44:00,
2013-11-28 14:45:00,33.8,26.7,31.14,North,355,0.0,0.0,75,0.00,,,0.00,107.00,VWS V14.00,2013-11-28 21:45:00,
2013-11-28 14:46:00,33.8,26.7,31.14,North,355,0.0,0.0,75,0.00,,,0.00,120.00,VWS V14.00,2013-11-28 21:46:00,
2013-11-28 14:47:00,33.7,26.6,31.14,North,355,0.0,0.0,75,0.00,,,0.00,160.00,VWS V14.00,2013-11-28 21:47:00,
2013-11-28 14:48:00,33.7,26.3,31.14,North,355,0.0,0.0,74,0.00,,,0.00,190.00,VWS V14.00,2013-11-28 21:48:00,
2013-11-28 14:49:00,33.7,26.3,31.14,North,355,0.0,0.0,74,0.00,,,0.00,192.00,VWS V14.00,2013-11-28 21:49:00,
2013-11-28 14:50:00,33.7,26.3,31.14,North,355,0.0,0.0,74,0.00,,,0.00,169.00,VWS V14.00,2013-11-28 21:50:00,
2013-11-28 14:51:00,33.7,26.3,31.14,North,355,0.0,0.0,74,0.00,,,0.00,179.00,VWS V14.00,2013-11-28 21:51:00,
2013-11-28 14:52:00,33.7,26.3,31.14,North,355,0.0,0.0,74,0.00,,,0.00,183.00,VWS V14.00,2013-11-28 21:52:00,
2013-11-28 14:53:00,33.7,26.3,31.15,North,355,0.0,0.0,74,0.00,,,0.00,178.00,VWS V14.00,2013-11-28 21:53:00,
2013-11-28 14:54:00,33.7,26.3,31.14,North,355,0.0,0.0,74,0.00,,,0.00,178.00,VWS V14.00,2013-11-28 21:54:00,
2013-11-28 14:55:00,33.7,26.3,31.14,North,355,0.0,0.0,74,0.00,,,0.00,178.00,VWS V14.00,2013-11-28 21:55:00,
2013-11-28 14:56:00,33.7,26.0,31.14,North,355,0.0,0.0,73,0.00,,,0.00,185.00,VWS V14.00,2013-11-28 21:56:00,
2013-11-28 14:57:00,33.7,26.0,31.14,North,355,0.0,0.0,73,0.00,,,0.00,181.00,VWS V14.00,2013-11-28 21:57:00,
2013-11-28 14:58:00,33.7,26.0,31.14,North,355,0.0,0.0,73,0.00,,,0.00,178.00,VWS V14.00,2013-11-28 21:58:00,
2013-11-28 14:59:00,33.7,26.0,31.14,North,355,0.0,0.0,73,0.00,,,0.00,169.00,VWS V14.00,2013-11-28 21:59:00,
2013-11-28 15:00:00,33.8,26.4,31.14,North,355,0.0,0.0,74,0.00,,,0.00,165.00,VWS V14.00,2013-11-28 22:00:00,
2013-11-28 15:01:00,33.8,26.1,31.15,North,355,0.0,0.0,73,0.00,,,0.00,162.00,VWS V14.00,2013-11-28 22:01:00,
2013-11-28 15:02:00,33.8,26.1,31.14,North,355,0.0,0.0,73,0.00,,,0.00,113.00,VWS V14.00,2013-11-28 22:02:00,
2013-11-28 15:03:00,33.8,26.1,31.14,North,355,0.0,0.0,73,0.00,,,0.00,79.00,VWS V14.00,2013-11-28 22:03:00,
2013-11-28 15:04:00,33.8,26.1,31.14,North,355,0.0,0.0,73,0.00,,,0.00,81.00,VWS V14.00,2013-11-28 22:04:00,
2013-11-28 15:05:00,33.9,26.2,31.14,North,355,0.0,0.0,73,0.00,,,0.00,74.00,VWS V14.00,2013-11-28 22:05:00,
2013-11-28 15:06:00,33.9,26.2,31.14,North,355,0.0,0.0,73,0.00,,,0.00,60.00,VWS V14.00,2013-11-28 22:06:00,
2013-11-28 15:07:00,33.9,25.8,31.14,North,355,0.0,0.0,72,0.00,,,0.00,51.00,VWS V14.00,2013-11-28 22:07:00,
2013-11-28 15:08:00,33.9,25.8,31.14,North,355,0.0,0.0,72,0.00,,,0.00,40.00,VWS V14.00,2013-11-28 22:08:00,
2013-11-28 15:09:00,33.9,26.2,31.14,North,355,0.0,0.0,73,0.00,,,0.00,35.00,VWS V14.00,2013-11-28 22:09:00,
2013-11-28 15:10:00,34.0,26.3,31.14,North,355,0.0,0.0,73,0.00,,,0.00,33.00,VWS V14.00,2013-11-28 22:10:00,
2013-11-28 15:11:00,34.0,25.9,31.14,North,355,0.0,0.0,72,0.00,,,0.00,39.00,VWS V14.00,2013-11-28 22:11:00,
2013-11-28 15:12:00,34.0,25.9,31.14,North,355,0.0,0.0,72,0.00,,,0.00,42.00,VWS V14.00,2013-11-28 22:12:00,
2013-11-28 15:13:00,34.1,26.0,31.14,North,355,0.0,0.0,72,0.00,,,0.00,37.00,VWS V14.00,2013-11-28 22:13:00,
2013-11-28 15:14:00,34.1,26.0,31.14,North,355,0.0,0.0,72,0.00,,,0.00,32.00,VWS V14.00,2013-11-28 22:14:00,
2013-11-28 15:15:00,34.1,26.0,31.14,North,355,0.0,0.0,72,0.00,,,0.00,32.00,VWS V14.00,2013-11-28 22:15:00,
2013-11-28 15:16:00,34.1,26.0,31.14,North,355,0.0,0.0,72,0.00,,,0.00,32.00,VWS V14.00,2013-11-28 22:16:00,
2013-11-28 15:17:00,34.1,26.0,31.14,North,355,0.0,0.0,72,0.00,,,0.00,33.00,VWS V14.00,2013-11-28 22:17:00,
2013-11-28 15:18:00,34.2,26.1,31.14,North,355,0.0,0.0,72,0.00,,,0.00,32.00,VWS V14.00,2013-11-28 22:18:00,
2013-11-28 15:19:00,34.1,26.0,31.14,North,355,0.0,0.0,72,0.00,,,0.00,28.00,VWS V14.00,2013-11-28 22:19:00,
2013-11-28 15:20:00,34.2,26.1,31.14,North,355,0.0,0.0,72,0.00,,,0.00,30.00,VWS V14.00,2013-11-28 22:20:00,
2013-11-28 15:21:00,34.2,26.1,31.14,North,355,0.0,0.0,72,0.00,,,0.00,28.00,VWS V14.00,2013-11-28 22:21:00,
2013-11-28 15:22:00,34.2,26.1,31.14,North,355,0.0,0.0,72,0.00,,,0.00,32.00,VWS V14.00,2013-11-28 22:22:00,
2013-11-28 15:23:00,34.2,25.8,31.14,North,355,0.0,0.0,71,0.00,,,0.00,35.00,VWS V14.00,2013-11-28 22:23:00,
2013-11-28 15:24:00,34.2,25.8,31.14,North,355,0.0,0.0,71,0.00,,,0.00,35.00,VWS V14.00,2013-11-28 22:24:00,
2013-11-28 15:25:00,34.2,25.8,31.14,North,355,0.0,0.0,71,0.00,,,0.00,35.00,VWS V14.00,2013-11-28 22:25:00,
2013-11-28 15:26:00,34.2,25.8,31.14,North,355,0.0,0.0,71,0.00,,,0.00,42.00,VWS V14.00,2013-11-28 22:26:00,
2013-11-28 15:27:00,34.2,25.8,31.14,North,355,0.0,0.0,71,0.00,,,0.00,44.00,VWS V14.00,2013-11-28 22:27:00,
2013-11-28 15:28:00,34.1,25.7,31.14,North,355,0.0,0.0,71,0.00,,,0.00,46.00,VWS V14.00,2013-11-28 22:28:00,
2013-11-28 15:29:00,34.2,25.8,31.14,North,355,0.0,0.0,71,0.00,,,0.00,53.00,VWS V14.00,2013-11-28 22:29:00,
2013-11-28 15:30:00,34.2,25.8,31.14,North,355,0.0,0.0,71,0.00,,,0.00,54.00,VWS V14.00,2013-11-28 22:30:00,
2013-11-28 15:31:00,34.2,25.8,31.14,North,355,0.0,0.0,71,0.00,,,0.00,35.00,VWS V14.00,2013-11-28 22:31:00,
2013-11-28 15:32:00,34.2,26.1,31.14,North,355,0.0,0.0,72,0.00,,,0.00,32.00,VWS V14.00,2013-11-28 22:32:00,
2013-11-28 15:33:00,34.2,26.1,31.14,North,355,0.0,0.0,72,0.00,,,0.00,33.00,VWS V14.00,2013-11-28 22:33:00,
2013-11-28 15:34:00,34.2,26.1,31.14,North,355,0.0,0.0,72,0.00,,,0.00,40.00,VWS V14.00,2013-11-28 22:34:00,
2013-11-28 15:35:00,34.1,26.0,31.14,North,355,0.0,0.0,72,0.00,,,0.00,53.00,VWS V14.00,2013-11-28 22:35:00,
2013-11-28 15:36:00,34.2,25.8,31.14,North,355,0.0,1.0,71,0.00,,,0.00,54.00,VWS V14.00,2013-11-28 22:36:00,
2013-11-28 15:37:00,34.1,25.7,31.14,North,355,0.0,1.0,71,0.00,,,0.00,42.00,VWS V14.00,2013-11-28 22:37:00,
2013-11-28 15:38:00,34.1,25.7,31.14,North,355,0.0,1.0,71,0.00,,,0.00,42.00,VWS V14.00,2013-11-28 22:38:00,
2013-11-28 15:39:00,34.1,25.7,31.14,North,355,0.0,1.0,71,0.00,,,0.00,32.00,VWS V14.00,2013-11-28 22:39:00,
2013-11-28 15:40:00,34.1,25.7,31.14,North,355,0.0,1.0,71,0.00,,,0.00,26.00,VWS V14.00,2013-11-28 22:40:00,
2013-11-28 15:41:00,34.1,25.7,31.14,North,355,0.0,1.0,71,0.00,,,0.00,25.00,VWS V14.00,2013-11-28 22:41:00,
2013-11-28 15:42:00,34.1,25.7,31.14,North,355,0.0,1.0,71,0.00,,,0.00,25.00,VWS V14.00,2013-11-28 22:42:00,
2013-11-28 15:43:00,34.1,25.7,31.14,North,355,0.0,1.0,71,0.00,,,0.00,25.00,VWS V14.00,2013-11-28 22:43:00,
2013-11-28 15:44:00,34.1,25.7,31.14,North,355,0.0,1.0,71,0.00,,,0.00,23.00,VWS V14.00,2013-11-28 22:44:00,
2013-11-28 15:45:00,34.1,25.7,31.14,North,355,0.0,1.0,71,0.00,,,0.00,25.00,VWS V14.00,2013-11-28 22:45:00,
2013-11-28 15:46:00,34.1,25.7,31.14,North,355,0.0,0.0,71,0.00,,,0.00,33.00,VWS V14.00,2013-11-28 22:46:00,
2013-11-28 15:47:00,34.0,25.6,31.14,North,355,0.0,0.0,71,0.00,,,0.00,42.00,VWS V14.00,2013-11-28 22:47:00,
2013-11-28 15:48:00,34.0,25.6,31.14,North,355,0.0,0.0,71,0.00,,,0.00,40.00,VWS V14.00,2013-11-28 22:48:00,
2013-11-28 15:49:00,34.0,25.6,31.14,North,355,0.0,0.0,71,0.00,,,0.00,47.00,VWS V14.00,2013-11-28 22:49:00,
2013-11-28 15:50:00,34.0,25.6,31.14,North,355,0.0,0.0,71,0.00,,,0.00,47.00,VWS V14.00,2013-11-28 22:50:00,
2013-11-28 15:51:00,34.0,25.6,31.14,North,355,0.0,0.0,71,0.00,,,0.00,35.00,VWS V14.00,2013-11-28 22:51:00,
2013-11-28 15:52:00,34.0,25.6,31.14,North,355,0.0,0.0,71,0.00,,,0.00,25.00,VWS V14.00,2013-11-28 22:52:00,
2013-11-28 15:53:00,34.0,25.6,31.14,North,355,0.0,0.0,71,0.00,,,0.00,23.00,VWS V14.00,2013-11-28 22:53:00,
2013-11-28 15:54:00,33.9,25.5,31.14,North,355,0.0,0.0,71,0.00,,,0.00,19.00,VWS V14.00,2013-11-28 22:54:00,
2013-11-28 15:55:00,33.9,25.5,31.14,North,355,0.0,0.0,71,0.00,,,0.00,19.00,VWS V14.00,2013-11-28 22:55:00,
2013-11-28 15:56:00,33.9,25.5,31.14,North,355,0.0,0.0,71,0.00,,,0.00,19.00,VWS V14.00,2013-11-28 22:56:00,
2013-11-28 15:57:00,33.9,25.5,31.14,North,355,0.0,0.0,71,0.00,,,0.00,19.00,VWS V14.00,2013-11-28 22:57:00,
2013-11-28 15:58:00,33.9,25.5,31.14,North,355,0.0,0.0,71,0.00,,,0.00,19.00,VWS V14.00,2013-11-28 22:58:00,
2013-11-28 15:59:00,33.9,25.5,31.14,North,355,0.0,0.0,71,0.00,,,0.00,19.00,VWS V14.00,2013-11-28 22:59:00,
2013-11-28 16:00:00,33.9,25.5,31.14,North,355,0.0,0.0,71,0.00,,,0.00,19.00,VWS V14.00,2013-11-28 23:00:00,
2013-11-28 16:01:00,33.9,25.5,31.15,North,355,0.0,0.0,71,0.00,,,0.00,19.00,VWS V14.00,2013-11-28 23:01:00,
2013-11-28 16:02:00,33.9,25.5,31.15,North,355,0.0,0.0,71,0.00,,,0.00,19.00,VWS V14.00,2013-11-28 23:02:00,
2013-11-28 16:03:00,33.8,25.4,31.15,North,355,0.0,0.0,71,0.00,,,0.00,18.00,VWS V14.00,2013-11-28 23:03:00,
2013-11-28 16:04:00,33.8,25.4,31.15,North,355,0.0,0.0,71,0.00,,,0.00,18.00,VWS V14.00,2013-11-28 23:04:00,
2013-11-28 16:05:00,33.8,25.4,31.15,North,355,0.0,0.0,71,0.00,,,0.00,18.00,VWS V14.00,2013-11-28 23:05:00,
2013-11-28 16:06:00,33.8,25.4,31.15,North,355,0.0,0.0,71,0.00,,,0.00,18.00,VWS V14.00,2013-11-28 23:06:00,
2013-11-28 16:07:00,33.7,25.3,31.15,North,355,0.0,0.0,71,0.00,,,0.00,16.00,VWS V14.00,2013-11-28 23:07:00,
2013-11-28 16:08:00,33.7,25.3,31.15,North,355,0.0,0.0,71,0.00,,,0.00,16.00,VWS V14.00,2013-11-28 23:08:00,
2013-11-28 16:09:00,33.7,25.3,31.15,North,355,0.0,0.0,71,0.00,,,0.00,14.00,VWS V14.00,2013-11-28 23:09:00,
2013-11-28 16:10:00,33.7,25.3,31.15,North,355,0.0,0.0,71,0.00,,,0.00,14.00,VWS V14.00,2013-11-28 23:10:00,
2013-11-28 16:11:00,33.7,25.3,31.15,North,355,0.0,0.0,71,0.00,,,0.00,14.00,VWS V14.00,2013-11-28 23:11:00,
2013-11-28 16:12:00,33.6,25.2,31.15,North,355,0.0,0.0,71,0.00,,,0.00,14.00,VWS V14.00,2013-11-28 23:12:00,
2013-11-28 16:13:00,33.6,25.2,31.15,North,355,0.0,0.0,71,0.00,,,0.00,14.00,VWS V14.00,2013-11-28 23:13:00,
2013-11-28 16:14:00,33.6,25.2,31.15,North,355,0.0,0.0,71,0.00,,,0.00,14.00,VWS V14.00,2013-11-28 23:14:00,
2013-11-28 16:15:00,33.5,25.1,31.15,North,355,0.0,0.0,71,0.00,,,0.00,12.00,VWS V14.00,2013-11-28 23:15:00,
2013-11-28 16:16:00,33.5,25.1,31.15,North,355,0.0,0.0,71,0.00,,,0.00,12.00,VWS V14.00,2013-11-28 23:16:00,
2013-11-28 16:17:00,33.5,25.1,31.15,North,355,0.0,0.0,71,0.00,,,0.00,12.00,VWS V14.00,2013-11-28 23:17:00,
2013-11-28 16:18:00,33.5,25.5,31.15,North,355,0.0,0.0,72,0.00,,,0.00,12.00,VWS V14.00,2013-11-28 23:18:00,
2013-11-28 16:19:00,33.5,25.5,31.15,North,355,0.0,0.0,72,0.00,,,0.00,12.00,VWS V14.00,2013-11-28 23:19:00,
2013-11-28 16:20:00,33.4,25.4,31.15,North,355,0.0,0.0,72,0.00,,,0.00,12.00,VWS V14.00,2013-11-28 23:20:00,
2013-11-28 16:21:00,33.4,25.4,31.15,North,355,0.0,0.0,72,0.00,,,0.00,12.00,VWS V14.00,2013-11-28 23:21:00,
2013-11-28 16:22:00,33.4,25.4,31.15,North,355,0.0,0.0,72,0.00,,,0.00,12.00,VWS V14.00,2013-11-28 23:22:00,
2013-11-28 16:23:00,33.4,25.4,31.15,North,355,0.0,0.0,72,0.00,,,0.00,12.00,VWS V14.00,2013-11-28 23:23:00,
2013-11-28 16:24:00,33.3,25.3,31.15,North,355,0.0,0.0,72,0.00,,,0.00,11.00,VWS V14.00,2013-11-28 23:24:00,
2013-11-28 16:25:00,33.3,25.3,31.15,North,355,0.0,0.0,72,0.00,,,0.00,11.00,VWS V14.00,2013-11-28 23:25:00,
2013-11-28 16:26:00,33.3,25.3,31.15,North,355,0.0,0.0,72,0.00,,,0.00,11.00,VWS V14.00,2013-11-28 23:26:00,
2013-11-28 16:27:00,33.2,25.2,31.15,North,355,0.0,0.0,72,0.00,,,0.00,11.00,VWS V14.00,2013-11-28 23:27:00,
2013-11-28 16:28:00,33.2,25.2,31.15,North,355,0.0,0.0,72,0.00,,,0.00,11.00,VWS V14.00,2013-11-28 23:28:00,
2013-11-28 16:29:00,33.1,25.1,31.15,North,355,0.0,0.0,72,0.00,,,0.00,9.00,VWS V14.00,2013-11-28 23:29:00,
2013-11-28 16:30:00,33.0,25.0,31.15,North,355,0.0,0.0,72,0.00,,,0.00,9.00,VWS V14.00,2013-11-28 23:30:00,
2013-11-28 16:31:00,32.9,24.9,31.15,North,355,0.0,0.0,72,0.00,,,0.00,7.00,VWS V14.00,2013-11-28 23:31:00,
2013-11-28 16:32:00,32.8,24.8,31.15,North,355,0.0,0.0,72,0.00,,,0.00,7.00,VWS V14.00,2013-11-28 23:32:00,
2013-11-28 16:33:00,32.8,24.8,31.16,North,355,0.0,0.0,72,0.00,,,0.00,7.00,VWS V14.00,2013-11-28 23:33:00,
2013-11-28 16:34:00,32.7,24.7,31.15,North,355,0.0,0.0,72,0.00,,,0.00,7.00,VWS V14.00,2013-11-28 23:34:00,
2013-11-28 16:35:00,32.6,24.6,31.15,North,355,0.0,0.0,72,0.00,,,0.00,5.00,VWS V14.00,2013-11-28 23:35:00,
2013-11-28 16:36:00,32.6,24.9,31.15,North,355,0.0,0.0,73,0.00,,,0.00,5.00,VWS V14.00,2013-11-28 23:36:00,
2013-11-28 16:37:00,32.6,24.9,31.15,North,355,0.0,0.0,73,0.00,,,0.00,5.00,VWS V14.00,2013-11-28 23:37:00,
2013-11-28 16:38:00,32.5,24.8,31.15,North,355,0.0,0.0,73,0.00,,,0.00,5.00,VWS V14.00,2013-11-28 23:38:00,
2013-11-28 16:39:00,32.4,24.7,31.16,North,355,0.0,0.0,73,0.00,,,0.00,5.00,VWS V14.00,2013-11-28 23:39:00,
2013-11-28 16:40:00,32.4,24.7,31.16,North,355,0.0,0.0,73,0.00,,,0.00,0.00,VWS V14.00,2013-11-28 23:40:00,
2013-11-28 16:41:00,32.4,24.7,31.17,North,355,0.0,0.0,73,0.00,,,0.00,0.00,VWS V14.00,2013-11-28 23:41:00,
2013-11-28 16:42:00,32.3,24.6,31.16,North,355,0.0,0.0,73,0.00,,,0.00,0.00,VWS V14.00,2013-11-28 23:42:00,
2013-11-28 16:43:00,32.2,24.5,31.17,North,355,0.0,0.0,73,0.00,,,0.00,0.00,VWS V14.00,2013-11-28 23:43:00,
2013-11-28 16:44:00,32.2,24.5,31.17,North,355,0.0,0.0,73,0.00,,,0.00,0.00,VWS V14.00,2013-11-28 23:44:00,
2013-11-28 16:45:00,32.1,24.8,31.17,North,355,0.0,0.0,74,0.00,,,0.00,0.00,VWS V14.00,2013-11-28 23:45:00,
2013-11-28 16:46:00,32.1,24.8,31.17,North,355,0.0,0.0,74,0.00,,,0.00,0.00,VWS V14.00,2013-11-28 23:46:00,
2013-11-28 16:47:00,32.1,24.8,31.17,North,355,0.0,0.0,74,0.00,,,0.00,0.00,VWS V14.00,2013-11-28 23:47:00,
2013-11-28 16:48:00,32.0,24.7,31.17,North,355,0.0,0.0,74,0.00,,,0.00,0.00,VWS V14.00,2013-11-28 23:48:00,
2013-11-28 16:49:00,32.0,24.7,31.17,North,355,0.0,0.0,74,0.00,,,0.00,0.00,VWS V14.00,2013-11-28 23:49:00,
2013-11-28 16:50:00,31.9,24.6,31.17,North,355,0.0,0.0,74,0.00,,,0.00,0.00,VWS V14.00,2013-11-28 23:50:00,
2013-11-28 16:51:00,31.9,24.6,31.17,North,355,0.0,0.0,74,0.00,,,0.00,0.00,VWS V14.00,2013-11-28 23:51:00,
2013-11-28 16:52:00,31.8,24.5,31.17,North,355,0.0,0.0,74,0.00,,,0.00,0.00,VWS V14.00,2013-11-28 23:52:00,
2013-11-28 16:53:00,31.8,24.5,31.17,North,355,0.0,0.0,74,0.00,,,0.00,0.00,VWS V14.00,2013-11-28 23:53:00,
2013-11-28 16:54:00,31.8,24.5,31.17,North,355,0.0,0.0,74,0.00,,,0.00,0.00,VWS V14.00,2013-11-28 23:54:00,
2013-11-28 16:55:00,31.7,24.4,31.17,North,355,0.0,0.0,74,0.00,,,0.00,0.00,VWS V14.00,2013-11-28 23:55:00,
2013-11-28 16:56:00,31.7,24.4,31.17,North,355,0.0,0.0,74,0.00,,,0.00,0.00,VWS V14.00,2013-11-28 23:56:00,
2013-11-28 16:57:00,31.6,24.3,31.17,North,355,0.0,0.0,74,0.00,,,0.00,0.00,VWS V14.00,2013-11-28 23:57:00,
2013-11-28 16:58:00,31.6,24.3,31.17,North,355,0.0,0.0,74,0.00,,,0.00,0.00,VWS V14.00,2013-11-28 23:58:00,
2013-11-28 16:59:00,31.6,24.3,31.17,North,355,0.0,0.0,74,0.00,,,0.00,0.00,VWS V14.00,2013-11-28 23:59:00,
2013-11-28 17:00:00,31.5,24.2,31.17,North,355,0.0,0.0,74,0.00,,,0.00,0.00,VWS V14.00,2013-11-29 00:00:00,
2013-11-28 17:01:00,31.5,24.5,31.17,North,355,0.0,0.0,75,0.00,,,0.00,0.00,VWS V14.00,2013-11-29 00:01:00,
2013-11-28 17:02:00,31.5,24.5,31.17,North,355,0.0,0.0,75,0.00,,,0.00,0.00,VWS V14.00,2013-11-29 00:02:00,
2013-11-28 17:03:00,31.4,24.4,31.17,North,355,0.0,0.0,75,0.00,,,0.00,0.00,VWS V14.00,2013-11-29 00:03:00,
2013-11-28 17:04:00,31.4,24.4,31.18,North,355,0.0,0.0,75,0.00,,,0.00,0.00,VWS V14.00,2013-11-29 00:04:00,
2013-11-28 17:05:00,31.3,24.3,31.18,North,355,0.0,0.0,75,0.00,,,0.00,0.00,VWS V14.00,2013-11-29 00:05:00,
2013-11-28 17:06:00,31.3,24.3,31.18,North,355,0.0,0.0,75,0.00,,,0.00,0.00,VWS V14.00,2013-11-29 00:06:00,
2013-11-28 17:07:00,31.2,24.2,31.18,North,355,0.0,0.0,75,0.00,,,0.00,0.00,VWS V14.00,2013-11-29 00:07:00,
2013-11-28 17:08:00,31.2,24.2,31.18,North,355,0.0,0.0,75,0.00,,,0.00,0.00,VWS V14.00,2013-11-29 00:08:00,
2013-11-28 17:09:00,31.2,24.2,31.18,North,355,0.0,0.0,75,0.00,,,0.00,0.00,VWS V14.00,2013-11-29 00:09:00,
2013-11-28 17:10:00,31.2,24.2,31.18,North,355,0.0,0.0,75,0.00,,,0.00,0.00,VWS V14.00,2013-11-29 00:10:00,
2013-11-28 17:11:00,31.1,24.1,31.19,North,355,0.0,0.0,75,0.00,,,0.00,0.00,VWS V14.00,2013-11-29 00:11:00,
2013-11-28 17:12:00,31.1,24.1,31.18,North,355,0.0,0.0,75,0.00,,,0.00,0.00,VWS V14.00,2013-11-29 00:12:00,
2013-11-28 17:13:00,31.0,24.0,31.18,North,355,0.0,0.0,75,0.00,,,0.00,0.00,VWS V14.00,2013-11-29 00:13:00,
2013-11-28 17:14:00,31.0,24.3,31.18,North,355,0.0,0.0,76,0.00,,,0.00,0.00,VWS V14.00,2013-11-29 00:14:00,
2013-11-28 17:15:00,31.0,24.3,31.18,North,355,0.0,0.0,76,0.00,,,0.00,0.00,VWS V14.00,2013-11-29 00:15:00,
2013-11-28 17:16:00,30.9,24.2,31.19,North,355,0.0,0.0,76,0.00,,,0.00,0.00,VWS V14.00,2013-11-29 00:16:00,
2013-11-28 17:17:00,30.9,24.2,31.19,North,355,0.0,0.0,76,0.00,,,0.00,0.00,VWS V14.00,2013-11-29 00:17:00,
2013-11-28 17:18:00,30.8,24.1,31.19,North,355,0.0,0.0,76,0.00,,,0.00,0.00,VWS V14.00,2013-11-29 00:18:00,
2013-11-28 17:19:00,30.8,24.1,31.19,North,355,0.0,0.0,76,0.00,,,0.00,0.00,VWS V14.00,2013-11-29 00:19:00,
2013-11-28 17:20:00,30.7,24.0,31.19,North,355,0.0,0.0,76,0.00,,,0.00,0.00,VWS V14.00,2013-11-29 00:20:00,
2013-11-28 17:21:00,30.7,24.0,31.19,North,355,0.0,0.0,76,0.00,,,0.00,0.00,VWS V14.00,2013-11-29 00:21:00,
2013-11-28 17:22:00,30.7,24.0,31.19,North,355,0.0,0.0,76,0.00,,,0.00,0.00,VWS V14.00,2013-11-29 00:22:00,
2013-11-28 17:23:00,30.6,24.3,31.19,North,355,0.0,0.0,77,0.00,,,0.00,0.00,VWS V14.00,2013-11-29 00:23:00,
2013-11-28 17:24:00,30.6,24.3,31.19,North,355,0.0,0.0,77,0.00,,,0.00,0.00,VWS V14.00,2013-11-29 00:24:00,
2013-11-28 17:25:00,30.5,24.2,31.19,North,355,0.0,0.0,77,0.00,,,0.00,0.00,VWS V14.00,2013-11-29 00:25:00,
2013-11-28 17:26:00,30.5,24.2,31.19,North,355,0.0,0.0,77,0.00,,,0.00,0.00,VWS V14.00,2013-11-29 00:26:00,
2013-11-28 17:27:00,30.5,24.2,31.19,North,355,0.0,0.0,77,0.00,,,0.00,0.00,VWS V14.00,2013-11-29 00:27:00,
2013-11-28 17:28:00,30.4,24.1,31.19,North,355,0.0,0.0,77,0.00,,,0.00,0.00,VWS V14.00,2013-11-29 00:28:00,
2013-11-28 17:29:00,30.4,24.1,31.19,North,355,0.0,0.0,77,0.00,,,0.00,0.00,VWS V14.00,2013-11-29 00:29:00,
2013-11-28 17:30:00,30.3,24.0,31.19,North,355,0.0,0.0,77,0.00,,,0.00,0.00,VWS V14.00,2013-11-29 00:30:00,
2013-11-28 17:31:00,30.2,23.9,31.19,North,355,0.0,0.0,77,0.00,,,0.00,0.00,VWS V14.00,2013-11-29 00:31:00,
2013-11-28 17:32:00,30.2,23.9,31.19,North,355,0.0,0.0,77,0.00,,,0.00,0.00,VWS V14.00,2013-11-29 00:32:00,
2013-11-28 17:33:00,30.1,23.8,31.20,North,355,0.0,0.0,77,0.00,,,0.00,0.00,VWS V14.00,2013-11-29 00:33:00,
2013-11-28 17:34:00,30.1,23.5,31.20,North,355,0.0,0.0,76,0.00,,,0.00,0.00,VWS V14.00,2013-11-29 00:34:00,
2013-11-28 17:35:00,30.1,23.5,31.20,North,355,0.0,0.0,76,0.00,,,0.00,0.00,VWS V14.00,2013-11-29 00:35:00,
2013-11-28 17:36:00,30.0,23.4,31.20,North,355,0.0,0.0,76,0.00,,,0.00,0.00,VWS V14.00,2013-11-29 00:36:00,
2013-11-28 17:37:00,30.0,23.7,31.20,North,355,0.0,0.0,77,0.00,,,0.00,0.00,VWS V14.00,2013-11-29 00:37:00,
2013-11-28 17:38:00,29.9,23.6,31.20,North,355,0.0,0.0,77,0.00,,,0.00,0.00,VWS V14.00,2013-11-29 00:38:00,
2013-11-28 17:39:00,29.9,23.6,31.20,North,355,0.0,0.0,77,0.00,,,0.00,0.00,VWS V14.00,2013-11-29 00:39:00,
2013-11-28 17:40:00,29.8,23.5,31.20,North,355,0.0,0.0,77,0.00,,,0.00,0.00,VWS V14.00,2013-11-29 00:40:00,
2013-11-28 17:41:00,29.7,23.4,31.20,North,355,0.0,0.0,77,0.00,,,0.00,0.00,VWS V14.00,2013-11-29 00:41:00,
2013-11-28 17:42:00,29.7,23.4,31.20,North,355,0.0,0.0,77,0.00,,,0.00,0.00,VWS V14.00,2013-11-29 00:42:00,
2013-11-28 17:43:00,29.7,23.4,31.20,North,355,0.0,0.0,77,0.00,,,0.00,0.00,VWS V14.00,2013-11-29 00:43:00,
2013-11-28 17:44:00,29.6,23.3,31.20,North,355,0.0,0.0,77,0.00,,,0.00,0.00,VWS V14.00,2013-11-29 00:44:00,
2013-11-28 17:45:00,29.6,23.3,31.20,North,355,0.0,0.0,77,0.00,,,0.00,0.00,VWS V14.00,2013-11-29 00:45:00,
2013-11-28 17:46:00,29.6,23.3,31.20,North,355,0.0,0.0,77,0.00,,,0.00,0.00,VWS V14.00,2013-11-29 00:46:00,
2013-11-28 17:47:00,29.5,23.2,31.20,North,355,0.0,0.0,77,0.00,,,0.00,0.00,VWS V14.00,2013-11-29 00:47:00,
2013-11-28 17:48:00,29.5,23.2,31.20,North,355,0.0,0.0,77,0.00,,,0.00,0.00,VWS V14.00,2013-11-29 00:48:00,
2013-11-28 17:49:00,29.4,23.4,31.20,North,355,0.0,0.0,78,0.00,,,0.00,0.00,VWS V14.00,2013-11-29 00:49:00,
2013-11-28 17:50:00,29.4,23.4,31.21,North,355,0.0,0.0,78,0.00,,,0.00,0.00,VWS V14.00,2013-11-29 00:50:00,
2013-11-28 17:51:00,29.4,23.4,31.21,North,355,0.0,0.0,78,0.00,,,0.00,0.00,VWS V14.00,2013-11-29 00:51:00,
2013-11-28 17:52:00,29.3,23.3,31.21,North,355,0.0,0.0,78,0.00,,,0.00,0.00,VWS V14.00,2013-11-29 00:52:00,
2013-11-28 17:53:00,29.3,23.3,31.21,North,355,0.0,0.0,78,0.00,,,0.00,0.00,VWS V14.00,2013-11-29 00:53:00,
2013-11-28 17:54:00,29.3,23.3,31.21,North,355,0.0,0.0,78,0.00,,,0.00,0.00,VWS V14.00,2013-11-29 00:54:00,
2013-11-28 17:55:00,29.3,23.3,31.21,North,355,0.0,0.0,78,0.00,,,0.00,0.00,VWS V14.00,2013-11-29 00:55:00,
2013-11-28 17:56:00,29.2,23.2,31.21,North,355,0.0,0.0,78,0.00,,,0.00,0.00,VWS V14.00,2013-11-29 00:56:00,
2013-11-28 17:57:00,29.2,23.5,31.22,North,355,0.0,0.0,79,0.00,,,0.00,0.00,VWS V14.00,2013-11-29 00:57:00,
2013-11-28 17:58:00,29.2,23.5,31.22,North,355,0.0,0.0,79,0.00,,,0.00,0.00,VWS V14.00,2013-11-29 00:58:00,
2013-11-28 17:59:00,29.2,23.5,31.22,North,355,0.0,0.0,79,0.00,,,0.00,0.00,VWS V14.00,2013-11-29 00:59:00,
2013-11-28 18:00:00,29.2,23.5,31.22,North,355,0.0,0.0,79,0.00,,,0.00,0.00,VWS V14.00,2013-11-29 01:00:00,
2013-11-28 18:01:00,29.1,23.4,31.22,North,355,0.0,0.0,79,0.00,,,0.00,0.00,VWS V14.00,2013-11-29 01:01:00,
2013-11-28 18:02:00,29.1,23.4,31.22,North,355,0.0,0.0,79,0.00,,,0.00,0.00,VWS V14.00,2013-11-29 01:02:00,
2013-11-28 18:03:00,29.0,23.3,31.22,North,355,0.0,0.0,79,0.00,,,0.00,0.00,VWS V14.00,2013-11-29 01:03:00,
2013-11-28 18:04:00,29.0,23.3,31.22,North,355,0.0,0.0,79,0.00,,,0.00,0.00,VWS V14.00,2013-11-29 01:04:00,
2013-11-28 18:05:00,29.0,23.3,31.22,North,355,0.0,0.0,79,0.00,,,0.00,0.00,VWS V14.00,2013-11-29 01:05:00,
2013-11-28 18:06:00,28.9,23.2,31.22,North,355,0.0,0.0,79,0.00,,,0.00,0.00,VWS V14.00,2013-11-29 01:06:00,
2013-11-28 18:07:00,28.9,23.2,31.22,North,355,0.0,0.0,79,0.00,,,0.00,0.00,VWS V14.00,2013-11-29 01:07:00,
2013-11-28 18:08:00,28.9,23.2,31.22,North,355,0.0,0.0,79,0.00,,,0.00,0.00,VWS V14.00,2013-11-29 01:08:00,
2013-11-28 18:09:00,28.8,23.1,31.22,North,355,0.0,0.0,79,0.00,,,0.00,0.00,VWS V14.00,2013-11-29 01:09:00,
2013-11-28 18:10:00,28.8,23.1,31.22,North,355,0.0,0.0,79,0.00,,,0.00,0.00,VWS V14.00,2013-11-29 01:10:00,
2013-11-28 18:11:00,28.8,22.8,31.22,North,355,0.0,0.0,78,0.00,,,0.00,0.00,VWS V14.00,2013-11-29 01:11:00,
2013-11-28 18:12:00,28.7,23.0,31.22,North,355,0.0,0.0,79,0.00,,,0.00,0.00,VWS V14.00,2013-11-29 01:12:00,
2013-11-28 18:13:00,28.7,23.0,31.22,North,355,0.0,0.0,79,0.00,,,0.00,0.00,VWS V14.00,2013-11-29 01:13:00,
2013-11-28 18:14:00,28.7,23.0,31.22,North,355,0.0,0.0,79,0.00,,,0.00,0.00,VWS V14.00,2013-11-29 01:14:00,
2013-11-28 18:15:00,28.7,23.0,31.22,North,355,0.0,0.0,79,0.00,,,0.00,0.00,VWS V14.00,2013-11-29 01:15:00,
2013-11-28 18:16:00,28.7,23.3,31.22,North,355,0.0,0.0,80,0.00,,,0.00,0.00,VWS V14.00,2013-11-29 01:16:00,
2013-11-28 18:17:00,28.7,23.3,31.22,North,355,0.0,0.0,80,0.00,,,0.00,0.00,VWS V14.00,2013-11-29 01:17:00,
2013-11-28 18:18:00,28.6,23.2,31.22,North,355,0.0,0.0,80,0.00,,,0.00,0.00,VWS V14.00,2013-11-29 01:18:00,
2013-11-28 18:19:00,28.6,23.2,31.22,North,355,0.0,0.0,80,0.00,,,0.00,0.00,VWS V14.00,2013-11-29 01:19:00,
2013-11-28 18:20:00,28.6,23.2,31.22,North,355,0.0,0.0,80,0.00,,,0.00,0.00,VWS V14.00,2013-11-29 01:20:00,
2013-11-28 18:21:00,28.5,23.1,31.22,North,355,0.0,0.0,80,0.00,,,0.00,0.00,VWS V14.00,2013-11-29 01:21:00,
2013-11-28 18:22:00,28.5,23.1,31.22,North,355,0.0,0.0,80,0.00,,,0.00,0.00,VWS V14.00,2013-11-29 01:22:00,
2013-11-28 18:23:00,28.5,23.1,31.22,North,355,0.0,0.0,80,0.00,,,0.00,0.00,VWS V14.00,2013-11-29 01:23:00,
2013-11-28 18:24:00,28.5,23.1,31.22,North,355,0.0,0.0,80,0.00,,,0.00,0.00,VWS V14.00,2013-11-29 01:24:00,
2013-11-28 18:25:00,28.4,23.0,31.22,North,355,0.0,0.0,80,0.00,,,0.00,0.00,VWS V14.00,2013-11-29 01:25:00,
2013-11-28 18:26:00,28.4,23.0,31.22,North,355,0.0,0.0,80,0.00,,,0.00,0.00,VWS V14.00,2013-11-29 01:26:00,
2013-11-28 18:27:00,28.4,23.0,31.22,North,355,0.0,0.0,80,0.00,,,0.00,0.00,VWS V14.00,2013-11-29 01:27:00,
2013-11-28 18:28:00,28.4,23.0,31.23,North,355,0.0,0.0,80,0.00,,,0.00,0.00,VWS V14.00,2013-11-29 01:28:00,
2013-11-28 18:29:00,28.3,22.9,31.22,North,355,0.0,0.0,80,0.00,,,0.00,0.00,VWS V14.00,2013-11-29 01:29:00,
2013-11-28 18:30:00,28.3,22.9,31.22,North,355,0.0,0.0,80,0.00,,,0.00,0.00,VWS V14.00,2013-11-29 01:30:00,
2013-11-28 18:31:00,28.3,23.2,31.22,North,355,0.0,0.0,81,0.00,,,0.00,0.00,VWS V14.00,2013-11-29 01:31:00,
2013-11-28 18:32:00,28.3,23.2,31.22,North,355,0.0,0.0,81,0.00,,,0.00,0.00,VWS V14.00,2013-11-29 01:32:00,
2013-11-28 18:33:00,28.3,23.2,31.22,North,355,0.0,0.0,81,0.00,,,0.00,0.00,VWS V14.00,2013-11-29 01:33:00,
2013-11-28 18:34:00,28.3,23.2,31.22,North,355,0.0,0.0,81,0.00,,,0.00,0.00,VWS V14.00,2013-11-29 01:34:00,
2013-11-28 18:35:00,28.3,23.2,31.22,North,355,0.0,0.0,81,0.00,,,0.00,0.00,VWS V14.00,2013-11-29 01:35:00,
2013-11-28 18:36:00,28.3,23.2,31.22,North,355,0.0,0.0,81,0.00,,,0.00,0.00,VWS V14.00,2013-11-29 01:36:00,
2013-11-28 18:37:00,28.3,22.9,31.22,North,355,0.0,0.0,80,0.00,,,0.00,0.00,VWS V14.00,2013-11-29 01:37:00,
2013-11-28 18:38:00,28.3,22.9,31.22,North,355,0.0,0.0,80,0.00,,,0.00,0.00,VWS V14.00,2013-11-29 01:38:00,
2013-11-28 18:39:00,28.2,22.8,31.22,North,355,0.0,0.0,80,0.00,,,0.00,0.00,VWS V14.00,2013-11-29 01:39:00,
2013-11-28 18:40:00,28.2,22.8,31.22,North,355,0.0,0.0,80,0.00,,,0.00,0.00,VWS V14.00,2013-11-29 01:40:00,
2013-11-28 18:41:00,28.1,22.4,31.22,North,355,0.0,0.0,79,0.00,,,0.00,0.00,VWS V14.00,2013-11-29 01:41:00,
2013-11-28 18:42:00,28.1,22.4,31.22,North,355,0.0,0.0,79,0.00,,,0.00,0.00,VWS V14.00,2013-11-29 01:42:00,
2013-11-28 18:43:00,28.1,22.4,31.22,North,355,0.0,0.0,79,0.00,,,0.00,0.00,VWS V14.00,2013-11-29 01:43:00,
2013-11-28 18:44:00,28.0,22.3,31.22,North,355,0.0,0.0,79,0.00,,,0.00,0.00,VWS V14.00,2013-11-29 01:44:00,
2013-11-28 18:45:00,28.0,22.3,31.22,North,355,0.0,0.0,79,0.00,,,0.00,0.00,VWS V14.00,2013-11-29 01:45:00,
2013-11-28 18:46:00,27.9,22.2,31.23,North,355,0.0,0.0,79,0.00,,,0.00,0.00,VWS V14.00,2013-11-29 01:46:00,
2013-11-28 18:47:00,27.9,22.2,31.23,North,355,0.0,0.0,79,0.00,,,0.00,0.00,VWS V14.00,2013-11-29 01:47:00,
2013-11-28 18:48:00,27.8,22.1,31.22,North,355,0.0,0.0,79,0.00,,,0.00,0.00,VWS V14.00,2013-11-29 01:48:00,
2013-11-28 18:49:00,27.8,22.1,31.23,North,355,0.0,0.0,79,0.00,,,0.00,0.00,VWS V14.00,2013-11-29 01:49:00,
2013-11-28 18:50:00,27.7,22.0,31.22,North,355,0.0,0.0,79,0.00,,,0.00,0.00,VWS V14.00,2013-11-29 01:50:00,
2013-11-28 18:51:00,27.7,22.0,31.22,North,355,0.0,0.0,79,0.00,,,0.00,0.00,VWS V14.00,2013-11-29 01:51:00,
2013-11-28 18:52:00,27.6,21.6,31.22,North,355,0.0,0.0,78,0.00,,,0.00,0.00,VWS V14.00,2013-11-29 01:52:00,
2013-11-28 18:53:00,27.4,21.5,31.22,North,355,0.0,0.0,78,0.00,,,0.00,0.00,VWS V14.00,2013-11-29 01:53:00,
2013-11-28 18:54:00,27.4,21.1,31.23,North,355,0.0,0.0,77,0.00,,,0.00,0.00,VWS V14.00,2013-11-29 01:54:00,
2013-11-28 18:55:00,27.2,21.0,31.23,North,355,0.0,0.0,77,0.00,,,0.00,0.00,VWS V14.00,2013-11-29 01:55:00,
2013-11-28 18:56:00,27.1,21.2,31.24,North,355,0.0,0.0,78,0.00,,,0.00,0.00,VWS V14.00,2013-11-29 01:56:00,
2013-11-28 18:57:00,27.0,21.1,31.24,North,355,0.0,0.0,78,0.00,,,0.00,0.00,VWS V14.00,2013-11-29 01:57:00,
2013-11-28 18:58:00,26.9,21.0,31.24,North,355,0.0,0.0,78,0.00,,,0.00,0.00,VWS V14.00,2013-11-29 01:58:00,
2013-11-28 18:59:00,26.9,21.3,31.24,North,355,0.0,0.0,79,0.00,,,0.00,0.00,VWS V14.00,2013-11-29 01:59:00,
2013-11-28 19:00:00,26.8,21.5,31.24,North,355,0.0,0.0,80,0.00,,,0.00,0.00,VWS V14.00,2013-11-29 02:00:00,
2013-11-28 19:01:00,26.7,21.4,31.25,North,355,0.0,0.0,80,0.00,,,0.00,0.00,VWS V14.00,2013-11-29 02:01:00,
2013-11-28 19:02:00,26.7,21.4,31.25,North,355,0.0,0.0,80,0.00,,,0.00,0.00,VWS V14.00,2013-11-29 02:02:00,
2013-11-28 19:03:00,26.7,21.4,31.25,North,355,0.0,0.0,80,0.00,,,0.00,0.00,VWS V14.00,2013-11-29 02:03:00,
2013-11-28 19:04:00,26.7,21.7,31.25,North,355,0.0,0.0,81,0.00,,,0.00,0.00,VWS V14.00,2013-11-29 02:04:00,
2013-11-28 19:05:00,26.6,21.6,31.25,North,355,0.0,0.0,81,0.00,,,0.00,0.00,VWS V14.00,2013-11-29 02:05:00,
2013-11-28 19:06:00,26.6,21.6,31.25,North,355,0.0,0.0,81,0.00,,,0.00,0.00,VWS V14.00,2013-11-29 02:06:00,
2013-11-28 19:07:00,26.6,21.9,31.25,North,355,0.0,0.0,82,0.00,,,0.00,0.00,VWS V14.00,2013-11-29 02:07:00,
2013-11-28 19:08:00,26.6,21.9,31.25,North,355,0.0,0.0,82,0.00,,,0.00,0.00,VWS V14.00,2013-11-29 02:08:00,
2013-11-28 19:09:00,26.7,22.0,31.25,North,355,0.0,0.0,82,0.00,,,0.00,0.00,VWS V14.00,2013-11-29 02:09:00,
2013-11-28 19:10:00,26.7,22.0,31.25,North,355,0.0,0.0,82,0.00,,,0.00,0.00,VWS V14.00,2013-11-29 02:10:00,
2013-11-28 19:11:00,26.7,22.0,31.25,North,355,0.0,0.0,82,0.00,,,0.00,0.00,VWS V14.00,2013-11-29 02:11:00,
2013-11-28 19:12:00,26.7,22.0,31.25,North,355,0.0,0.0,82,0.00,,,0.00,0.00,VWS V14.00,2013-11-29 02:12:00,
2013-11-28 19:13:00,26.7,22.0,31.25,North,355,0.0,0.0,82,0.00,,,0.00,0.00,VWS V14.00,2013-11-29 02:13:00,
2013-11-28 19:14:00,26.7,22.0,31.25,North,355,0.0,0.0,82,0.00,,,0.00,0.00,VWS V14.00,2013-11-29 02:14:00,
2013-11-28 19:15:00,26.7,22.0,31.25,North,355,0.0,0.0,82,0.00,,,0.00,0.00,VWS V14.00,2013-11-29 02:15:00,
2013-11-28 19:16:00,26.8,22.0,31.25,North,355,0.0,0.0,82,0.00,,,0.00,0.00,VWS V14.00,2013-11-29 02:16:00,
2013-11-28 19:17:00,26.8,22.3,31.25,North,355,0.0,0.0,83,0.00,,,0.00,0.00,VWS V14.00,2013-11-29 02:17:00,
2013-11-28 19:18:00,26.8,22.3,31.25,North,355,0.0,0.0,83,0.00,,,0.00,0.00,VWS V14.00,2013-11-29 02:18:00,
2013-11-28 19:19:00,26.8,22.0,31.25,North,355,0.0,0.0,82,0.00,,,0.00,0.00,VWS V14.00,2013-11-29 02:19:00,
2013-11-28 19:20:00,26.8,22.0,31.25,North,355,0.0,0.0,82,0.00,,,0.00,0.00,VWS V14.00,2013-11-29 02:20:00,
2013-11-28 19:21:00,26.8,22.0,31.25,North,355,0.0,0.0,82,0.00,,,0.00,0.00,VWS V14.00,2013-11-29 02:21:00,
2013-11-28 19:22:00,26.8,22.0,31.25,North,355,0.0,0.0,82,0.00,,,0.00,0.00,VWS V14.00,2013-11-29 02:22:00,
2013-11-28 19:23:00,26.8,22.0,31.25,North,355,0.0,0.0,82,0.00,,,0.00,0.00,VWS V14.00,2013-11-29 02:23:00,
2013-11-28 19:24:00,26.7,21.7,31.25,North,355,0.0,0.0,81,0.00,,,0.00,0.00,VWS V14.00,2013-11-29 02:24:00,
2013-11-28 19:25:00,26.6,21.0,31.25,North,355,0.0,0.0,79,0.00,,,0.00,0.00,VWS V14.00,2013-11-29 02:25:00,
2013-11-28 19:26:00,26.3,20.4,31.25,North,355,0.0,0.0,78,0.00,,,0.00,0.00,VWS V14.00,2013-11-29 02:26:00,
2013-11-28 19:27:00,26.2,20.0,31.25,North,355,0.0,1.0,77,0.00,,,0.00,0.00,VWS V14.00,2013-11-29 02:27:00,
2013-11-28 19:28:00,26.1,19.9,31.25,North,355,0.0,1.0,77,0.00,,,0.00,0.00,VWS V14.00,2013-11-29 02:28:00,
2013-11-28 19:29:00,25.9,19.7,31.25,North,355,0.0,1.0,77,0.00,,,0.00,0.00,VWS V14.00,2013-11-29 02:29:00,
2013-11-28 19:30:00,25.8,19.6,31.25,North,355,0.0,1.0,77,0.00,,,0.00,0.00,VWS V14.00,2013-11-29 02:30:00,
2013-11-28 19:31:00,25.6,19.4,31.25,North,355,0.0,0.0,77,0.00,,,0.00,0.00,VWS V14.00,2013-11-29 02:31:00,
2013-11-28 19:32:00,25.5,19.6,31.25,North,355,0.0,0.0,78,0.00,,,0.00,0.00,VWS V14.00,2013-11-29 02:32:00,
2013-11-28 19:33:00,25.4,19.5,31.25,North,355,0.0,0.0,78,0.00,,,0.00,0.00,VWS V14.00,2013-11-29 02:33:00,
2013-11-28 19:34:00,25.3,19.7,31.26,North,355,0.0,0.0,79,0.00,,,0.00,0.00,VWS V14.00,2013-11-29 02:34:00,
2013-11-28 19:35:00,25.2,19.6,31.26,North,355,0.0,0.0,79,0.00,,,0.00,0.00,VWS V14.00,2013-11-29 02:35:00,
2013-11-28 19:36:00,25.2,19.6,31.26,North,355,0.0,0.0,79,0.00,,,0.00,0.00,VWS V14.00,2013-11-29 02:36:00,
2013-11-28 19:37:00,25.1,19.5,31.26,North,355,0.0,0.0,79,0.00,,,0.00,0.00,VWS V14.00,2013-11-29 02:37:00,
2013-11-28 19:38:00,25.1,19.5,31.26,North,355,0.0,0.0,79,0.00,,,0.00,0.00,VWS V14.00,2013-11-29 02:38:00,
2013-11-28 19:39:00,25.0,19.4,31.26,North,355,0.0,0.0,79,0.00,,,0.00,0.00,VWS V14.00,2013-11-29 02:39:00,
2013-11-28 19:40:00,24.9,19.6,31.26,North,355,0.0,0.0,80,0.00,,,0.00,0.00,VWS V14.00,2013-11-29 02:40:00,
2013-11-28 19:41:00,24.8,19.5,31.26,North,355,0.0,0.0,80,0.00,,,0.00,0.00,VWS V14.00,2013-11-29 02:41:00,
2013-11-28 19:42:00,24.8,19.8,31.26,North,355,0.0,0.0,81,0.00,,,0.00,0.00,VWS V14.00,2013-11-29 02:42:00,
2013-11-28 19:43:00,24.7,19.7,31.26,North,355,0.0,0.0,81,0.00,,,0.00,0.00,VWS V14.00,2013-11-29 02:43:00,
2013-11-28 19:44:00,24.7,20.0,31.26,North,355,0.0,0.0,82,0.00,,,0.00,0.00,VWS V14.00,2013-11-29 02:44:00,
2013-11-28 19:45:00,24.7,20.0,31.26,North,355,0.0,0.0,82,0.00,,,0.00,0.00,VWS V14.00,2013-11-29 02:45:00,
2013-11-28 19:46:00,24.7,20.0,31.26,North,355,0.0,0.0,82,0.00,,,0.00,0.00,VWS V14.00,2013-11-29 02:46:00,
2013-11-28 19:47:00,24.6,20.2,31.26,North,355,0.0,0.0,83,0.00,,,0.00,0.00,VWS V14.00,2013-11-29 02:47:00,
2013-11-28 19:48:00,24.6,20.2,31.26,North,355,0.0,0.0,83,0.00,,,0.00,0.00,VWS V14.00,2013-11-29 02:48:00,
2013-11-28 19:49:00,24.6,20.2,31.26,North,355,0.0,0.0,83,0.00,,,0.00,0.00,VWS V14.00,2013-11-29 02:49:00,
2013-11-28 19:50:00,24.6,20.2,31.26,North,355,0.0,0.0,83,0.00,,,0.00,0.00,VWS V14.00,2013-11-29 02:50:00,
2013-11-28 19:51:00,24.6,20.2,31.26,North,355,0.0,0.0,83,0.00,,,0.00,0.00,VWS V14.00,2013-11-29 02:51:00,
2013-11-28 19:52:00,24.6,20.2,31.26,North,355,0.0,0.0,83,0.00,,,0.00,0.00,VWS V14.00,2013-11-29 02:52:00,
2013-11-28 19:53:00,24.5,20.4,31.26,North,355,0.0,0.0,84,0.00,,,0.00,0.00,VWS V14.00,2013-11-29 02:53:00,
2013-11-28 19:54:00,24.5,20.1,31.26,North,355,0.0,0.0,83,0.00,,,0.00,0.00,VWS V14.00,2013-11-29 02:54:00,
2013-11-28 19:55:00,24.5,20.4,31.26,North,355,0.0,0.0,84,0.00,,,0.00,0.00,VWS V14.00,2013-11-29 02:55:00,
2013-11-28 19:56:00,24.5,20.4,31.26,North,355,0.0,0.0,84,0.00,,,0.00,0.00,VWS V14.00,2013-11-29 02:56:00,
2013-11-28 19:57:00,24.5,20.4,31.26,North,355,0.0,0.0,84,0.00,,,0.00,0.00,VWS V14.00,2013-11-29 02:57:00,
2013-11-28 19:58:00,24.5,20.1,31.26,North,355,0.0,0.0,83,0.00,,,0.00,0.00,VWS V14.00,2013-11-29 02:58:00,
2013-11-28 19:59:00,24.4,20.0,31.26,North,355,1.0,1.0,83,0.00,,,0.00,0.00,VWS V14.00,2013-11-29 02:59:00,
2013-11-28 20:00:00,24.3,19.9,31.26,North,355,1.0,2.0,83,0.00,,,0.00,0.00,VWS V14.00,2013-11-29 03:00:00,
2013-11-28 20:01:00,24.2,19.5,31.26,North,355,0.0,1.0,82,0.00,,,0.00,0.00,VWS V14.00,2013-11-29 03:01:00,
2013-11-28 20:02:00,24.1,19.4,31.26,North,355,0.0,1.0,82,0.00,,,0.00,0.00,VWS V14.00,2013-11-29 03:02:00,
2013-11-28 20:03:00,24.0,19.3,31.26,North,355,0.0,1.0,82,0.00,,,0.00,0.00,VWS V14.00,2013-11-29 03:03:00,
2013-11-28 20:04:00,23.9,19.2,31.26,North,355,0.0,1.0,82,0.00,,,0.00,0.00,VWS V14.00,2013-11-29 03:04:00,
2013-11-28 20:05:00,23.8,19.1,31.26,North,355,0.0,1.0,82,0.00,,,0.00,0.00,VWS V14.00,2013-11-29 03:05:00,
2013-11-28 20:06:00,23.8,19.4,31.26,North,355,0.0,1.0,83,0.00,,,0.00,0.00,VWS V14.00,2013-11-29 03:06:00,
2013-11-28 20:07:00,23.8,19.4,31.26,North,355,0.0,1.0,83,0.00,,,0.00,0.00,VWS V14.00,2013-11-29 03:07:00,
2013-11-28 20:08:00,23.7,19.3,31.26,North,355,0.0,1.0,83,0.00,,,0.00,0.00,VWS V14.00,2013-11-29 03:08:00,
2013-11-28 20:09:00,23.6,19.2,31.26,North,355,0.0,1.0,83,0.00,,,0.00,0.00,VWS V14.00,2013-11-29 03:09:00,
2013-11-28 20:10:00,23.6,19.2,31.26,North,355,0.0,1.0,83,0.00,,,0.00,0.00,VWS V14.00,2013-11-29 03:10:00,
2013-11-28 20:11:00,23.6,19.5,31.26,North,355,0.0,1.0,84,0.00,,,0.00,0.00,VWS V14.00,2013-11-29 03:11:00,
2013-11-28 20:12:00,23.6,19.5,31.26,North,355,0.0,1.0,84,0.00,,,0.00,0.00,VWS V14.00,2013-11-29 03:12:00,
2013-11-28 20:13:00,23.6,19.5,31.26,North,355,0.0,1.0,84,0.00,,,0.00,0.00,VWS V14.00,2013-11-29 03:13:00,
2013-11-28 20:14:00,23.5,19.4,31.26,North,355,0.0,1.0,84,0.00,,,0.00,0.00,VWS V14.00,2013-11-29 03:14:00,
2013-11-28 20:15:00,23.5,19.4,31.26,North,355,0.0,1.0,84,0.00,,,0.00,0.00,VWS V14.00,2013-11-29 03:15:00,
2013-11-28 20:16:00,23.5,19.4,31.26,North,355,0.0,0.0,84,0.00,,,0.00,0.00,VWS V14.00,2013-11-29 03:16:00,
2013-11-28 20:17:00,23.4,19.3,31.27,North,355,0.0,0.0,84,0.00,,,0.00,0.00,VWS V14.00,2013-11-29 03:17:00,
2013-11-28 20:18:00,23.4,19.3,31.27,North,355,0.0,0.0,84,0.00,,,0.00,0.00,VWS V14.00,2013-11-29 03:18:00,
2013-11-28 20:19:00,23.4,19.3,31.27,North,355,0.0,0.0,84,0.00,,,0.00,0.00,VWS V14.00,2013-11-29 03:19:00,
2013-11-28 20:20:00,23.4,19.3,31.27,North,355,1.0,1.0,84,0.00,,,0.00,0.00,VWS V14.00,2013-11-29 03:20:00,
2013-11-28 20:21:00,23.3,19.2,31.27,North,355,0.0,1.0,84,0.00,,,0.00,0.00,VWS V14.00,2013-11-29 03:21:00,
2013-11-28 20:22:00,23.3,19.2,31.27,North,355,0.0,1.0,84,0.00,,,0.00,0.00,VWS V14.00,2013-11-29 03:22:00,
2013-11-28 20:23:00,23.3,19.2,31.27,North,355,0.0,1.0,84,0.00,,,0.00,0.00,VWS V14.00,2013-11-29 03:23:00,
2013-11-28 20:24:00,23.3,19.2,31.27,North,355,0.0,1.0,84,0.00,,,0.00,0.00,VWS V14.00,2013-11-29 03:24:00,
2013-11-28 20:25:00,23.3,19.5,31.27,North,355,0.0,1.0,85,0.00,,,0.00,0.00,VWS V14.00,2013-11-29 03:25:00,
2013-11-28 20:26:00,23.3,19.5,31.27,North,355,0.0,1.0,85,0.00,,,0.00,0.00,VWS V14.00,2013-11-29 03:26:00,
2013-11-28 20:27:00,23.3,19.5,31.27,North,355,0.0,1.0,85,0.00,,,0.00,0.00,VWS V14.00,2013-11-29 03:27:00,
2013-11-28 20:28:00,23.3,19.5,31.27,North,355,0.0,1.0,85,0.00,,,0.00,0.00,VWS V14.00,2013-11-29 03:28:00,
2013-11-28 20:29:00,23.3,19.5,31.27,North,355,0.0,1.0,85,0.00,,,0.00,0.00,VWS V14.00,2013-11-29 03:29:00,
2013-11-28 20:30:00,23.3,19.5,31.27,North,355,0.0,1.0,85,0.00,,,0.00,0.00,VWS V14.00,2013-11-29 03:30:00,
2013-11-28 20:31:00,23.3,19.5,31.27,North,355,0.0,0.0,85,0.00,,,0.00,0.00,VWS V14.00,2013-11-29 03:31:00,
2013-11-28 20:32:00,23.3,19.5,31.27,North,355,0.0,0.0,85,0.00,,,0.00,0.00,VWS V14.00,2013-11-29 03:32:00,
2013-11-28 20:33:00,23.3,19.5,31.27,North,355,0.0,0.0,85,0.00,,,0.00,0.00,VWS V14.00,2013-11-29 03:33:00,
2013-11-28 20:34:00,23.3,19.5,31.27,North,355,0.0,0.0,85,0.00,,,0.00,0.00,VWS V14.00,2013-11-29 03:34:00,
2013-11-28 20:35:00,23.3,19.5,31.27,North,355,0.0,0.0,85,0.00,,,0.00,0.00,VWS V14.00,2013-11-29 03:35:00,
2013-11-28 20:36:00,23.3,19.5,31.27,North,355,0.0,0.0,85,0.00,,,0.00,0.00,VWS V14.00,2013-11-29 03:36:00,
2013-11-28 20:37:00,23.2,19.4,31.27,North,355,0.0,0.0,85,0.00,,,0.00,0.00,VWS V14.00,2013-11-29 03:37:00,
2013-11-28 20:38:00,23.2,19.4,31.27,North,355,0.0,0.0,85,0.00,,,0.00,0.00,VWS V14.00,2013-11-29 03:38:00,
2013-11-28 20:39:00,23.2,19.4,31.27,North,355,0.0,0.0,85,0.00,,,0.00,0.00,VWS V14.00,2013-11-29 03:39:00,
2013-11-28 20:40:00,23.2,19.4,31.27,North,355,0.0,0.0,85,0.00,,,0.00,0.00,VWS V14.00,2013-11-29 03:40:00,
2013-11-28 20:41:00,23.2,19.4,31.27,North,355,0.0,0.0,85,0.00,,,0.00,0.00,VWS V14.00,2013-11-29 03:41:00,
2013-11-28 20:42:00,23.2,19.4,31.27,North,355,0.0,0.0,85,0.00,,,0.00,0.00,VWS V14.00,2013-11-29 03:42:00,
2013-11-28 20:43:00,23.1,19.3,31.27,North,355,0.0,0.0,85,0.00,,,0.00,0.00,VWS V14.00,2013-11-29 03:43:00,
2013-11-28 20:44:00,23.1,19.3,31.27,North,355,0.0,0.0,85,0.00,,,0.00,0.00,VWS V14.00,2013-11-29 03:44:00,
2013-11-28 20:45:00,23.0,18.9,31.27,North,355,0.0,0.0,84,0.00,,,0.00,0.00,VWS V14.00,2013-11-29 03:45:00,
2013-11-28 20:46:00,23.0,18.9,31.27,North,355,0.0,0.0,84,0.00,,,0.00,0.00,VWS V14.00,2013-11-29 03:46:00,
2013-11-28 20:47:00,22.9,18.8,31.27,North,355,0.0,0.0,84,0.00,,,0.00,0.00,VWS V14.00,2013-11-29 03:47:00,
2013-11-28 20:48:00,22.8,18.7,31.27,North,355,0.0,0.0,84,0.00,,,0.00,0.00,VWS V14.00,2013-11-29 03:48:00,
2013-11-28 20:49:00,22.8,18.7,31.27,North,355,0.0,0.0,84,0.00,,,0.00,0.00,VWS V14.00,2013-11-29 03:49:00,
2013-11-28 20:50:00,22.8,18.7,31.27,North,355,0.0,0.0,84,0.00,,,0.00,0.00,VWS V14.00,2013-11-29 03:50:00,
2013-11-28 20:51:00,22.8,19.0,31.27,North,355,0.0,0.0,85,0.00,,,0.00,0.00,VWS V14.00,2013-11-29 03:51:00,
2013-11-28 20:52:00,22.8,19.0,31.27,North,355,0.0,0.0,85,0.00,,,0.00,0.00,VWS V14.00,2013-11-29 03:52:00,
2013-11-28 20:53:00,22.8,19.0,31.27,North,355,0.0,0.0,85,0.00,,,0.00,0.00,VWS V14.00,2013-11-29 03:53:00,
2013-11-28 20:54:00,22.9,19.4,31.27,North,355,0.0,0.0,86,0.00,,,0.00,0.00,VWS V14.00,2013-11-29 03:54:00,
2013-11-28 20:55:00,22.9,19.4,31.27,North,355,0.0,0.0,86,0.00,,,0.00,0.00,VWS V14.00,2013-11-29 03:55:00,
2013-11-28 20:56:00,23.0,19.5,31.27,North,355,0.0,0.0,86,0.00,,,0.00,0.00,VWS V14.00,2013-11-29 03:56:00,
2013-11-28 20:57:00,23.1,19.8,31.27,North,355,0.0,0.0,87,0.00,,,0.00,0.00,VWS V14.00,2013-11-29 03:57:00,
2013-11-28 20:58:00,23.2,19.9,31.27,North,355,0.0,0.0,87,0.00,,,0.00,0.00,VWS V14.00,2013-11-29 03:58:00,
2013-11-28 20:59:00,23.3,20.3,31.27,North,355,0.0,0.0,88,0.00,,,0.00,0.00,VWS V14.00,2013-11-29 03:59:00,
2013-11-28 21:00:00,23.4,20.4,31.27,North,355,0.0,0.0,88,0.00,,,0.00,0.00,VWS V14.00,2013-11-29 04:00:00,
2013-11-28 21:01:00,23.5,20.5,31.27,North,355,0.0,0.0,88,0.00,,,0.00,0.00,VWS V14.00,2013-11-29 04:01:00,
2013-11-28 21:02:00,23.6,20.6,31.25,North,355,0.0,0.0,88,0.00,,,0.00,0.00,VWS V14.00,2013-11-29 04:02:00,
2013-11-28 21:03:00,23.7,20.7,31.25,North,355,0.0,0.0,88,0.00,,,0.00,0.00,VWS V14.00,2013-11-29 04:03:00,
2013-11-28 21:04:00,23.8,20.8,31.25,North,355,0.0,0.0,88,0.00,,,0.00,0.00,VWS V14.00,2013-11-29 04:04:00,
2013-11-28 21:05:00,23.9,20.9,31.25,North,355,0.0,0.0,88,0.00,,,0.00,0.00,VWS V14.00,2013-11-29 04:05:00,
2013-11-28 21:06:00,23.9,20.9,31.25,North,355,0.0,0.0,88,0.00,,,0.00,0.00,VWS V14.00,2013-11-29 04:06:00,
2013-11-28 21:07:00,24.0,21.2,31.25,North,355,0.0,0.0,89,0.00,,,0.00,0.00,VWS V14.00,2013-11-29 04:07:00,
2013-11-28 21:08:00,24.2,21.4,31.25,North,355,0.0,0.0,89,0.00,,,0.00,0.00,VWS V14.00,2013-11-29 04:08:00,
2013-11-28 21:09:00,24.3,21.5,31.25,North,355,0.0,0.0,89,0.00,,,0.00,0.00,VWS V14.00,2013-11-29 04:09:00,
2013-11-28 21:10:00,24.4,21.6,31.25,North,355,0.0,0.0,89,0.00,,,0.00,0.00,VWS V14.00,2013-11-29 04:10:00,
2013-11-28 21:11:00,24.4,21.6,31.25,North,355,0.0,0.0,89,0.00,,,0.00,0.00,VWS V14.00,2013-11-29 04:11:00,
2013-11-28 21:12:00,24.5,21.7,31.25,North,355,0.0,0.0,89,0.00,,,0.00,0.00,VWS V14.00,2013-11-29 04:12:00,
2013-11-28 21:13:00,24.5,21.7,31.25,North,355,0.0,0.0,89,0.00,,,0.00,0.00,VWS V14.00,2013-11-29 04:13:00,
2013-11-28 21:14:00,24.6,21.6,31.25,North,355,0.0,1.0,88,0.00,,,0.00,0.00,VWS V14.00,2013-11-29 04:14:00,
2013-11-28 21:15:00,24.6,21.6,31.25,North,355,0.0,1.0,88,0.00,,,0.00,0.00,VWS V14.00,2013-11-29 04:15:00,
2013-11-28 21:16:00,24.7,21.7,31.25,North,355,0.0,0.0,88,0.00,,,0.00,0.00,VWS V14.00,2013-11-29 04:16:00,
2013-11-28 21:17:00,24.7,21.7,31.25,North,355,0.0,0.0,88,0.00,,,0.00,0.00,VWS V14.00,2013-11-29 04:17:00,
2013-11-28 21:18:00,24.7,21.7,31.25,North,355,0.0,0.0,88,0.00,,,0.00,0.00,VWS V14.00,2013-11-29 04:18:00,
2013-11-28 21:19:00,24.7,21.4,31.25,North,355,0.0,0.0,87,0.00,,,0.00,0.00,VWS V14.00,2013-11-29 04:19:00,
2013-11-28 21:20:00,24.8,21.5,31.25,North,355,0.0,0.0,87,0.00,,,0.00,0.00,VWS V14.00,2013-11-29 04:20:00,
2013-11-28 21:21:00,24.8,21.5,31.25,North,355,0.0,0.0,87,0.00,,,0.00,0.00,VWS V14.00,2013-11-29 04:21:00,
2013-11-28 21:22:00,24.8,21.5,31.25,North,355,0.0,0.0,87,0.00,,,0.00,0.00,VWS V14.00,2013-11-29 04:22:00,
2013-11-28 21:23:00,24.9,21.6,31.25,North,355,0.0,0.0,87,0.00,,,0.00,0.00,VWS V14.00,2013-11-29 04:23:00,
2013-11-28 21:24:00,24.9,21.6,31.25,North,355,0.0,0.0,87,0.00,,,0.00,0.00,VWS V14.00,2013-11-29 04:24:00,
2013-11-28 21:25:00,24.9,21.6,31.25,North,355,0.0,0.0,87,0.00,,,0.00,0.00,VWS V14.00,2013-11-29 04:25:00,
2013-11-28 21:26:00,24.9,21.6,31.25,North,355,0.0,0.0,87,0.00,,,0.00,0.00,VWS V14.00,2013-11-29 04:26:00,
2013-11-28 21:27:00,25.0,21.7,31.25,North,355,0.0,0.0,87,0.00,,,0.00,0.00,VWS V14.00,2013-11-29 04:27:00,
2013-11-28 21:28:00,25.0,21.7,31.25,North,355,0.0,0.0,87,0.00,,,0.00,0.00,VWS V14.00,2013-11-29 04:28:00,
2013-11-28 21:29:00,25.1,21.8,31.25,North,355,0.0,0.0,87,0.00,,,0.00,0.00,VWS V14.00,2013-11-29 04:29:00,
2013-11-28 21:30:00,25.1,21.8,31.25,North,355,0.0,0.0,87,0.00,,,0.00,0.00,VWS V14.00,2013-11-29 04:30:00,
2013-11-28 21:31:00,25.1,21.8,31.25,North,355,3.0,3.0,87,0.00,,,0.00,0.00,VWS V14.00,2013-11-29 04:31:00,
2013-11-28 21:32:00,25.1,21.5,31.25,North,355,3.0,3.0,86,0.00,,,0.00,0.00,VWS V14.00,2013-11-29 04:32:00,
2013-11-28 21:33:00,24.9,21.0,31.25,North,355,5.0,5.0,85,0.00,,,0.00,0.00,VWS V14.00,2013-11-29 04:33:00,
2013-11-28 21:34:00,24.7,20.6,31.25,North,355,4.0,5.0,84,0.00,,,0.00,0.00,VWS V14.00,2013-11-29 04:34:00,
2013-11-28 21:35:00,24.5,20.1,31.25,North,355,5.0,5.0,83,0.00,,,0.00,0.00,VWS V14.00,2013-11-29 04:35:00,
2013-11-28 21:36:00,24.2,19.5,31.26,North,355,5.0,6.0,82,0.00,,,0.00,0.00,VWS V14.00,2013-11-29 04:36:00,
2013-11-28 21:37:00,23.9,18.9,31.26,North,355,2.0,6.0,81,0.00,,,0.00,0.00,VWS V14.00,2013-11-29 04:37:00,
2013-11-28 21:38:00,23.6,18.9,31.26,North,355,2.0,6.0,82,0.00,,,0.00,0.00,VWS V14.00,2013-11-29 04:38:00,
2013-11-28 21:39:00,23.4,18.7,31.26,North,355,4.0,6.0,82,0.00,,,0.00,0.00,VWS V14.00,2013-11-29 04:39:00,
2013-11-28 21:40:00,23.3,18.6,31.27,North,355,0.0,6.0,82,0.00,,,0.00,0.00,VWS V14.00,2013-11-29 04:40:00,
2013-11-28 21:41:00,23.1,18.4,31.27,North,355,0.0,6.0,82,0.00,,,0.00,0.00,VWS V14.00,2013-11-29 04:41:00,
2013-11-28 21:42:00,23.0,18.3,31.27,North,355,0.0,6.0,82,0.00,,,0.00,0.00,VWS V14.00,2013-11-29 04:42:00,
2013-11-28 21:43:00,22.9,18.2,31.27,North,355,0.0,6.0,82,0.00,,,0.00,0.00,VWS V14.00,2013-11-29 04:43:00,
2013-11-28 21:44:00,22.8,18.4,31.27,North,355,0.0,6.0,83,0.00,,,0.00,0.00,VWS V14.00,2013-11-29 04:44:00,
2013-11-28 21:45:00,22.8,18.4,31.27,North,355,0.0,6.0,83,0.00,,,0.00,0.00,VWS V14.00,2013-11-29 04:45:00,
2013-11-28 21:46:00,22.7,18.6,31.27,North,355,0.0,0.0,84,0.00,,,0.00,0.00,VWS V14.00,2013-11-29 04:46:00,
2013-11-28 21:47:00,22.7,18.6,31.27,North,355,0.0,0.0,84,0.00,,,0.00,0.00,VWS V14.00,2013-11-29 04:47:00,
2013-11-28 21:48:00,22.7,18.6,31.27,North,355,1.0,3.0,84,0.00,,,0.00,0.00,VWS V14.00,2013-11-29 04:48:00,
2013-11-28 21:49:00,22.7,18.9,31.27,North,355,0.0,3.0,85,0.00,,,0.00,0.00,VWS V14.00,2013-11-29 04:49:00,
2013-11-28 21:50:00,22.7,18.9,31.27,North,355,0.0,3.0,85,0.00,,,0.00,0.00,VWS V14.00,2013-11-29 04:50:00,
2013-11-28 21:51:00,22.7,18.9,31.27,North,355,3.0,4.0,85,0.00,,,0.00,0.00,VWS V14.00,2013-11-29 04:51:00,
2013-11-28 21:52:00,22.6,18.8,31.27,North,355,2.0,4.0,85,0.00,,,0.00,0.00,VWS V14.00,2013-11-29 04:52:00,
2013-11-28 21:53:00,22.6,18.8,31.27,North,355,1.0,4.0,85,0.00,,,0.00,0.00,VWS V14.00,2013-11-29 04:53:00,
2013-11-28 21:54:00,22.6,18.8,31.27,North,355,0.0,4.0,85,0.00,,,0.00,0.00,VWS V14.00,2013-11-29 04:54:00,
2013-11-28 21:55:00,22.6,19.0,31.27,North,355,2.0,4.0,86,0.00,,,0.00,0.00,VWS V14.00,2013-11-29 04:55:00,
2013-11-28 21:56:00,22.6,19.0,31.27,North,355,4.0,7.0,86,0.00,,,0.00,0.00,VWS V14.00,2013-11-29 04:56:00,
2013-11-28 21:57:00,22.6,19.0,31.27,North,355,6.0,7.0,86,0.00,,,0.00,0.00,VWS V14.00,2013-11-29 04:57:00,
2013-11-28 21:58:00,22.6,19.0,31.27,North,355,2.0,7.0,86,0.00,,,0.00,0.00,VWS V14.00,2013-11-29 04:58:00,
2013-11-28 21:59:00,22.6,19.0,31.27,North,355,0.0,7.0,86,0.00,,,0.00,0.00,VWS V14.00,2013-11-29 04:59:00,
2013-11-28 22:00:00,22.6,19.0,31.27,North,355,0.0,7.0,86,0.00,,,0.00,0.00,VWS V14.00,2013-11-29 05:00:00,
2013-11-28 22:01:00,22.6,19.0,31.27,North,355,0.0,3.0,86,0.00,,,0.00,0.00,VWS V14.00,2013-11-29 05:01:00,
2013-11-28 22:02:00,22.6,19.3,31.25,North,355,0.0,3.0,87,0.00,,,0.00,0.00,VWS V14.00,2013-11-29 05:02:00,
2013-11-28 22:03:00,22.6,19.3,31.25,North,355,0.0,3.0,87,0.00,,,0.00,0.00,VWS V14.00,2013-11-29 05:03:00,
2013-11-28 22:04:00,22.6,19.3,31.25,North,355,2.0,4.0,87,0.00,,,0.00,0.00,VWS V14.00,2013-11-29 05:04:00,
2013-11-28 22:05:00,22.6,19.3,31.25,North,355,2.0,4.0,87,0.00,,,0.00,0.00,VWS V14.00,2013-11-29 05:05:00,
2013-11-28 22:06:00,22.6,19.3,31.25,North,355,3.0,4.0,87,0.00,,,0.00,0.00,VWS V14.00,2013-11-29 05:06:00,
2013-11-28 22:07:00,22.6,19.3,31.25,North,355,3.0,4.0,87,0.00,,,0.00,0.00,VWS V14.00,2013-11-29 05:07:00,
2013-11-28 22:08:00,22.6,19.3,31.25,North,355,3.0,4.0,87,0.00,,,0.00,0.00,VWS V14.00,2013-11-29 05:08:00,
2013-11-28 22:09:00,22.6,19.3,31.26,North,355,3.0,4.0,87,0.00,,,0.00,0.00,VWS V14.00,2013-11-29 05:09:00,
2013-11-28 22:10:00,22.6,19.3,31.26,North,355,2.0,4.0,87,0.00,,,0.00,0.00,VWS V14.00,2013-11-29 05:10:00,
2013-11-28 22:11:00,22.5,19.2,31.26,North,355,2.0,4.0,87,0.00,,,0.00,0.00,VWS V14.00,2013-11-29 05:11:00,
2013-11-28 22:12:00,22.5,19.2,31.26,North,355,2.0,4.0,87,0.00,,,0.00,0.00,VWS V14.00,2013-11-29 05:12:00,
2013-11-28 22:13:00,22.4,18.9,31.26,North,355,1.0,4.0,86,0.00,,,0.00,0.00,VWS V14.00,2013-11-29 05:13:00,
2013-11-28 22:14:00,22.4,19.1,31.26,North,355,1.0,4.0,87,0.00,,,0.00,0.00,VWS V14.00,2013-11-29 05:14:00,
2013-11-28 22:15:00,22.4,19.1,31.26,North,355,1.0,4.0,87,0.00,,,0.00,0.00,VWS V14.00,2013-11-29 05:15:00,
2013-11-28 22:16:00,22.3,19.0,31.26,North,355,2.0,3.0,87,0.00,,,0.00,0.00,VWS V14.00,2013-11-29 05:16:00,
2013-11-28 22:17:00,22.2,18.9,31.26,North,355,3.0,4.0,87,0.00,,,0.00,0.00,VWS V14.00,2013-11-29 05:17:00,
2013-11-28 22:18:00,22.2,18.9,31.26,North,355,2.0,4.0,87,0.00,,,0.00,0.00,VWS V14.00,2013-11-29 05:18:00,
2013-11-28 22:19:00,22.3,19.0,31.26,North,355,2.0,4.0,87,0.00,,,0.00,0.00,VWS V14.00,2013-11-29 05:19:00,
2013-11-28 22:20:00,22.3,19.0,31.26,North,355,2.0,4.0,87,0.00,,,0.00,0.00,VWS V14.00,2013-11-29 05:20:00,
2013-11-28 22:21:00,22.4,19.1,31.26,North,355,3.0,4.0,87,0.00,,,0.00,0.00,VWS V14.00,2013-11-29 05:21:00,
2013-11-28 22:22:00,22.5,19.5,31.26,North,355,3.0,4.0,88,0.00,,,0.00,0.00,VWS V14.00,2013-11-29 05:22:00,
2013-11-28 22:23:00,22.6,19.6,31.26,North,355,3.0,4.0,88,0.00,,,0.00,0.00,VWS V14.00,2013-11-29 05:23:00,
2013-11-28 22:24:00,22.6,19.6,31.26,North,355,3.0,4.0,88,0.00,,,0.00,0.00,VWS V14.00,2013-11-29 05:24:00,
2013-11-28 22:25:00,22.7,19.7,31.26,North,355,0.0,4.0,88,0.00,,,0.00,0.00,VWS V14.00,2013-11-29 05:25:00,
2013-11-28 22:26:00,22.8,19.8,31.26,North,355,0.0,4.0,88,0.00,,,0.00,0.00,VWS V14.00,2013-11-29 05:26:00,
2013-11-28 22:27:00,22.9,19.9,31.26,North,355,0.0,4.0,88,0.00,,,0.00,0.00,VWS V14.00,2013-11-29 05:27:00,
2013-11-28 22:28:00,23.0,20.0,31.26,North,355,0.0,4.0,88,0.00,,,0.00,0.00,VWS V14.00,2013-11-29 05:28:00,
2013-11-28 22:29:00,23.0,20.2,31.26,North,355,0.0,4.0,89,0.00,,,0.00,0.00,VWS V14.00,2013-11-29 05:29:00,
2013-11-28 22:30:00,23.1,20.4,31.26,North,355,0.0,4.0,89,0.00,,,0.00,0.00,VWS V14.00,2013-11-29 05:30:00,
2013-11-28 22:31:00,23.2,20.5,31.26,North,355,0.0,0.0,89,0.00,,,0.00,0.00,VWS V14.00,2013-11-29 05:31:00,
2013-11-28 22:32:00,23.3,20.5,31.26,North,355,0.0,0.0,89,0.00,,,0.00,0.00,VWS V14.00,2013-11-29 05:32:00,
2013-11-28 22:33:00,23.3,20.5,31.26,North,355,0.0,0.0,89,0.00,,,0.00,0.00,VWS V14.00,2013-11-29 05:33:00,
2013-11-28 22:34:00,23.4,20.6,31.26,North,355,0.0,0.0,89,0.00,,,0.00,0.00,VWS V14.00,2013-11-29 05:34:00,
2013-11-28 22:35:00,23.5,20.7,31.26,North,355,0.0,2.0,89,0.00,,,0.00,0.00,VWS V14.00,2013-11-29 05:35:00,
2013-11-28 22:36:00,23.5,20.7,31.25,North,355,2.0,3.0,89,0.00,,,0.00,0.00,VWS V14.00,2013-11-29 05:36:00,
2013-11-28 22:37:00,23.6,20.8,31.25,North,355,1.0,3.0,89,0.00,,,0.00,0.00,VWS V14.00,2013-11-29 05:37:00,
2013-11-28 22:38:00,23.6,20.8,31.25,North,355,2.0,4.0,89,0.00,,,0.00,0.00,VWS V14.00,2013-11-29 05:38:00,
2013-11-28 22:39:00,23.6,20.8,31.25,North,355,2.0,4.0,89,0.00,,,0.00,0.00,VWS V14.00,2013-11-29 05:39:00,
2013-11-28 22:40:00,23.6,20.8,31.25,North,355,2.0,4.0,89,0.00,,,0.00,0.00,VWS V14.00,2013-11-29 05:40:00,
2013-11-28 22:41:00,23.6,20.8,31.25,North,355,1.0,4.0,89,0.00,,,0.00,0.00,VWS V14.00,2013-11-29 05:41:00,
2013-11-28 22:42:00,23.6,20.8,31.25,North,355,1.0,4.0,89,0.00,,,0.00,0.00,VWS V14.00,2013-11-29 05:42:00,
2013-11-28 22:43:00,23.5,20.5,31.25,North,355,0.0,4.0,88,0.00,,,0.00,0.00,VWS V14.00,2013-11-29 05:43:00,
2013-11-28 22:44:00,23.5,20.5,31.25,North,355,0.0,4.0,88,0.00,,,0.00,0.00,VWS V14.00,2013-11-29 05:44:00,
2013-11-28 22:45:00,23.5,20.5,31.25,North,355,0.0,4.0,88,0.00,,,0.00,0.00,VWS V14.00,2013-11-29 05:45:00,
2013-11-28 22:46:00,23.4,20.4,31.25,North,355,0.0,0.0,88,0.00,,,0.00,0.00,VWS V14.00,2013-11-29 05:46:00,
2013-11-28 22:47:00,23.4,20.4,31.27,North,355,0.0,0.0,88,0.00,,,0.00,0.00,VWS V14.00,2013-11-29 05:47:00,
2013-11-28 22:48:00,23.3,20.3,31.27,North,355,0.0,0.0,88,0.00,,,0.00,0.00,VWS V14.00,2013-11-29 05:48:00,
2013-11-28 22:49:00,23.3,20.0,31.27,North,355,0.0,0.0,87,0.00,,,0.00,0.00,VWS V14.00,2013-11-29 05:49:00,
2013-11-28 22:50:00,23.2,19.9,31.27,North,355,0.0,0.0,87,0.00,,,0.00,0.00,VWS V14.00,2013-11-29 05:50:00,
2013-11-28 22:51:00,23.1,19.8,31.27,North,355,0.0,0.0,87,0.00,,,0.00,0.00,VWS V14.00,2013-11-29 05:51:00,
2013-11-28 22:52:00,23.1,19.8,31.27,North,355,0.0,0.0,87,0.00,,,0.00,0.00,VWS V14.00,2013-11-29 05:52:00,
2013-11-28 22:53:00,23.0,19.7,31.27,North,355,0.0,0.0,87,0.00,,,0.00,0.00,VWS V14.00,2013-11-29 05:53:00,
2013-11-28 22:54:00,23.0,19.7,31.27,North,355,0.0,0.0,87,0.00,,,0.00,0.00,VWS V14.00,2013-11-29 05:54:00,
2013-11-28 22:55:00,22.9,19.6,31.27,North,355,0.0,0.0,87,0.00,,,0.00,0.00,VWS V14.00,2013-11-29 05:55:00,
2013-11-28 22:56:00,22.9,19.6,31.27,North,355,0.0,0.0,87,0.00,,,0.00,0.00,VWS V14.00,2013-11-29 05:56:00,
2013-11-28 22:57:00,22.8,19.5,31.27,North,355,0.0,0.0,87,0.00,,,0.00,0.00,VWS V14.00,2013-11-29 05:57:00,
2013-11-28 22:58:00,22.7,19.1,31.26,North,355,0.0,0.0,86,0.00,,,0.00,0.00,VWS V14.00,2013-11-29 05:58:00,
2013-11-28 22:59:00,22.7,19.1,31.26,North,355,0.0,0.0,86,0.00,,,0.00,0.00,VWS V14.00,2013-11-29 05:59:00,
2013-11-28 23:00:00,22.6,19.0,31.26,North,355,0.0,0.0,86,0.00,,,0.00,0.00,VWS V14.00,2013-11-29 06:00:00,
2013-11-28 23:01:00,22.6,19.0,31.25,North,355,0.0,0.0,86,0.00,,,0.00,0.00,VWS V14.00,2013-11-29 06:01:00,
2013-11-28 23:02:00,22.5,19.0,31.25,North,355,0.0,0.0,86,0.00,,,0.00,0.00,VWS V14.00,2013-11-29 06:02:00,
2013-11-28 23:03:00,22.4,18.9,31.25,North,355,0.0,0.0,86,0.00,,,0.00,0.00,VWS V14.00,2013-11-29 06:03:00,
2013-11-28 23:04:00,22.4,18.9,31.26,North,355,0.0,0.0,86,0.00,,,0.00,0.00,VWS V14.00,2013-11-29 06:04:00,
2013-11-28 23:05:00,22.4,18.9,31.26,North,355,0.0,0.0,86,0.00,,,0.00,0.00,VWS V14.00,2013-11-29 06:05:00,
2013-11-28 23:06:00,22.3,18.8,31.26,North,355,0.0,0.0,86,0.00,,,0.00,0.00,VWS V14.00,2013-11-29 06:06:00,
2013-11-28 23:07:00,22.2,18.7,31.26,North,355,0.0,0.0,86,0.00,,,0.00,0.00,VWS V14.00,2013-11-29 06:07:00,
2013-11-28 23:08:00,22.2,18.7,31.26,North,355,0.0,0.0,86,0.00,,,0.00,0.00,VWS V14.00,2013-11-29 06:08:00,
2013-11-28 23:09:00,22.1,18.6,31.26,North,355,0.0,0.0,86,0.00,,,0.00,0.00,VWS V14.00,2013-11-29 06:09:00,
2013-11-28 23:10:00,22.0,18.5,31.26,North,355,0.0,0.0,86,0.00,,,0.00,0.00,VWS V14.00,2013-11-29 06:10:00,
2013-11-28 23:11:00,21.9,18.4,31.26,North,355,0.0,0.0,86,0.00,,,0.00,0.00,VWS V14.00,2013-11-29 06:11:00,
2013-11-28 23:12:00,21.8,18.3,31.26,North,355,0.0,0.0,86,0.00,,,0.00,0.00,VWS V14.00,2013-11-29 06:12:00,
2013-11-28 23:13:00,21.8,18.3,31.26,North,355,0.0,0.0,86,0.00,,,0.00,0.00,VWS V14.00,2013-11-29 06:13:00,
2013-11-28 23:14:00,21.7,18.2,31.26,North,355,0.0,0.0,86,0.00,,,0.00,0.00,VWS V14.00,2013-11-29 06:14:00,
2013-11-28 23:15:00,21.7,18.2,31.26,North,355,0.0,0.0,86,0.00,,,0.00,0.00,VWS V14.00,2013-11-29 06:15:00,
2013-11-28 23:16:00,21.6,17.8,31.26,North,355,0.0,0.0,85,0.00,,,0.00,0.00,VWS V14.00,2013-11-29 06:16:00,
2013-11-28 23:17:00,21.6,17.8,31.26,North,355,0.0,0.0,85,0.00,,,0.00,0.00,VWS V14.00,2013-11-29 06:17:00,
2013-11-28 23:18:00,21.5,17.7,31.26,North,355,0.0,0.0,85,0.00,,,0.00,0.00,VWS V14.00,2013-11-29 06:18:00,
2013-11-28 23:19:00,21.5,17.7,31.26,North,355,0.0,0.0,85,0.00,,,0.00,0.00,VWS V14.00,2013-11-29 06:19:00,
2013-11-28 23:20:00,21.4,17.6,31.26,North,355,0.0,0.0,85,0.00,,,0.00,0.00,VWS V14.00,2013-11-29 06:20:00,
2013-11-28 23:21:00,21.3,17.5,31.27,North,355,0.0,0.0,85,0.00,,,0.00,0.00,VWS V14.00,2013-11-29 06:21:00,
2013-11-28 23:22:00,21.3,17.5,31.27,North,355,0.0,0.0,85,0.00,,,0.00,0.00,VWS V14.00,2013-11-29 06:22:00,
2013-11-28 23:23:00,21.2,17.4,31.27,North,355,0.0,0.0,85,0.00,,,0.00,0.00,VWS V14.00,2013-11-29 06:23:00,
2013-11-28 23:24:00,21.1,17.3,31.27,North,355,0.0,0.0,85,0.00,,,0.00,0.00,VWS V14.00,2013-11-29 06:24:00,
2013-11-28 23:25:00,21.1,17.3,31.27,North,355,0.0,0.0,85,0.00,,,0.00,0.00,VWS V14.00,2013-11-29 06:25:00,
2013-11-28 23:26:00,21.0,17.2,31.27,North,355,0.0,0.0,85,0.00,,,0.00,0.00,VWS V14.00,2013-11-29 06:26:00,
2013-11-28 23:27:00,21.0,17.2,31.27,North,355,0.0,0.0,85,0.00,,,0.00,0.00,VWS V14.00,2013-11-29 06:27:00,
2013-11-28 23:28:00,20.9,17.4,31.27,North,355,0.0,0.0,86,0.00,,,0.00,0.00,VWS V14.00,2013-11-29 06:28:00,
2013-11-28 23:29:00,20.9,17.4,31.27,North,355,0.0,0.0,86,0.00,,,0.00,0.00,VWS V14.00,2013-11-29 06:29:00,
2013-11-28 23:30:00,20.9,17.4,31.28,North,355,0.0,0.0,86,0.00,,,0.00,0.00,VWS V14.00,2013-11-29 06:30:00,
2013-11-28 23:31:00,20.9,17.4,31.28,North,355,0.0,0.0,86,0.00,,,0.00,0.00,VWS V14.00,2013-11-29 06:31:00,
2013-11-28 23:32:00,20.9,17.4,31.28,North,355,0.0,0.0,86,0.00,,,0.00,0.00,VWS V14.00,2013-11-29 06:32:00,
2013-11-28 23:33:00,20.9,17.4,31.28,North,355,0.0,0.0,86,0.00,,,0.00,0.00,VWS V14.00,2013-11-29 06:33:00,
2013-11-28 23:34:00,21.0,17.8,31.28,North,355,0.0,0.0,87,0.00,,,0.00,0.00,VWS V14.00,2013-11-29 06:34:00,
2013-11-28 23:35:00,21.1,17.8,31.28,North,355,0.0,0.0,87,0.00,,,0.00,0.00,VWS V14.00,2013-11-29 06:35:00,
2013-11-28 23:36:00,21.1,18.1,31.28,North,355,0.0,0.0,88,0.00,,,0.00,0.00,VWS V14.00,2013-11-29 06:36:00,
2013-11-28 23:37:00,21.2,18.2,31.27,North,355,0.0,0.0,88,0.00,,,0.00,0.00,VWS V14.00,2013-11-29 06:37:00,
2013-11-28 23:38:00,21.2,18.2,31.27,North,355,0.0,0.0,88,0.00,,,0.00,0.00,VWS V14.00,2013-11-29 06:38:00,
2013-11-28 23:39:00,21.2,18.2,31.27,North,355,1.0,2.0,88,0.00,,,0.00,0.00,VWS V14.00,2013-11-29 06:39:00,
2013-11-28 23:40:00,21.2,18.2,31.27,North,355,0.0,2.0,88,0.00,,,0.00,0.00,VWS V14.00,2013-11-29 06:40:00,
2013-11-28 23:41:00,21.2,18.2,31.27,North,355,1.0,2.0,88,0.00,,,0.00,0.00,VWS V14.00,2013-11-29 06:41:00,
2013-11-28 23:42:00,21.0,17.8,31.27,North,355,1.0,2.0,87,0.00,,,0.00,0.00,VWS V14.00,2013-11-29 06:42:00,
2013-11-28 23:43:00,20.9,17.6,31.28,North,355,0.0,2.0,87,0.00,,,0.00,0.00,VWS V14.00,2013-11-29 06:43:00,
2013-11-28 23:44:00,20.8,17.3,31.28,North,355,0.0,2.0,86,0.00,,,0.00,0.00,VWS V14.00,2013-11-29 06:44:00,
2013-11-28 23:45:00,20.7,17.2,31.28,North,355,0.0,2.0,86,0.00,,,0.00,0.00,VWS V14.00,2013-11-29 06:45:00,
2013-11-28 23:46:00,20.7,17.2,31.28,North,355,0.0,0.0,86,0.00,,,0.00,0.00,VWS V14.00,2013-11-29 06:46:00,
2013-11-28 23:47:00,20.7,17.2,31.28,North,355,0.0,0.0,86,0.00,,,0.00,0.00,VWS V14.00,2013-11-29 06:47:00,
2013-11-28 23:48:00,20.7,17.2,31.28,North,355,0.0,0.0,86,0.00,,,0.00,0.00,VWS V14.00,2013-11-29 06:48:00,
2013-11-28 23:49:00,20.6,17.1,31.28,North,355,0.0,0.0,86,0.00,,,0.00,0.00,VWS V14.00,2013-11-29 06:49:00,
2013-11-28 23:50:00,20.6,17.1,31.28,North,355,0.0,0.0,86,0.00,,,0.00,0.00,VWS V14.00,2013-11-29 06:50:00,
2013-11-28 23:51:00,20.6,17.1,31.28,North,355,0.0,0.0,86,0.00,,,0.00,0.00,VWS V14.00,2013-11-29 06:51:00,
2013-11-28 23:52:00,20.5,17.0,31.28,North,355,0.0,0.0,86,0.00,,,0.00,0.00,VWS V14.00,2013-11-29 06:52:00,
2013-11-28 23:53:00,20.5,17.0,31.28,North,355,0.0,0.0,86,0.00,,,0.00,0.00,VWS V14.00,2013-11-29 06:53:00,
2013-11-28 23:54:00,20.5,17.0,31.28,North,355,0.0,0.0,86,0.00,,,0.00,0.00,VWS V14.00,2013-11-29 06:54:00,
2013-11-28 23:55:00,20.4,16.9,31.28,North,355,0.0,0.0,86,0.00,,,0.00,0.00,VWS V14.00,2013-11-29 06:55:00,
2013-11-28 23:56:00,20.4,16.9,31.28,North,355,0.0,0.0,86,0.00,,,0.00,0.00,VWS V14.00,2013-11-29 06:56:00,
2013-11-28 23:57:00,20.4,16.9,31.28,North,355,0.0,0.0,86,0.00,,,0.00,0.00,VWS V14.00,2013-11-29 06:57:00,
2013-11-28 23:58:00,20.3,16.8,31.28,North,355,0.0,0.0,86,0.00,,,0.00,0.00,VWS V14.00,2013-11-29 06:58:00,
2013-11-28 23:59:00,20.4,16.9,31.28,North,355,0.0,0.0,86,0.00,,,0.00,0.00,VWS V14.00,2013-11-29 06:59:00,